[[{"header":{"parameterUnit":"m.s-1","parameterCategory":1,"la1":30.6,"la2":29.2853,"lo1":-89.7004,"lo2":-87.6739,"dy":0.0162,"dx":0.0183,"nx":112,"ny":82,"refTime":"2023-05-18T12:00:00:Z","depth":0,"parameterNumber":2,"parameterNumberName":"U-component_of_WINDS"},"data":[0.0,0.0,0.0,0.0,0.0,0.0,0.0,0.0,0.0,0.0,0.0,0.0,0.0,0.0,0.0,0.0,0.0,0.0,0.0,0.0,0.0,0.0,0.0,0.0,0.0,0.0,0.0,0.0,0.0,0.0,0.0,0.0,0.0,0.0,0.0,0.0,0.0,0.0,0.0,0.0,0.0,0.0,0.0,0.0,0.0,0.0,0.0,0.0,0.0,0.0,0.0,0.0,0.0,0.0,0.0,0.0,0.0,0.0,0.0,0.0,0.0,0.0,0.0,0.0,0.0,0.0,0.0,0.0,0.0,0.0,0.0,0.0,0.0,0.0,0.0,0.0,0.0,0.0,0.0,0.0,0.0,0.0,0.0,0.0,0.0,0.0,0.0,0.0,0.0,0.0,3.2365,3.3167,3.5626,3.7241,3.7283,3.6751,3.5086,3.1915,0.0,0.0,0.0,0.0,0.0,0.0,0.0,0.0,0.0,0.0,0.0,0.0,0.0,0.0,0.0,0.0,0.0,0.0,0.0,0.0,0.0,0.0,0.0,0.0,0.0,0.0,0.0,0.0,0.0,0.0,0.0,0.0,0.0,0.0,0.0,0.0,0.0,0.0,0.0,0.0,0.0,0.0,0.0,0.0,0.0,0.0,0.0,0.0,0.0,0.0,0.0,0.0,0.0,0.0,0.0,0.0,0.0,0.0,0.0,0.0,0.0,0.0,0.0,0.0,0.0,0.0,0.0,0.0,0.0,0.0,0.0,0.0,0.0,0.0,0.0,0.0,0.0,0.0,0.0,0.0,0.0,0.0,0.0,0.0,0.0,0.0,0.0,0.0,0.0,0.0,0.0,0.0,0.0,0.0,0.0,0.0,0.0,0.0,0.0,0.0,0.0,0.0,0.0,0.0,3.1798,3.3731,3.5128,3.5909,3.5909,3.5243,3.3838,3.146,0.0,0.0,0.0,0.0,0.0,0.0,0.0,0.0,0.0,0.0,0.0,0.0,0.0,0.0,0.0,0.0,0.0,0.0,0.0,0.0,0.0,0.0,0.0,0.0,0.0,0.0,0.0,0.0,0.0,0.0,0.0,0.0,0.0,0.0,0.0,0.0,0.0,0.0,0.0,0.0,0.0,0.0,0.0,0.0,0.0,0.0,0.0,0.0,0.0,0.0,0.0,0.0,0.0,0.0,0.0,0.0,0.0,0.0,0.0,0.0,0.0,0.0,0.0,0.0,0.0,0.0,0.0,0.0,0.0,0.0,0.0,0.0,0.0,0.0,0.0,0.0,0.0,0.0,0.0,0.0,0.0,0.0,0.0,0.0,0.0,0.0,0.0,0.0,0.0,0.0,0.0,0.0,0.0,0.0,0.0,0.0,0.0,0.0,0.0,0.0,0.0,0.0,0.0,3.0514,3.1573,3.2968,3.4228,3.5013,3.5013,3.404,3.2789,3.1309,3.0302,0.0,0.0,0.0,0.0,0.0,0.0,0.0,0.0,0.0,0.0,0.0,0.0,0.0,0.0,0.0,0.0,0.0,0.0,0.0,0.0,0.0,0.0,0.0,0.0,0.0,0.0,0.0,0.0,0.0,0.0,0.0,0.0,0.0,0.0,0.0,0.0,0.0,0.0,0.0,0.0,0.0,0.0,0.0,0.0,0.0,0.0,0.0,0.0,0.0,0.0,0.0,0.0,0.0,0.0,0.0,0.0,0.0,0.0,0.0,0.0,0.0,0.0,0.0,0.0,0.0,0.0,0.0,0.0,0.0,0.0,0.0,0.0,0.0,0.0,0.0,0.0,0.0,0.0,0.0,0.0,0.0,0.0,0.0,0.0,0.0,0.0,0.0,0.0,0.0,0.0,0.0,0.0,0.0,0.0,0.0,0.0,0.0,0.0,0.0,0.0,0.0,0.0,3.0873,3.1168,3.2207,3.3187,3.3842,3.4028,3.263,3.1483,3.0774,2.8948,0.0,0.0,0.0,0.0,0.0,0.0,0.0,0.0,0.0,0.0,0.0,0.0,0.0,0.0,0.0,0.0,0.0,0.0,0.0,0.0,0.0,0.0,0.0,0.0,0.0,0.0,0.0,0.0,0.0,0.0,0.0,0.0,0.0,0.0,0.0,0.0,0.0,0.0,0.0,0.0,0.0,0.0,0.0,0.0,0.0,0.0,0.0,0.0,0.0,0.0,0.0,0.0,0.0,0.0,0.0,0.0,0.0,0.0,0.0,0.0,0.0,0.0,0.0,0.0,0.0,0.0,0.0,0.0,0.0,0.0,0.0,0.0,0.0,0.0,0.0,0.0,0.0,0.0,0.0,0.0,0.0,0.0,0.0,0.0,0.0,0.0,0.0,0.0,0.0,0.0,0.0,0.0,0.0,0.0,0.0,0.0,0.0,0.0,0.0,0.0,0.0,0.0,2.9857,3.0298,3.2116,3.1909,3.188,3.2557,3.0819,2.961,2.9378,2.7976,0.0,0.0,0.0,0.0,0.0,0.0,0.0,0.0,0.0,0.0,0.0,0.0,0.0,0.0,0.0,0.0,0.0,0.0,0.0,0.0,0.0,0.0,0.0,0.0,0.0,0.0,0.0,0.0,0.0,0.0,0.0,0.0,0.0,0.0,0.0,0.0,0.0,0.0,0.0,0.0,0.0,0.0,0.0,0.0,0.0,0.0,0.0,0.0,0.0,0.0,0.0,0.0,0.0,0.0,0.0,0.0,0.0,0.0,0.0,0.0,0.0,0.0,0.0,0.0,0.0,0.0,0.0,0.0,0.0,0.0,0.0,0.0,0.0,0.0,0.0,0.0,0.0,0.0,0.0,0.0,0.0,0.0,0.0,0.0,0.0,0.0,0.0,0.0,0.0,0.0,0.0,0.0,0.0,0.0,0.0,0.0,0.0,0.0,0.0,0.0,0.0,0.0,2.876,2.9059,2.966,3.0328,3.0701,3.0612,2.9603,2.8862,2.8709,0.0,0.0,0.0,0.0,0.0,0.0,0.0,0.0,0.0,0.0,0.0,0.0,0.0,0.0,0.0,0.0,0.0,0.0,0.0,0.0,0.0,0.0,0.0,0.0,0.0,0.0,0.0,0.0,0.0,0.0,0.0,0.0,0.0,0.0,0.0,0.0,0.0,0.0,0.0,0.0,0.0,0.0,0.0,0.0,0.0,0.0,0.0,0.0,0.0,0.0,0.0,0.0,0.0,0.0,0.0,0.0,0.0,0.0,0.0,0.0,0.0,0.0,0.0,0.0,0.0,0.0,0.0,0.0,0.0,0.0,0.0,0.0,0.0,0.0,0.0,0.0,0.0,0.0,0.0,0.0,0.0,0.0,0.0,0.0,0.0,0.0,0.0,0.0,0.0,0.0,0.0,0.0,0.0,0.0,0.0,0.0,0.0,0.0,0.0,0.0,0.0,0.0,2.7484,2.7962,2.8202,2.8207,2.8886,2.9124,2.857,2.7812,2.7348,2.7438,0.0,0.0,0.0,0.0,0.0,0.0,0.0,0.0,0.0,0.0,0.0,0.0,0.0,0.0,0.0,0.0,0.0,0.0,0.0,0.0,0.0,0.0,0.0,0.0,0.0,0.0,0.0,0.0,0.0,0.0,0.0,0.0,0.0,0.0,0.0,0.0,0.0,0.0,0.0,0.0,0.0,0.0,0.0,0.0,0.0,0.0,0.0,0.0,0.0,0.0,0.0,0.0,0.0,0.0,0.0,0.0,0.0,0.0,0.0,0.0,0.0,0.0,0.0,0.0,0.0,0.0,0.0,0.0,0.0,0.0,0.0,0.0,0.0,0.0,0.0,0.0,0.0,0.0,0.0,0.0,0.0,0.0,0.0,0.0,0.0,0.0,0.0,0.0,0.0,0.0,0.0,0.0,0.0,0.0,0.0,0.0,0.0,0.0,0.0,0.0,0.0,0.0,2.7109,2.7588,2.79,2.8136,2.7648,2.7068,2.6507,2.5318,2.4836,0.0,0.0,0.0,0.0,0.0,0.0,0.0,0.0,0.0,0.0,0.0,0.0,0.0,0.0,0.0,0.0,0.0,0.0,0.0,0.0,0.0,0.0,0.0,0.0,0.0,0.0,0.0,0.0,0.0,0.0,0.0,0.0,0.0,0.0,0.0,0.0,0.0,0.0,0.0,0.0,0.0,0.0,0.0,0.0,0.0,0.0,0.0,0.0,0.0,0.0,0.0,0.0,0.0,0.0,0.0,0.0,0.0,0.0,0.0,0.0,0.0,0.0,0.0,0.0,0.0,0.0,0.0,0.0,0.0,0.0,0.0,0.0,0.0,0.0,0.0,0.0,0.0,0.0,0.0,0.0,0.0,0.0,0.0,0.0,0.0,0.0,0.0,0.0,0.0,0.0,0.0,0.0,0.0,0.0,0.0,0.0,0.0,0.0,0.0,0.0,0.0,0.0,0.0,2.5118,2.5933,2.6282,2.56,2.5764,2.5737,2.5197,2.4822,2.4672,2.4836,0.0,0.0,0.0,0.0,0.0,0.0,0.0,0.0,0.0,0.0,0.0,0.0,0.0,0.0,0.0,0.0,0.0,0.0,0.0,0.0,0.0,0.0,0.0,0.0,0.0,0.0,0.0,0.0,0.0,0.0,0.0,0.0,0.0,0.0,0.0,0.0,0.0,0.0,0.0,0.0,0.0,0.0,0.0,0.0,0.0,0.0,0.0,0.0,0.0,0.0,0.0,0.0,0.0,0.0,0.0,0.0,0.0,0.0,0.0,0.0,0.0,0.0,0.0,0.0,0.0,0.0,0.0,0.0,0.0,0.0,0.0,0.0,0.0,0.0,0.0,0.0,0.0,0.0,0.0,0.0,0.0,0.0,0.0,0.0,0.0,0.0,0.0,0.0,0.0,0.0,0.0,0.0,0.0,0.0,0.0,0.0,0.0,0.0,0.0,0.0,0.0,0.0,2.4059,2.497,2.5335,2.4511,2.4777,2.4787,2.4267,2.4223,2.409,2.385,0.0,0.0,0.0,0.0,0.0,0.0,0.0,0.0,0.0,0.0,0.0,0.0,0.0,0.0,0.0,0.0,0.0,0.0,0.0,0.0,0.0,0.0,0.0,0.0,0.0,0.0,0.0,0.0,0.0,0.0,0.0,0.0,0.0,0.0,0.0,0.0,0.0,0.0,0.0,0.0,0.0,0.0,0.0,0.0,0.0,0.0,0.0,0.0,0.0,0.0,0.0,0.0,0.0,0.0,0.0,0.0,0.0,0.0,0.0,0.0,0.0,0.0,0.0,0.0,0.0,0.0,0.0,0.0,0.0,0.0,0.0,0.0,0.0,0.0,0.0,0.0,0.0,0.0,0.0,0.0,0.0,0.0,0.0,0.0,0.0,0.0,0.0,0.0,0.0,0.0,0.0,0.0,0.0,0.0,0.0,0.0,0.0,0.0,0.0,0.0,0.0,0.0,2.3769,2.4555,2.4934,2.4389,2.4307,2.4116,2.3551,2.3508,2.3246,2.2649,0.0,0.0,0.0,0.0,0.0,0.0,0.0,0.0,0.0,0.0,0.0,0.0,0.0,0.0,0.0,0.0,0.0,0.0,0.0,0.0,0.0,0.0,0.0,0.0,0.0,0.0,0.0,0.0,0.0,0.0,0.0,0.0,0.0,0.0,0.0,0.0,0.0,0.0,0.0,0.0,0.0,0.0,0.0,0.0,0.0,0.0,0.0,0.0,0.0,0.0,0.0,0.0,0.0,0.0,0.0,0.0,0.0,0.0,0.0,0.0,2.6961,2.6421,0.0,0.0,0.0,0.0,0.0,0.0,0.0,0.0,0.0,0.0,0.0,0.0,0.0,0.0,0.0,0.0,0.0,0.0,0.0,0.0,0.0,0.0,0.0,0.0,0.0,0.0,0.0,0.0,0.0,0.0,0.0,0.0,0.0,0.0,0.0,0.0,0.0,0.0,0.0,0.0,2.4064,2.4349,2.4348,2.3837,2.3752,2.3537,2.292,2.2875,2.2634,2.1946,2.2025,0.0,0.0,0.0,0.0,0.0,0.0,0.0,0.0,0.0,0.0,0.0,0.0,0.0,0.0,0.0,0.0,0.0,0.0,0.0,0.0,0.0,0.0,0.0,0.0,0.0,0.0,0.0,0.0,0.0,0.0,0.0,0.0,0.0,0.0,0.0,0.0,0.0,0.0,0.0,0.0,0.0,0.0,0.0,0.0,0.0,0.0,0.0,0.0,0.0,0.0,0.0,0.0,0.0,0.0,0.0,0.0,0.0,0.0,0.0,2.7413,2.6828,0.0,0.0,0.0,0.0,0.0,0.0,0.0,0.0,0.0,0.0,0.0,0.0,0.0,0.0,0.0,0.0,0.0,0.0,0.0,0.0,0.0,0.0,0.0,0.0,0.0,0.0,0.0,0.0,0.0,0.0,0.0,0.0,0.0,0.0,0.0,0.0,0.0,0.0,0.0,0.0,2.3784,2.3906,2.3779,2.3231,2.3157,2.2905,2.2253,2.2193,2.196,2.1293,2.152,0.0,0.0,0.0,0.0,0.0,0.0,0.0,0.0,0.0,0.0,0.0,0.0,0.0,0.0,0.0,0.0,0.0,0.0,0.0,0.0,0.0,0.0,0.0,0.0,0.0,0.0,0.0,0.0,0.0,0.0,0.0,0.0,0.0,0.0,0.0,0.0,0.0,0.0,0.0,0.0,0.0,0.0,0.0,0.0,0.0,0.0,0.0,0.0,0.0,0.0,0.0,0.0,0.0,2.9608,2.9528,3.006,2.9557,2.8919,2.8198,2.8263,2.7748,2.6914,2.6788,0.0,0.0,0.0,0.0,0.0,0.0,0.0,0.0,0.0,0.0,0.0,0.0,0.0,0.0,0.0,0.0,0.0,0.0,0.0,0.0,0.0,0.0,0.0,0.0,2.461,2.4586,2.4541,0.0,0.0,0.0,0.0,0.0,0.0,0.0,0.0,0.0,0.0,0.0,2.3374,2.3322,2.3157,2.2725,2.2503,2.214,2.1602,2.1568,2.1293,2.0646,2.1099,2.0815,0.0,0.0,0.0,0.0,0.0,0.0,0.0,0.0,0.0,0.0,0.0,0.0,0.0,0.0,0.0,0.0,0.0,0.0,0.0,0.0,0.0,0.0,0.0,0.0,0.0,0.0,0.0,0.0,0.0,0.0,0.0,0.0,3.185,3.1831,0.0,0.0,0.0,0.0,0.0,0.0,0.0,0.0,0.0,0.0,0.0,0.0,0.0,2.7371,2.7525,2.7924,2.8849,3.0248,3.0126,2.988,2.9606,3.0099,2.9295,2.7534,2.8635,0.0,2.5681,2.5223,0.0,0.0,0.0,0.0,0.0,0.0,0.0,0.0,0.0,0.0,0.0,0.0,0.0,0.0,0.0,0.0,0.0,0.0,0.0,0.0,0.0,0.0,2.1274,2.2002,2.2183,2.214,0.0,2.3168,2.4076,2.4164,2.3165,0.0,0.0,0.0,0.0,0.0,0.0,0.0,2.3444,2.2652,2.228,2.2637,2.1741,2.1093,2.0939,2.0944,2.0646,1.9952,1.9991,1.9658,1.8874,1.8749,0.0,0.0,0.0,0.0,0.0,0.0,0.0,0.0,0.0,0.0,0.0,0.0,0.0,0.0,0.0,0.0,0.0,0.0,0.0,0.0,0.0,0.0,0.0,0.0,0.0,0.0,0.0,0.0,0.0,3.1524,3.2154,3.045,3.0925,3.0674,0.0,0.0,0.0,0.0,0.0,0.0,0.0,0.0,0.0,2.6437,2.6901,2.7788,2.9011,2.9171,2.9785,3.0767,3.0057,2.9559,2.9337,2.891,2.8194,2.7314,2.7921,2.6854,2.4697,2.4763,2.4042,2.2764,0.0,0.0,0.0,0.0,2.0365,2.0379,1.9437,1.9118,1.9036,1.857,0.0,0.0,0.0,0.0,0.0,0.0,0.0,0.0,0.0,0.0,2.0064,2.0401,2.045,2.045,2.045,2.1093,2.1971,0.0,2.301,2.3103,2.3991,0.0,0.0,0.0,0.0,2.2978,2.2109,2.1603,2.1284,2.1135,2.0378,1.9847,1.9806,1.9808,1.9623,1.919,1.9202,1.8661,1.7523,1.7025,1.6455,0.0,0.0,0.0,0.0,0.0,0.0,0.0,0.0,0.0,0.0,0.0,0.0,0.0,0.0,0.0,0.0,0.0,0.0,0.0,0.0,0.0,0.0,0.0,0.0,0.0,0.0,0.0,0.0,3.1845,3.2356,2.9902,3.1333,3.1411,0.0,0.0,0.0,0.0,0.0,0.0,2.7229,2.6844,2.691,2.7576,2.7565,2.8469,3.0248,3.0078,3.0289,3.0934,2.9879,2.9122,2.864,2.7731,2.6996,2.6416,2.6579,2.5424,2.3417,2.4163,2.3554,2.2122,2.0811,2.031,2.0184,1.9229,1.8946,1.8844,1.7532,1.7119,1.6953,1.6205,1.5864,1.5752,1.5698,0.0,0.0,0.0,0.0,1.8424,1.8424,1.8553,1.8762,1.8836,1.8863,1.8827,1.8743,1.882,1.9512,0.0,2.2134,2.2562,2.3043,0.0,0.0,2.1802,2.1779,2.1476,2.0577,2.03,2.0105,1.9713,1.9075,1.8779,1.897,1.8983,1.8932,1.8679,1.8715,1.8058,1.6549,1.5736,1.4974,1.4204,0.0,0.0,0.0,0.0,0.0,0.0,0.0,0.0,0.0,0.0,0.0,0.0,0.0,0.0,0.0,0.0,0.0,0.0,0.0,0.0,0.0,0.0,0.0,0.0,0.0,0.0,0.0,0.0,0.0,3.1927,3.3452,0.0,0.0,0.0,0.0,2.7689,2.8412,2.8947,2.8962,2.9619,2.9734,2.9201,2.9131,2.9551,3.0497,2.974,2.9666,3.0317,2.9711,2.8639,2.7294,2.7298,2.6082,2.4015,2.4659,2.3615,2.1604,2.2727,2.1874,1.9823,1.9208,1.9019,1.8773,1.6919,1.6434,1.65,1.4504,1.384,1.3891,1.4292,1.4101,1.3785,1.4112,1.4264,0.0,0.0,1.4839,1.5514,1.5514,1.6079,1.6749,1.705,1.7149,1.7024,1.6621,1.6546,1.7225,0.0,1.9584,1.9531,2.0174,0.0,1.9335,1.9293,1.9824,1.9978,1.9294,1.8765,1.8595,1.911,1.8145,1.7899,1.8883,1.8983,1.8932,1.8679,1.8715,1.8058,1.6549,1.5736,1.4974,1.4204,1.2623,0.0,0.0,0.0,0.0,0.0,0.0,0.0,0.0,0.0,0.0,0.0,0.0,0.0,0.0,0.0,0.0,0.0,0.0,0.0,0.0,0.0,0.0,0.0,0.0,0.0,0.0,0.0,0.0,3.1297,3.3313,0.0,3.0105,3.0444,3.0212,2.8788,2.8983,2.903,2.8629,2.8288,2.8089,2.7947,2.8249,2.8449,2.842,2.851,2.8265,2.7598,2.6969,2.6155,2.5088,2.4234,2.3392,2.2565,2.2218,2.1297,2.0051,2.0473,2.0178,1.934,1.7971,1.7441,1.7261,1.5722,1.5274,1.5146,1.3687,1.3123,1.3034,1.2409,1.197,1.1684,1.1794,1.2235,1.2538,1.2373,1.2907,1.3504,1.3313,1.342,1.3728,1.3836,1.3853,1.3815,1.3673,1.4046,1.4731,1.5505,1.7225,1.8455,1.8303,1.8749,1.8865,1.8117,1.8464,1.859,1.8003,1.7783,1.7737,1.7906,1.6917,1.6636,1.7666,1.7405,1.7111,1.6904,1.6883,1.6221,1.4687,1.3865,1.2898,1.1843,1.0739,0.9469,0.0,0.0,0.0,0.0,0.0,0.0,0.0,0.0,0.0,0.0,0.0,0.0,0.0,0.0,0.0,0.0,0.0,0.0,0.0,0.0,0.0,0.0,0.0,0.0,0.0,3.2316,3.3265,3.1254,3.3458,3.3924,3.0858,3.1306,3.1274,3.0118,2.9768,2.9442,2.8995,2.8153,2.7629,2.7566,2.7633,2.7413,2.6881,2.6992,2.6423,2.5229,2.4638,2.3915,2.311,2.1989,2.1197,2.0723,2.0153,1.9447,1.8629,1.8268,1.8272,1.8277,1.7404,1.6853,1.6426,1.5087,1.4369,1.3898,1.2594,1.2123,1.1956,1.117,1.0715,1.0604,1.0441,1.0829,1.1182,1.0856,1.1356,1.2003,1.176,1.1919,1.2061,1.1936,1.1902,1.1869,1.1689,1.2122,1.2581,1.2833,1.5108,1.6902,1.6504,1.7072,1.7372,1.6606,1.6764,1.6831,1.6476,1.6617,1.6744,1.6744,1.6058,1.5932,1.6812,1.6474,1.6056,1.568,1.5795,1.5154,1.3494,1.2753,1.1734,1.0327,0.9127,0.7467,0.5413,0.0,0.0,0.0,0.0,0.0,0.0,0.0,0.0,0.0,0.0,0.0,0.0,0.0,0.0,0.0,0.0,0.0,0.0,0.0,0.0,0.0,0.0,0.0,3.0859,3.237,3.3114,3.2006,3.4038,3.4505,3.1721,3.271,3.292,3.1556,3.0747,3.0257,3.0174,2.9374,2.8648,2.8064,2.7287,2.6559,2.5954,2.5139,2.4313,2.3394,2.2879,2.2163,2.1329,2.0781,1.9779,1.8511,1.8447,1.8029,1.7222,1.623,1.6111,1.66,1.7501,1.7285,1.6312,1.4739,1.3619,1.2595,1.1141,1.0624,1.0624,1.0624,1.0618,1.0494,1.0207,1.0107,1.004,0.9753,1.0222,1.0827,1.082,1.1439,1.1914,1.1486,1.1403,1.1303,1.0845,1.0762,1.0965,1.1616,1.3301,1.4606,1.4652,1.4663,1.4698,1.4652,1.4709,0.0,1.4698,1.5231,1.5588,1.5611,1.5611,1.578,1.6349,1.623,1.5862,1.5215,1.5584,1.4992,1.3141,1.2609,1.1619,0.9993,0.7835,0.5449,0.2697,0.0,0.0,0.0,0.0,0.0,0.0,0.0,0.0,0.0,0.0,0.0,0.0,0.0,0.0,0.0,0.0,0.0,0.0,0.0,0.0,0.0,3.2465,3.2941,3.2067,3.3352,3.4206,3.3717,3.4387,3.4344,3.3069,3.3291,3.2719,3.0787,3.029,2.9444,2.7934,2.7012,2.6104,2.5187,2.5282,2.4659,2.3059,2.3201,2.2626,2.1403,2.1266,2.0598,1.9446,1.8624,1.761,1.6367,1.5771,1.5343,1.5099,1.4827,1.4821,1.4899,1.4887,1.4584,1.4025,1.2711,1.1815,1.1162,1.0742,1.0624,1.0624,1.0624,1.0414,1.0221,1.014,0.9967,0.974,0.9446,0.952,0.9632,0.9418,0.9517,0.9656,0.9563,0.9542,0.952,0.9382,0.971,1.0115,1.0312,1.1149,1.2199,1.3228,1.4118,1.456,1.4097,1.4422,0.0,1.4698,1.4835,1.5234,1.6111,1.5297,1.5114,1.6177,1.5286,1.4457,1.3991,1.4081,1.3456,1.1837,1.1861,1.0821,0.8615,0.6735,0.4745,0.0,0.0,0.0,0.0,0.0,0.0,0.0,0.0,0.0,0.0,0.0,0.0,0.0,0.0,0.0,0.0,0.0,0.0,0.0,0.0,0.0,0.0,3.3909,3.4447,3.4235,3.4763,3.5116,3.4841,3.4675,3.4314,3.356,3.3224,3.2287,3.0452,2.9656,2.8455,2.6671,2.5742,2.4678,2.3489,2.3759,2.2915,2.0858,2.0926,2.0375,1.9275,1.9073,1.8554,1.781,1.6973,1.6102,1.5277,1.4414,1.3988,1.398,1.3591,1.3549,0.0,0.0,0.0,0.0,0.0,1.0955,1.0624,1.0624,1.0624,1.0604,1.0414,1.0254,1.0067,0.9826,0.9633,0.9439,0.9138,0.9004,0.9018,0.8851,0.8804,0.8804,0.8804,0.8804,0.8804,0.8804,0.9113,0.9465,0.9762,1.0364,0.0,1.19,1.2841,1.3358,1.3034,1.3532,1.3931,1.3931,1.4154,1.4578,1.5266,1.4627,1.4418,1.5148,1.4358,0.0,0.0,0.0,1.2645,1.1256,1.0394,0.0,0.0,0.0,0.4161,0.1537,0.0,0.0,0.0,-0.6585,-0.7229,0.0,0.0,0.0,0.0,0.0,0.0,0.0,0.0,0.0,0.0,0.0,0.0,0.0,0.0,0.0,0.0,3.5287,3.6012,3.6796,3.64,3.5932,3.5571,3.5038,3.4392,3.3578,3.297,3.1938,3.0397,2.9061,2.7618,2.5928,2.5192,0.0,0.0,0.0,2.1509,1.9283,1.8796,1.8096,1.7305,1.6914,1.6646,1.6461,1.5789,1.5106,1.4489,1.3731,1.3353,1.3226,1.2326,1.2254,1.2736,1.3613,1.3439,1.255,1.1379,1.0782,1.0624,1.0624,0.0,0.0,1.02,1.0074,0.992,0.9342,0.9163,0.9084,0.8878,0.8804,0.8804,0.8804,0.8804,0.8804,0.8804,0.8804,0.8804,0.8804,0.8804,0.8956,0.9562,1.0218,1.0661,1.0568,1.1316,1.1922,1.1814,1.2452,1.2881,1.2881,1.3372,1.3752,1.3889,0.0,0.0,1.39,1.3661,1.333,1.291,1.2773,1.2178,1.0967,0.8705,0.7818,0.8619,0.6308,0.3418,-0.0,-0.2006,-0.382,-0.5446,-0.6639,-0.7475,0.0,0.0,0.0,0.0,0.0,0.0,0.0,0.0,0.0,0.0,0.0,0.0,0.0,0.0,0.0,3.5362,3.6453,3.74,3.8206,3.7544,3.6755,3.6256,3.5726,3.4905,3.3623,3.3373,3.2256,2.9726,2.9244,2.77,2.4415,2.4735,2.392,2.1402,2.1439,2.0705,1.916,1.8462,1.7708,1.6855,0.0,0.0,1.5247,1.5113,1.4063,1.2414,1.2235,1.1807,1.1143,1.0946,1.0987,1.107,1.15,1.1532,1.1306,1.0877,1.0672,1.0624,1.0624,1.0408,1.0194,1.0134,0.9793,0.9336,0.9216,0.9024,0.0,0.8824,0.8804,0.8804,0.8804,0.8804,0.8804,0.8804,0.8804,0.8804,0.8804,0.8804,0.8857,0.8962,0.951,0.9814,0.9263,1.1141,1.2501,1.1873,1.2452,1.2881,1.2881,1.3017,1.3427,1.4342,1.3901,1.3811,1.4373,1.3842,1.333,1.291,1.2086,1.1013,0.9809,0.8309,0.7502,0.7433,0.4686,0.214,-0.0,-0.3284,-0.5046,-0.5446,-0.7068,-0.7902,0.0,0.0,0.0,0.0,0.0,0.0,0.0,0.0,0.0,0.0,0.0,3.3801,3.4642,0.0,3.5955,3.6913,3.7529,3.797,3.8263,3.7334,3.6646,3.6762,3.5793,3.4562,3.316,3.2762,3.1374,2.8639,2.8382,2.7159,2.4239,2.3865,2.2883,2.1144,2.0132,1.9248,1.8451,1.7511,1.6808,1.6387,1.5967,1.5457,1.4815,1.4191,1.3334,1.2339,1.1575,1.1048,1.0657,1.0458,1.0428,1.0638,1.0722,1.0775,1.0742,1.0448,1.0341,1.0314,1.0174,1.0027,0.9873,0.9726,0.9422,0.9157,0.9065,0.8925,0.8804,0.8804,0.8804,0.8804,0.8804,0.8804,0.8804,0.8804,0.8804,0.8804,0.8804,0.8804,0.8804,0.8804,0.9614,0.9961,0.8956,1.0779,1.2089,1.1416,1.2197,1.2881,1.2881,1.2881,1.3096,1.3687,1.3432,1.3333,1.3707,1.3045,1.2494,1.2148,1.1275,1.0269,0.9047,0.8055,0.7525,0.7584,0.4386,0.1336,-0.1336,-0.4097,-0.5649,-0.6083,-0.7377,-0.8027,0.0,0.0,0.0,0.0,0.0,0.0,0.0,3.3177,3.3895,3.4768,3.4941,3.5345,3.6708,3.7035,3.7313,3.7958,3.8164,3.8063,3.7664,3.6557,3.5953,3.6478,3.5257,3.3848,3.2498,3.1915,3.0462,2.774,2.7544,2.6508,2.4307,2.3228,2.2197,2.1041,1.939,1.8239,1.7653,1.6591,1.5959,1.5674,1.499,1.4658,1.4648,1.3625,1.3032,1.2813,1.1463,1.0899,1.0865,1.0387,1.041,1.0629,1.045,1.045,1.043,1.018,1.008,1.0,0.9766,0.9646,0.9559,0.9263,0.9143,0.9057,0.8878,0.8804,0.8804,0.8804,0.8804,0.8804,0.8804,0.8804,0.8804,0.8804,0.8804,0.8804,0.8804,0.8804,0.8804,0.8804,0.9762,1.0218,0.9008,1.0364,1.1416,1.0864,1.1891,1.2725,1.2881,1.2881,1.2881,1.2881,1.2881,1.2881,1.2881,1.2246,1.1657,1.1242,1.0639,0.9702,0.834,0.7749,0.7484,0.752,0.4327,0.0927,-0.2722,-0.4495,-0.5756,-0.6408,-0.7483,-0.8091,3.2682,3.2779,3.2774,3.2724,3.3404,3.4429,0.0,3.6213,3.6516,3.7409,3.7574,3.7637,3.7814,3.8243,3.8261,3.7368,3.7627,3.7589,3.6611,3.5597,3.4708,3.4162,3.3773,3.3034,3.1742,3.155,3.0443,2.7769,2.7578,2.6338,2.3496,2.3932,2.305,2.0461,2.0283,1.9207,1.7132,1.6305,1.5384,1.4291,1.4194,1.4209,1.4145,1.4043,1.3584,1.2868,1.1958,1.1567,1.1567,1.0887,1.0646,1.0624,1.0007,0.978,0.9806,1.0033,0.9953,0.9726,0.9693,0.9512,0.923,0.9196,0.901,0.8851,0.8818,0.8804,0.8804,0.8804,0.8804,0.8804,0.8804,0.8804,0.8804,0.8804,0.8804,0.8804,0.8804,0.8804,0.8804,0.8804,0.9413,0.9666,0.891,0.9961,1.0864,1.0813,1.1416,1.2187,1.2822,1.2881,1.2881,1.2881,1.2881,1.2881,1.2881,1.2206,1.151,1.0879,1.0508,0.9322,0.7167,0.7267,0.6819,0.5736,0.37,0.0901,-0.2706,-0.4515,-0.5377,-0.5346,-0.7159,-0.842,3.2312,3.2694,3.3038,3.2967,3.4301,3.574,3.5989,3.6848,3.7834,3.8733,3.8864,3.8969,3.948,3.9692,3.9583,3.8956,3.8858,3.8412,3.7004,3.554,3.4093,3.2826,3.175,3.0897,3.0312,2.961,2.8638,2.7135,2.6647,2.5734,2.41,2.324,2.2314,2.1172,1.9603,1.8526,1.7969,1.7255,1.6477,1.5684,1.54,1.5092,1.4784,1.457,1.4029,1.3351,1.2642,1.2201,1.1925,1.1309,1.117,1.123,1.0515,1.0187,0.9988,0.9674,0.9532,0.9399,0.9232,0.9092,0.8985,0.8985,0.8905,0.8804,0.8804,0.8804,0.8804,0.8804,0.8804,0.8804,0.8804,0.8804,0.8804,0.8804,0.8804,0.8804,0.8804,0.8804,0.891,0.9316,0.9917,1.0167,0.951,1.0517,1.1266,1.0864,1.1366,1.208,1.2822,1.2881,1.2881,1.2881,1.2881,1.2881,1.2881,1.185,1.1074,1.0813,0.9559,0.8142,0.6774,0.653,0.5961,0.4882,0.3463,0.1,-0.244,-0.4201,-0.5339,-0.5732,-0.6546,-0.7705,3.1981,3.2801,3.3735,3.3434,3.5089,3.6642,3.6117,3.7147,3.8418,3.9102,3.9148,3.9301,3.9923,4.0162,4.0085,3.9531,3.9444,3.8826,3.7106,3.531,3.355,3.1918,3.019,2.907,2.8876,2.8179,2.7326,2.6317,2.5832,2.5093,2.4133,2.2712,2.1768,2.1438,1.9503,1.8464,1.8504,1.7996,1.7339,1.6633,1.6172,1.5753,1.5321,1.4901,1.4446,1.395,1.3527,1.3076,1.26,1.1963,1.172,1.1643,1.1005,1.0592,1.0379,0.985,0.9432,0.9037,0.8878,0.8804,0.8804,0.8804,0.8804,0.8804,0.8804,0.8804,0.8804,0.8804,0.8804,0.8804,0.8804,0.8956,0.9008,0.8857,0.8962,0.9008,0.8857,0.8962,0.9211,0.9718,1.0364,1.0669,1.0167,1.0864,1.1416,1.1116,1.1466,1.208,1.2822,1.2881,1.2881,1.2881,1.2881,1.2881,1.2881,1.1584,1.0813,1.0813,0.8862,0.7343,0.6642,0.6077,0.5433,0.4541,0.3657,0.1394,-0.2184,-0.3933,-0.5154,-0.5795,-0.6079,-0.6957,3.2441,3.3855,3.5611,3.4749,3.5776,3.6983,3.6957,3.7646,3.8319,3.8339,3.8339,3.8346,3.8362,3.9073,3.9227,3.797,3.8469,3.8316,3.623,3.4604,3.3051,3.1507,2.9508,2.8045,2.7584,2.7898,2.734,2.5567,2.5419,2.4621,2.2843,2.2712,2.2058,2.0774,2.0661,1.9764,1.8025,1.8011,1.741,1.6303,1.5768,1.5528,1.5484,1.4949,1.4709,1.4652,1.4652,1.4283,1.3695,1.3034,1.2365,1.1751,1.1049,1.0787,1.0779,1.0779,0.9932,0.8818,0.8811,0.8804,0.8804,0.8804,0.8804,0.8804,0.8804,0.8804,0.8804,0.8804,0.8804,0.8804,0.8804,0.9263,0.9614,0.8956,0.9309,0.9614,0.8962,0.9309,0.9762,0.9814,1.0364,1.0813,1.0762,1.0813,1.1065,1.1665,1.1765,1.208,1.2822,1.2881,1.2881,1.2881,1.2881,1.2881,1.2881,1.1584,1.0813,1.0813,0.8862,0.7343,0.6642,0.6123,0.5483,0.4501,0.4487,0.2235,-0.223,-0.3769,-0.4616,-0.4759,-0.5727,-0.6379,3.3594,3.4378,3.5071,3.5286,3.6168,3.7003,3.6992,3.767,3.8291,3.8307,3.8268,3.8236,3.8231,3.8429,3.8645,3.8801,3.8884,3.8508,3.7266,3.5966,3.4226,3.1786,3.0277,2.9071,2.8074,2.7131,2.6401,2.5955,2.5092,2.4288,2.3662,2.247,2.1574,2.113,2.0427,1.9738,1.9126,1.9126,1.876,1.8009,1.7464,1.7027,1.6676,1.6519,1.6244,1.5876,1.5466,1.5186,1.4949,1.4307,1.3935,1.3643,1.257,1.2132,1.2033,1.1107,1.0517,1.0064,0.9614,0.9159,0.8857,0.9309,0.9465,0.9562,1.0012,1.0115,1.0115,1.0115,1.0115,1.0115,1.0115,1.0312,1.0312,0.9614,0.9961,1.0261,0.9614,1.0012,1.0618,1.1065,1.1316,1.1466,1.1466,1.1882,1.2255,1.251,1.255,1.2608,1.2881,1.2881,1.2881,1.2881,1.2881,1.2715,1.2187,1.1325,1.061,1.0167,0.8125,0.6858,0.6588,0.5559,0.4349,0.3019,0.2997,0.1247,-0.2213,-0.3746,-0.4495,-0.4597,-0.4925,-0.5458,3.4277,3.4863,3.5215,3.5684,3.623,3.6643,3.6609,3.7068,3.7379,3.7027,3.6919,3.6917,3.6876,3.7102,3.7558,3.8368,3.8597,3.8364,3.7525,3.6152,3.442,3.2259,3.0807,2.9622,2.8631,2.7533,2.6788,2.6524,2.5324,2.4379,2.3977,2.2429,2.1424,2.1189,2.0528,2.007,1.9909,1.9909,1.9573,1.8893,1.8535,1.8106,1.7585,1.7585,1.7394,1.7063,1.6646,1.6262,1.5884,1.5487,1.505,1.4606,1.3784,1.349,1.3396,1.2512,1.1886,1.1399,1.0466,0.9865,0.9562,1.0012,1.0167,1.0269,1.0669,1.0813,1.0813,1.0813,1.0813,1.0813,1.0813,1.0965,1.0965,1.0312,1.0669,1.0965,1.0312,1.0661,1.1266,1.1715,1.2021,1.2187,1.2187,1.2608,1.2881,1.2881,1.2881,1.2881,1.2881,1.2881,1.2881,1.2881,1.2881,1.2608,1.1864,1.1166,1.0517,0.9865,0.7806,0.6588,0.6588,0.523,0.4021,0.3019,0.1952,0.0502,-0.1395,-0.3471,-0.4487,-0.4525,-0.4519,-0.4957,3.453,3.537,3.5995,3.5996,3.5976,3.5955,3.5832,3.5872,3.5636,3.4623,3.4468,3.4506,3.448,3.5152,3.5987,3.6752,3.7589,3.7842,3.7024,3.5314,3.3799,3.2827,3.1078,2.9739,2.9213,2.8963,2.8415,2.7302,2.611,2.4922,2.385,2.2687,2.1745,2.1071,2.1023,2.0781,2.0348,2.0348,1.9884,1.9006,1.9006,1.8727,1.8171,1.8171,1.8131,1.8106,1.8106,1.7477,1.6506,1.6506,1.5872,1.488,1.4789,1.4789,1.4789,1.4698,1.3924,1.2715,1.1449,1.0914,1.0813,1.0864,1.0914,1.0914,1.0965,1.0965,1.0965,1.0922,1.0914,1.0914,1.0914,1.1366,1.1665,1.1015,1.1366,1.1665,1.1015,1.1366,1.1864,1.1864,1.2403,1.2881,1.2881,1.2881,1.2881,1.2881,1.2881,1.2881,1.2881,1.2881,1.2881,1.2881,1.2881,1.2618,1.1814,1.1166,1.0517,0.9814,0.7753,0.6588,0.6588,0.5238,0.4484,0.4497,0.1619,0.0056,-0.0,-0.2965,-0.4435,-0.448,-0.4522,-0.4842,3.5374,3.5766,3.5892,3.5794,3.5783,3.56,3.4858,3.4732,3.4462,3.35,3.332,3.3474,3.3899,3.4357,3.511,3.6397,3.6968,3.7168,3.7009,3.6497,3.5399,3.3328,3.2455,3.1487,3.0065,2.9693,2.9401,2.907,2.6817,2.5345,2.508,2.3378,2.226,2.184,2.1529,2.1179,2.0829,2.0829,2.0682,2.0467,2.0467,2.0043,1.9207,1.9207,1.8797,1.8106,1.8106,1.7933,1.7679,1.7679,1.7504,1.7164,1.6293,1.5959,1.586,1.5005,1.4503,1.4168,1.3831,1.2415,1.0965,1.1994,1.2278,1.2376,1.288,1.3034,1.2938,1.2491,1.2363,1.2363,1.2363,1.251,1.2452,1.1724,1.2089,1.2403,1.1724,1.2089,1.2608,1.2608,1.2774,1.2881,1.2881,1.2881,1.2881,1.2881,1.2881,1.2881,1.2881,1.2881,1.2881,1.2881,1.2881,1.2412,1.1166,1.0914,1.0312,0.9113,0.7498,0.6588,0.6588,0.523,0.4477,0.4497,0.2625,0.1115,-0.0,-0.1898,-0.3352,-0.448,-0.4522,-0.457,3.5592,3.5816,3.5791,3.5716,3.5689,3.5445,3.4501,3.4353,3.3987,3.2653,3.2403,3.2628,3.3274,3.3561,3.4205,3.5795,3.62,3.6309,3.6372,3.6024,3.5117,3.3351,3.2689,3.1837,3.0455,3.0122,2.9819,2.9421,2.7322,2.6027,2.5924,2.4058,2.2874,2.2591,2.2346,2.2006,2.1472,2.1165,2.0991,2.0991,2.0991,2.0715,2.0215,2.0008,1.9606,1.9059,0.0,1.865,1.8458,1.8458,1.8302,1.8027,1.7395,1.6983,1.6744,1.6089,1.5652,1.5443,1.5443,1.4323,1.2934,1.348,1.3643,1.369,1.4086,1.4003,1.3732,1.3372,1.3286,1.3286,1.3286,1.3286,1.318,1.2803,1.2783,1.2774,1.2344,1.2618,1.2881,1.2881,1.2881,1.2881,1.2881,1.2881,1.2881,1.2881,1.2881,1.2881,1.2881,1.2881,1.2881,1.2881,1.2881,1.2461,1.1316,1.0965,1.0364,0.9316,0.7605,0.6588,0.6588,0.5226,0.4473,0.4497,0.2963,0.1451,-0.0,-0.1506,-0.3016,-0.4487,-0.4525,-0.4519,3.5512,3.5687,3.568,3.568,3.557,3.521,3.4288,3.4058,3.3551,3.1783,3.1476,3.1744,3.2453,3.262,3.3196,3.4894,3.5225,3.5345,3.5512,3.4925,3.4175,3.3381,3.2517,3.1643,3.0765,3.0409,2.9943,2.9252,2.7809,2.6815,2.6466,2.4681,2.3572,2.331,2.3264,2.2919,2.2245,2.1606,2.1305,2.1305,2.1305,2.1243,2.1134,2.0716,2.0452,2.028,1.9929,1.9479,1.9006,1.9006,1.8727,1.8302,1.8224,1.7907,1.7504,1.7422,1.7079,1.6634,1.6634,1.6268,1.5724,1.5118,1.488,1.4835,1.4835,1.4457,1.4003,1.3956,1.3909,1.3909,1.3909,1.3862,1.3815,1.3815,1.3334,1.2929,1.3017,1.3065,1.3113,1.3017,1.3017,1.2968,1.2929,1.2881,1.2881,1.2881,1.2881,1.2881,1.2881,1.2881,1.2881,1.2881,1.2881,1.2608,1.1864,1.1166,1.0517,0.9865,0.7806,0.6588,0.6588,0.5226,0.4473,0.4497,0.2963,0.1452,-0.0,-0.1284,-0.2794,-0.4497,-0.4473,-0.4519,3.5592,3.5624,3.5603,3.5565,3.4832,3.3922,3.3085,3.2232,3.1322,3.0248,3.0059,3.0273,3.0884,3.1185,3.1786,3.3193,3.3807,3.437,3.5172,3.5341,3.5098,3.4352,3.3492,3.2596,3.1656,3.0899,3.039,3.0249,2.8713,2.7312,2.6231,2.5152,2.4366,2.3871,2.3593,2.3307,2.3003,2.2888,2.2813,2.2813,2.2813,2.2487,2.1927,2.1824,2.124,2.0314,2.0212,0.0,1.9566,1.9566,1.953,1.9369,1.893,1.8688,1.8574,1.8145,1.7894,1.7814,1.7814,1.776,1.7504,1.6451,1.5796,1.5454,1.5454,1.5365,1.5186,1.4687,1.456,1.456,1.456,1.419,1.3815,1.3815,1.3334,1.3065,1.3552,1.4061,1.4247,1.3732,1.3637,1.3505,1.2968,1.2881,1.2881,1.2881,1.2881,1.2881,1.2881,1.2881,1.2881,1.2881,1.2881,1.2608,1.1864,1.1166,1.0517,0.9865,0.7806,0.6588,0.6588,0.5226,0.4473,0.4497,0.2963,0.1452,-0.0,-0.028,-0.1786,-0.4497,-0.4484,-0.4525,3.5584,3.5565,3.5518,3.5339,3.4534,3.3541,3.2609,3.167,3.075,2.9883,2.9696,2.9942,3.0678,3.0922,3.1336,3.2406,3.3148,3.3764,3.4192,3.4745,3.4874,3.4221,3.337,3.2564,3.1861,3.1006,3.0321,2.9912,2.8717,2.7693,2.7017,2.5608,2.4637,2.4282,2.3931,2.3715,2.3605,2.3333,2.3247,2.3352,2.3264,2.3003,2.266,2.2289,2.1778,2.1225,2.0814,2.0431,2.0,2.0,1.9874,1.969,1.9406,1.9169,1.8855,1.8612,1.8535,1.8535,1.8535,1.8535,1.8405,1.7866,1.7136,1.6489,1.6489,1.6058,1.5543,1.5231,1.5186,1.5186,1.5186,1.496,1.4721,1.4721,1.4283,1.3931,1.4201,1.4525,1.4514,1.3909,1.3815,1.3732,1.342,1.3104,1.3017,1.3324,1.3104,1.2881,1.2881,1.2881,1.2881,1.2881,1.2881,1.2774,1.2393,1.1425,1.0661,1.0364,0.796,0.6588,0.6588,0.5226,0.4525,0.4487,0.2961,0.1451,-0.0,-0.0,-0.1116,-0.3302,-0.4141,-0.4473,3.5238,3.5325,3.5369,3.5138,3.4234,3.3142,3.2298,3.1318,3.0377,2.9683,2.9551,2.9758,3.0453,3.0584,3.0828,3.1637,3.2485,3.3127,3.3277,3.4108,3.4528,3.4049,3.3078,3.2317,3.1975,3.1015,3.017,2.9605,2.8594,2.7808,2.7312,2.5795,2.4847,2.4629,2.4366,2.4209,2.4173,2.3751,2.3629,2.3779,2.3584,2.3446,2.3356,2.2745,2.2327,2.2068,2.1472,2.0943,2.0449,2.0449,2.0261,1.998,1.998,1.9666,1.9214,1.9214,1.9155,1.908,1.908,1.908,1.908,1.908,1.8341,1.7463,1.7463,1.6857,1.6089,1.6015,1.5971,1.594,1.5808,1.5688,1.5588,1.5454,1.5141,1.488,1.488,1.4971,1.4926,1.4318,1.4179,1.4133,1.4003,1.3515,1.3238,1.3732,1.3286,1.2881,1.2881,1.2881,1.2881,1.2881,1.2881,1.2881,1.2881,1.1584,1.0813,1.0813,0.8159,0.6588,0.6588,0.5226,0.4522,0.448,0.3297,0.1785,-0.0,-0.0,-0.0614,-0.1785,-0.3633,-0.4477,3.4314,3.4726,3.5122,3.5105,3.3526,3.196,3.1864,3.0454,2.9159,2.9085,2.9067,2.9085,2.9159,2.9177,2.9457,3.0249,3.1259,3.2198,3.2922,3.4003,3.4675,3.4621,3.3204,3.2275,3.2435,3.0982,3.0136,3.0367,2.8954,2.7371,2.5714,2.5511,2.5311,2.505,2.5012,2.4898,2.4727,2.4678,2.4663,2.4678,2.4474,2.4229,2.3911,2.366,2.3034,2.2096,2.204,2.1576,0.0,2.0926,2.0894,2.0862,2.0862,2.0583,2.0177,2.0177,1.9949,1.9639,1.9639,1.9639,1.9639,1.9639,1.8893,1.8027,1.8027,1.7933,1.7773,1.7299,1.7133,1.7021,1.6539,1.6008,1.5454,1.4926,1.5141,1.5543,1.5543,1.5964,1.6151,1.5543,1.5443,1.5276,1.4698,1.4097,1.3732,1.3779,1.3286,1.2881,1.2881,1.2881,1.2881,1.2881,1.2881,1.2881,1.2881,1.1584,1.0813,1.0813,0.8159,0.6588,0.6588,0.5226,0.4522,0.448,0.4376,0.2852,-0.0,-0.0,-0.0056,-0.0279,-0.3135,-0.4487,3.372,3.4279,3.4813,3.4615,3.3168,3.1756,3.1594,3.0231,2.8994,2.8994,2.8994,2.8994,2.8994,2.8797,2.8724,2.9057,2.9874,3.0759,3.162,3.2724,3.3673,3.4323,3.2959,3.2049,3.2295,3.0798,2.9718,2.9499,2.8579,2.7495,2.6257,2.5759,2.5391,2.5163,2.5168,2.5111,2.4972,2.4864,2.4853,2.493,2.4756,2.462,2.4468,2.4062,2.365,2.3226,2.2902,2.247,0.0,2.1736,2.1516,2.1272,2.107,2.0894,2.0715,2.0715,2.0632,2.0481,2.0481,2.0296,2.0054,2.0054,1.963,1.9006,1.8688,1.838,1.7987,1.7463,1.7544,1.7666,1.7105,1.6811,1.6574,1.6305,1.6201,1.6139,1.6139,1.6324,1.6337,1.572,1.5588,1.5543,1.5276,1.4457,1.3909,1.4283,1.3515,1.2881,1.2881,1.2881,1.2881,1.2881,1.2881,1.2881,1.2881,1.1584,1.0813,1.0813,0.8587,0.7074,0.6642,0.566,0.4897,0.4525,0.4487,0.3471,0.1338,0.0448,-0.0448,-0.1342,-0.2571,-0.3635,3.2997,3.3617,3.4132,3.3892,3.2688,3.1449,3.1121,2.9826,2.87,2.8797,2.8749,2.8676,2.8676,2.8438,2.8264,2.8264,2.8937,2.9655,3.0294,3.1574,3.2727,3.3499,3.2558,3.1922,3.2067,3.064,2.9458,2.8855,2.8204,2.7522,2.6747,2.5915,2.5406,2.5288,2.5296,2.5274,2.5214,2.5057,2.5015,2.5126,2.4949,2.4869,2.4836,2.4433,2.4155,2.3988,2.3584,2.3206,0.0,2.2522,2.2255,2.1961,2.1635,2.1411,2.1305,2.1197,2.1086,2.0991,2.0991,2.0682,2.0314,2.0314,2.0035,1.9639,1.9244,1.8855,1.8458,1.7907,1.7947,1.8027,1.7626,1.7435,1.7312,1.7312,1.6879,1.6522,1.6522,1.6522,1.638,1.5964,1.5864,1.5864,1.5864,1.4869,1.419,1.4652,1.3836,1.3104,1.2929,1.3065,1.3113,1.2929,1.2881,1.2881,1.2881,1.1584,1.0813,1.0813,0.8862,0.7343,0.6642,0.5873,0.5164,0.4519,0.448,0.3752,0.2174,0.0727,-0.056,-0.1568,-0.2462,-0.3469,3.2015,3.2608,3.3007,3.3007,3.1942,3.0794,3.032,2.9016,2.801,2.8342,2.8129,2.7897,2.7897,2.7897,2.7897,2.7897,2.8592,2.9107,2.9107,3.083,3.2115,3.2133,3.204,3.1947,3.1823,3.0527,2.9458,2.8855,2.7998,2.7268,2.6728,2.5871,2.5441,2.5488,2.5508,2.5496,2.5508,2.5429,2.538,2.538,2.5138,2.501,2.4998,2.485,2.45,2.4007,2.3988,2.3689,0.0,2.3189,2.3189,2.3141,2.2822,2.2441,2.204,2.1715,2.1337,2.0991,2.0991,2.0682,2.0314,2.0314,2.0035,1.969,1.969,1.969,1.9566,1.9043,1.8496,1.8106,1.8106,1.7706,1.7312,1.7312,1.6879,1.6522,1.6522,1.6522,1.6522,1.6479,1.6479,1.6479,1.6479,1.5478,1.4698,1.4698,1.419,1.3552,1.2968,1.342,1.3552,1.2968,1.2881,1.2881,1.2881,1.1584,1.0813,1.0813,0.8862,0.7343,0.6642,0.5873,0.5164,0.4519,0.4473,0.3744,0.2174,0.0726,-0.0,-0.0112,-0.3091,-0.4501,3.0769,3.1367,3.1857,3.1613,3.0775,2.9918,2.9529,2.8645,2.7926,2.802,2.839,2.8488,2.7986,2.8087,2.8097,2.7557,2.7709,2.8041,2.8613,3.019,3.149,3.2014,3.1792,3.1144,2.9996,2.9651,2.942,2.9232,2.8707,2.8044,2.7287,2.6587,2.5995,2.5511,2.5503,2.5496,2.5499,2.5481,2.5449,2.5409,2.5311,2.5252,2.5203,2.5018,2.4834,2.4672,2.4435,2.4247,2.4061,2.3699,2.3544,2.35,2.2923,2.2626,2.2485,2.2186,2.202,2.1886,2.1886,2.1568,2.1197,2.1197,2.091,2.0532,2.0193,1.9909,1.9639,1.9479,1.9043,1.8727,1.9095,1.8535,1.7947,1.8302,1.7435,1.6595,1.6951,1.6752,1.6522,1.6522,1.6522,1.6522,1.6522,1.5832,1.532,1.532,1.4778,1.4329,1.4154,1.392,1.3732,1.3552,1.3152,1.2881,1.2881,1.1584,1.0813,1.0813,0.9347,0.7883,0.6642,0.6367,0.5714,0.4515,0.4473,0.4255,0.3755,0.1228,-0.0,-0.0056,-0.2012,-0.3469,2.9715,3.015,3.0459,3.0258,2.9694,2.9087,2.8716,2.8012,2.747,2.7619,2.7914,2.7997,2.7526,2.7621,2.7617,2.7169,2.7083,2.7255,2.7751,2.9312,3.0683,3.1479,3.1345,3.06,2.9137,2.915,2.9289,2.9392,2.8855,2.8206,2.7428,2.6784,2.6113,2.5337,2.5418,2.5471,2.5508,2.5502,2.5471,2.5428,2.5415,2.539,2.5322,2.5182,2.5077,2.4998,2.4741,2.4559,0.0,2.4058,2.3896,2.3837,2.33,2.2996,2.2848,2.2554,2.2388,2.231,2.231,2.2003,2.1582,2.1582,2.1197,2.0682,2.0382,2.0035,1.969,1.969,1.9442,1.9281,1.9603,1.9043,1.8496,1.8817,1.7987,1.7146,1.7271,1.7034,1.6752,1.6552,1.6522,1.6522,1.6522,1.6008,1.5588,1.5588,1.5276,1.4971,1.4744,1.4376,1.405,1.3815,1.3238,1.2881,1.2881,1.1841,1.1065,1.0813,0.9762,0.8514,0.7074,0.675,0.6041,0.4893,0.4632,0.448,0.449,0.1451,-0.0,-0.0,-0.0949,-0.2514,0.0,2.8989,2.9018,2.8989,2.8689,2.8296,2.7912,2.7241,0.0,2.7178,2.7006,2.6759,2.6708,2.6742,2.6759,2.6708,2.6691,2.6691,2.6691,2.8372,2.9865,3.0508,3.0698,3.0281,2.906,2.8967,2.9067,2.9351,2.8646,2.7923,2.7288,2.6622,2.5914,2.5113,2.5269,2.5418,2.5486,2.5488,2.5507,2.5508,2.5447,2.5399,2.5409,2.5341,2.5203,0.0,2.4864,2.47,0.0,2.4303,2.4209,2.417,2.3816,2.35,2.3165,2.2822,2.2537,2.2338,2.231,2.2032,2.1672,2.1658,2.107,2.0348,2.0348,2.0035,1.969,1.969,1.969,1.969,1.969,1.9281,1.8893,1.8968,1.8496,1.7907,1.7463,1.7312,1.7118,1.6595,1.6522,1.6522,1.6522,1.6051,1.5676,1.5676,1.5676,1.5454,1.488,1.4744,1.4468,1.3909,1.3286,1.2881,1.2881,1.2236,1.1516,1.0864,1.0167,0.919,0.7777,0.6966,0.6253,0.5542,0.4842,0.4525,0.448,0.1451,-0.0,-0.0,-0.0,-0.151,2.7209,0.0,2.8105,2.7792,2.7656,2.7497,0.0,2.6858,2.6725,2.6808,2.7216,2.7385,2.6793,2.7165,2.7368,2.6793,2.6691,2.6691,2.6691,2.8372,2.9565,2.9493,2.9981,2.9875,2.8658,2.8528,2.8707,2.9067,2.9082,2.8742,2.7942,2.7309,2.6664,2.6022,2.5416,2.5209,2.5428,2.5421,2.5445,2.5508,2.5478,2.5445,2.5409,2.539,2.5312,2.5214,2.5041,0.0,2.4716,2.4512,2.4358,2.417,2.3816,2.35,2.3165,2.2822,2.266,2.259,2.236,2.2354,2.2405,2.2186,2.1554,2.0829,2.0829,2.0311,1.969,1.969,1.969,1.969,1.969,1.9281,1.9006,1.9406,1.8496,1.7585,1.7867,1.7271,1.6637,1.6522,1.6522,1.6522,1.6522,1.638,1.6281,1.6281,1.6281,1.6238,1.6107,1.5242,1.4663,1.4514,1.3525,1.2881,1.2881,1.2236,1.1516,1.0864,1.0167,0.919,0.7777,0.6966,0.6253,0.5542,0.4849,0.448,0.4494,0.1452,-0.0,-0.0,-0.0,-0.0391,2.6691,2.7019,2.7303,2.7083,2.7019,2.6971,2.6758,2.6539,2.6367,2.6367,2.6701,2.6764,2.6118,2.6719,2.701,2.6154,2.6385,2.6826,2.7165,2.7945,2.8476,2.8496,2.9019,2.8978,2.7996,2.8192,2.8471,2.8707,2.903,2.8685,2.7483,2.7285,2.6707,2.5649,2.529,2.5222,2.5341,2.539,2.5418,2.5444,2.5499,2.5475,2.5443,2.5412,2.539,2.5341,2.5107,0.0,2.4864,2.4623,2.4445,2.4303,2.4037,2.3714,2.3414,2.323,2.3069,2.2898,2.259,2.25,2.25,2.2349,2.1721,2.0991,2.0991,2.0413,1.969,1.969,1.969,1.969,1.969,1.9479,1.9332,1.9639,1.9043,1.8341,1.8145,1.7827,1.7394,1.6637,1.671,1.6795,1.6552,1.6522,1.6522,1.6522,1.6522,1.6522,1.6522,1.5433,1.4698,1.4698,1.361,1.2881,1.2881,1.255,1.1882,1.0864,1.0466,0.9651,0.8262,0.7182,0.6095,0.5054,0.4684,0.4477,0.4487,0.2176,0.067,-0.0,-0.0,-0.0,2.6691,2.6776,2.6843,2.6725,2.6657,2.659,2.659,2.621,2.5888,2.5888,2.5888,2.5726,2.5297,2.5908,2.6193,2.5335,2.598,2.6894,2.7688,2.7451,2.7328,2.7585,2.8032,2.8056,2.7373,2.7862,2.8272,2.8394,2.8597,2.816,2.6851,2.6879,2.6336,2.5016,2.5271,2.5358,2.5303,2.537,2.5409,2.5409,2.5477,2.5504,2.5508,2.5441,2.5408,2.5399,0.0,0.0,2.4986,2.4682,2.4528,2.4478,2.4266,2.3996,2.3692,2.3692,2.3522,2.3212,2.288,2.2581,2.231,2.231,2.1721,2.0991,2.0991,2.0413,1.969,1.969,1.969,1.969,1.969,1.969,1.969,1.969,1.9639,1.9332,1.8419,1.8496,1.838,1.6993,1.7034,1.7146,1.671,1.6552,1.6522,1.6522,1.6522,1.6522,1.6522,1.5433,1.4698,1.4698,1.361,1.2881,1.2881,1.2881,1.2363,1.1015,1.0864,1.0159,0.8699,0.7343,0.5987,0.468,0.457,0.4522,0.448,0.3183,0.1672,-0.0,-0.0,-0.0,2.6691,2.7165,2.7503,2.686,2.6401,2.612,2.612,2.5689,2.5335,2.5335,2.5335,2.5297,2.5221,2.5335,2.5373,2.5221,2.5726,2.6476,2.7636,2.7754,2.7483,2.6945,2.7453,2.7742,2.7341,2.7409,2.7718,2.835,2.7838,2.7531,2.7622,2.6383,2.5727,2.5816,2.5868,2.5704,2.5303,2.5303,2.537,2.5486,2.5502,2.5526,2.5586,2.5524,2.5459,2.538,0.0,2.5163,2.4998,2.4828,2.4654,2.4478,2.4266,2.3996,2.3692,2.3692,2.3671,2.3566,2.3236,2.2773,2.231,2.231,2.1721,2.0991,2.0991,2.0413,1.969,1.969,1.969,1.969,1.969,1.969,1.969,1.969,1.9369,1.8968,1.8817,1.8496,1.8145,1.7907,1.7544,1.7271,1.7188,1.6795,1.6522,1.6522,1.6522,1.6522,1.6522,1.5433,1.4698,1.4698,1.361,1.2881,1.2881,1.2881,1.2559,1.1715,1.1116,0.9946,0.7937,0.7074,0.6204,0.5378,0.4787,0.4522,0.448,0.4252,0.2734,-0.0,-0.0,-0.0,2.5892,2.6155,2.6319,2.5974,2.6241,2.6418,2.5733,2.5128,2.4776,2.4776,2.4776,2.4672,2.4389,2.5107,2.5847,2.623,2.5935,2.6066,2.7184,2.7047,2.6786,2.6691,2.6996,2.7131,2.7006,2.7348,2.7765,2.8102,2.7748,2.741,2.7163,2.6128,2.5652,2.5826,2.5938,2.5925,2.5788,2.5788,2.5642,2.539,2.5464,2.5521,2.5542,2.5545,2.5542,2.5505,0.0,2.533,2.519,2.5027,2.4886,2.4733,2.4459,2.4266,2.4117,2.4018,2.3735,2.3414,2.3236,2.2798,2.231,2.231,2.184,2.1337,2.1337,2.0715,2.0019,2.0019,1.9874,1.969,1.969,1.969,1.969,1.969,1.953,1.9244,1.8968,1.893,1.8688,1.7827,1.7706,1.7544,1.6951,1.668,1.6522,1.6522,1.6522,1.6522,1.6522,1.5433,1.4698,1.4698,1.361,1.2881,1.2881,1.2881,1.2412,1.1316,1.061,0.9488,0.7777,0.7396,0.6632,0.5542,0.5218,0.4846,0.4525,0.4477,0.3799,0.2399,0.0781,-0.0,2.5221,2.5349,2.539,2.5098,2.5883,2.6442,2.5472,2.4967,2.4675,2.4675,2.4675,2.4563,2.4146,2.5025,2.6083,2.6904,2.6108,2.5827,2.7016,2.6632,2.6338,2.6674,2.6691,2.6691,2.6691,2.7272,2.7695,2.7897,2.7691,2.7264,2.6628,2.5984,2.556,2.5427,2.5747,2.5933,2.5927,2.6117,2.5918,2.5332,2.5432,2.5517,2.5531,2.5581,2.5593,2.5604,2.5537,2.5464,2.5379,2.5188,2.5058,2.4974,2.4682,2.4545,2.4478,2.4266,2.3816,2.3323,2.323,2.2857,2.2388,2.2321,2.1974,2.1582,2.1582,2.107,2.0449,2.0348,2.0089,1.9818,1.9711,1.969,1.969,1.969,1.969,1.9603,1.9169,1.9406,1.9281,1.7947,1.7907,1.7787,1.6837,1.6595,1.6522,1.6522,1.6522,1.6522,1.6522,1.5555,1.488,1.4709,1.3742,1.3065,1.2929,1.2881,1.2363,1.1116,1.0415,0.9496,0.8243,0.7877,0.7069,0.576,0.5597,0.5164,0.4519,0.4525,0.4477,0.4421,0.212,0.0896,2.5221,2.5702,2.5935,2.4748,2.4999,2.5512,2.5423,2.5438,2.5511,2.5511,2.5511,2.5497,2.5465,2.5047,2.5122,2.6326,2.5877,2.6,2.7758,2.7334,2.6813,2.6691,2.6691,2.6691,2.6691,2.6758,2.7083,2.784,2.7217,2.6724,2.6606,2.5844,2.5152,2.4607,2.5329,2.5521,2.5094,2.5895,2.5998,2.539,2.5467,2.5525,2.5585,2.5605,2.5605,2.5602,2.5524,2.5465,2.5388,2.5176,2.5058,2.4986,2.4842,2.467,2.4478,2.4266,2.3976,2.361,2.3323,2.2972,2.2634,2.2388,2.1974,2.1582,2.1582,2.1306,2.0862,2.0416,2.028,2.0193,1.9818,1.969,1.969,1.969,1.969,1.969,1.9639,1.969,1.953,1.8893,1.8419,1.7907,1.7353,1.6837,1.6522,1.6522,1.6522,1.6522,1.6522,1.5964,1.532,1.4744,1.4097,1.3505,1.2978,1.2881,1.2559,1.1765,1.1116,1.0415,0.9658,0.8402,0.7343,0.6534,0.5873,0.5164,0.4519,0.4519,0.4525,0.448,0.4252,0.3581,2.4199,2.4425,2.4522,2.4024,2.4712,2.5425,2.5016,2.5258,2.5458,2.4985,2.5301,2.5615,2.5615,2.5405,2.5362,2.5864,2.5645,2.5621,2.6335,2.6361,2.631,2.626,2.6505,2.6691,2.6691,2.6939,2.7286,2.7869,2.7344,2.7121,2.7325,2.6576,2.6029,2.5816,2.6094,2.5987,2.5452,2.5895,2.5785,2.5149,2.5349,2.5476,2.5531,2.5583,2.5625,2.5664,2.5637,2.5585,2.5511,2.539,2.5321,2.5209,2.4915,2.467,2.4478,2.4266,2.3876,2.3369,2.3236,2.2883,2.2409,2.2321,2.218,2.2032,2.2032,2.1735,2.1275,2.0862,2.0516,2.0227,1.9803,1.969,1.969,1.969,1.969,1.969,1.969,1.969,1.953,1.9006,1.8458,1.7947,1.7394,1.6879,1.6522,1.6522,1.6522,1.6522,1.6522,1.5952,1.5499,1.5276,1.4365,1.3552,1.2978,1.2881,1.2774,1.2501,1.1425,1.0517,0.9814,0.889,0.8049,0.7289,0.6583,0.5819,0.5109,0.468,0.4519,0.4525,0.4632,0.442,2.3595,2.3595,2.3655,2.3864,2.4777,2.5555,2.53,2.5749,2.6069,2.5584,2.5712,2.5912,2.5911,2.5708,2.5586,2.5597,2.5531,2.5446,2.5404,2.564,2.5837,2.5994,2.6297,2.6556,2.6691,2.6971,2.7272,2.7678,2.7531,2.7475,2.7593,2.7211,2.6869,2.6612,2.6612,2.6313,2.5707,2.5893,2.5655,2.501,2.5252,2.5415,2.5505,2.557,2.5644,2.5703,2.5703,2.5662,2.5584,2.5526,2.5455,2.5321,2.4942,2.4716,2.4559,2.4303,2.3917,2.35,2.3392,2.308,2.2703,2.2508,2.2426,2.2398,2.2338,2.2077,2.1735,2.1323,2.0975,2.0567,2.0035,1.9782,1.969,1.969,1.969,1.969,1.969,1.969,1.953,1.9006,1.8458,1.7947,1.7394,1.6879,1.6522,1.6522,1.6522,1.6522,1.6522,1.6139,1.5732,1.5365,1.4411,1.3552,1.2978,1.2881,1.2881,1.2881,1.1792,1.0813,1.0167,0.9458,0.8685,0.7723,0.7182,0.647,0.5487,0.5058,0.4705,0.4594,0.4707,0.4814,2.3595,2.3595,2.3774,2.4403,2.5136,2.5794,2.6437,2.7096,2.7575,2.7575,2.6982,2.6533,2.6609,2.6,2.5517,2.5595,2.56,2.5545,2.5407,2.54,2.5538,2.5934,2.6013,2.6191,2.6657,2.6691,2.6873,2.7272,2.7648,2.7682,2.7241,2.7593,2.7438,2.6649,2.6612,2.6331,2.5689,2.5893,2.5655,2.501,2.5203,2.536,2.5505,2.5567,2.5644,2.5703,2.5703,2.565,2.561,2.5527,2.5415,2.5264,2.4923,2.4804,2.4746,2.4339,2.419,2.4151,2.3816,2.3692,2.3588,2.2923,2.2695,2.266,2.2388,2.231,2.2209,2.1718,2.1582,2.1399,2.0534,2.0,1.9711,1.969,1.969,1.969,1.969,1.969,1.953,1.9006,1.8458,1.7947,1.7394,1.6879,1.6522,1.6522,1.6522,1.6522,1.6522,1.6522,1.6064,1.4835,1.419,1.3552,1.2968,1.2881,1.2881,1.2881,1.2187,1.1516,1.0864,1.0167,0.9138,0.7723,0.7723,0.6956,0.5542,0.5487,0.5258,0.4691,0.4694,0.485,2.3595,2.3954,2.4328,2.4537,2.548,2.6348,2.6542,2.6731,2.6826,2.6826,2.6669,2.6533,2.6609,2.6426,2.5957,2.506,2.4881,2.4717,2.4202,2.4464,2.4867,2.5368,2.5779,2.6191,2.6657,2.6691,2.6873,2.7272,2.7409,2.7642,2.8008,2.8153,2.7978,2.7457,2.7438,2.682,2.5501,2.5689,2.5496,2.4869,2.5018,2.5201,2.5438,2.5507,2.5566,2.5625,2.5684,2.5689,2.5659,2.5541,2.5416,2.5264,2.4923,2.4804,2.4746,2.4339,2.4054,2.3837,2.3735,2.3544,2.3277,2.2848,2.2695,2.266,2.2388,2.231,2.2209,2.1718,2.1582,2.1491,2.091,2.0449,2.0054,1.9782,1.969,1.969,1.969,1.969,1.9639,1.9479,1.8727,1.8066,1.7907,1.7118,1.6522,1.6522,1.6522,1.6522,1.6522,1.6522,1.6194,1.541,1.4778,1.4201,1.36,1.3152,1.2881,1.2881,1.2715,1.2246,1.1516,1.0415,0.9607,0.9183,0.8196,0.7503,0.7069,0.6123,0.5604,0.5493,0.514,0.5047,2.4328,2.4702,2.5076,2.5345,2.6004,2.6598,2.6553,2.6755,2.693,2.693,2.6721,2.6605,2.6952,2.6778,2.6248,2.5179,2.5016,2.4687,2.3729,2.3879,2.4266,2.4816,2.5335,2.5888,2.6367,2.659,2.6808,2.7051,2.721,2.7542,2.8183,2.8342,2.8372,2.8278,2.8282,2.7493,2.5878,2.6079,2.5716,2.4804,2.4943,2.5118,2.5351,2.5461,2.555,2.5605,2.5664,2.567,2.562,2.5528,2.5428,2.5264,2.5,2.4842,2.476,2.4445,2.4153,2.3896,2.3896,2.3774,2.3522,2.3045,2.2898,2.2822,2.2415,2.231,2.2237,2.1974,2.1899,2.1764,2.1354,2.1039,2.0682,2.007,1.9818,1.969,1.969,1.969,1.969,1.969,1.9006,1.8419,1.8419,1.7544,1.6837,1.6837,1.6637,1.6522,1.6522,1.6522,1.6281,1.5676,1.5276,1.4732,1.3862,1.3467,1.3152,1.2929,1.2881,1.2715,1.2236,1.0922,0.9969,0.9413,0.8573,0.7996,0.7723,0.6939,0.6473,0.6406,0.6103,0.5911,2.5342,2.5597,2.5839,2.6437,2.6632,2.6679,2.6591,2.7137,2.7575,2.7509,2.7034,2.6826,2.7458,2.7034,2.6352,2.5729,2.5615,2.5136,2.3789,2.3595,2.3794,2.4348,2.4855,2.5411,2.5961,2.6436,2.6691,2.6691,2.7019,2.7409,2.7823,2.8183,2.854,2.8929,2.8994,2.8223,2.6631,2.6782,2.6168,2.4804,2.4911,2.5088,2.5303,2.5447,2.5544,2.5605,2.5664,2.5633,2.5517,2.5498,2.5428,2.5293,2.5088,2.493,2.4775,2.4559,2.4375,2.419,2.419,2.419,2.4094,2.3437,2.3212,2.3087,2.2508,2.2338,2.231,2.231,2.231,2.2209,2.1764,2.1628,2.1383,2.0567,2.007,1.9747,1.9726,1.969,1.969,1.969,1.9281,1.8893,1.8893,1.8066,1.7353,1.7312,1.6837,1.6522,1.6522,1.6522,1.6281,1.5732,1.5632,1.5174,1.4039,1.3862,1.3552,1.3017,1.2929,1.2881,1.2774,1.1534,1.0218,0.9008,0.8857,0.8493,0.7812,0.7782,0.7644,0.7439,0.74,0.7197,2.4844,2.556,2.6422,2.6557,2.6976,2.7395,2.7378,2.7509,2.7458,2.6878,2.7086,2.7408,2.7575,2.7458,2.6991,2.5777,2.5615,2.5136,2.3789,2.3595,2.3794,2.4348,2.4855,2.5411,2.5961,2.6436,2.6691,2.6691,2.6791,2.6987,2.7409,2.7794,2.8156,2.8515,2.8839,2.8223,2.6631,2.6636,2.6024,0.0,2.4828,2.5,2.5303,2.5447,2.5564,2.5684,2.5684,2.5644,2.5577,2.5522,2.5447,2.5351,2.5107,2.493,2.4775,2.4559,2.4375,2.419,2.419,2.419,2.4113,2.3714,2.3414,2.3117,2.2738,2.2463,2.231,2.231,2.231,2.2282,2.218,2.1869,2.146,2.0959,2.0483,2.0089,1.9782,1.969,1.969,1.969,1.9281,1.8893,1.8893,1.838,1.7787,1.7353,1.6837,1.6522,1.6522,1.6522,1.6466,1.6337,1.5864,1.5499,1.5219,1.4318,1.3721,1.3589,1.3152,1.2657,1.208,1.1216,1.0661,1.0364,0.9361,0.8811,0.8864,0.845,0.8352,0.847,0.8049,0.7802,2.5365,2.6017,2.6651,2.7001,2.737,2.7625,2.7625,2.7625,2.7509,2.71,2.7357,2.7625,2.7625,2.7625,2.7141,2.5824,2.5615,2.5136,2.3789,2.3837,2.4074,2.4348,2.5105,2.5689,2.5961,2.6436,2.6691,2.6691,2.6691,2.6873,2.7272,2.75,2.7833,2.8376,2.859,2.8213,2.7181,2.6796,2.6132,2.5239,2.4934,2.4981,2.5351,2.5448,2.5571,2.5703,2.5703,2.5664,2.5585,2.5526,2.5451,2.538,2.5212,2.4993,2.479,2.4685,2.4444,2.419,2.419,2.419,2.4113,2.361,2.3346,2.3117,2.2643,2.2398,2.231,2.231,2.231,2.231,2.231,2.2106,2.1764,2.1166,2.0649,2.0193,1.9782,1.969,1.969,1.969,1.9479,1.9281,1.9281,1.8612,1.7827,1.7034,1.668,1.6522,1.6522,1.6522,1.6522,1.6522,1.6238,1.5908,1.5632,1.4778,1.4097,1.3815,1.3238,1.2715,1.2344,1.1674,1.0965,1.0312,0.982,0.9404,0.9183,0.9061,0.9157,0.9425,0.9134,0.8885,2.5717,2.6212,2.6669,2.7255,2.7524,2.7575,2.7458,2.7524,2.7625,2.7625,2.7625,2.7625,2.7625,2.7625,2.7186,2.5974,2.5689,2.5181,2.3939,2.4151,2.4389,2.4389,2.5335,2.6013,2.6013,2.6436,2.6691,2.6691,2.6691,2.6841,2.7178,2.7272,2.7572,2.8192,2.8324,2.8166,2.7702,2.7123,2.6442,2.5688,2.5107,2.5038,2.539,2.5466,2.5574,2.5684,2.5684,2.5664,2.5605,2.5535,2.5473,2.5409,2.5322,2.5103,2.4804,2.4804,2.4561,2.419,2.419,2.419,2.4094,2.35,2.3253,2.3111,2.2544,2.2349,2.231,2.231,2.231,2.231,2.231,2.231,2.2111,2.1437,2.0843,2.0296,1.9818,1.969,1.969,1.969,1.969,1.969,1.969,1.8893,1.7907,1.6909,1.671,1.6595,1.6522,1.6522,1.6522,1.6522,1.6522,1.6281,1.582,1.5197,1.4606,1.4003,1.3382,1.3017,1.2881,1.236,1.1521,1.0311,1.028,1.0046,0.9547,0.969,0.9907,1.0194,1.0194,0.9949,2.4052,2.5146,2.651,2.6616,2.7152,2.7408,2.6774,2.7137,2.7625,2.7625,2.7625,2.7625,2.7625,2.7625,2.732,2.6572,2.5974,2.5345,2.4552,2.4414,2.4389,2.4389,2.5335,2.6013,2.6013,2.6436,2.6691,2.6691,2.6691,2.6725,2.6791,2.7115,2.7348,2.7439,2.8084,2.8023,2.7278,2.7506,2.6995,2.5688,2.522,2.5126,2.5409,2.5466,2.5543,2.5625,2.5664,2.5684,2.5683,2.5554,2.5492,2.5466,2.5341,2.5103,2.4804,2.4804,2.4561,2.419,2.419,2.419,2.4151,2.3774,2.3455,2.3117,2.2764,2.2473,2.231,2.231,2.231,2.231,2.231,2.231,2.2332,2.2465,2.1681,2.0665,1.9889,1.969,1.969,1.969,1.969,1.969,1.969,1.9207,1.8574,1.7987,1.7504,1.7034,1.6552,1.6522,1.6522,1.6522,1.6522,1.6466,1.638,1.582,1.5231,1.4606,1.4014,1.3467,1.2929,1.3123,1.2898,1.2157,1.0931,1.0535,1.1027,1.0387,1.0207,1.0501,1.0501,1.0458,2.3851,2.5238,2.6616,2.6982,2.7357,2.7524,2.7203,2.7357,2.7625,2.7625,2.7625,2.7625,2.7625,2.7625,2.74,2.6692,2.6033,2.5468,2.5089,2.4922,2.495,2.5259,2.5944,2.6401,2.6401,2.659,2.6691,2.6691,2.6691,2.6691,2.6691,2.6873,2.7051,2.7286,2.7601,2.7796,2.7853,2.761,2.7101,2.6377,2.5816,2.5665,2.5845,2.5618,2.5544,2.5605,2.5664,2.5703,2.5683,2.5554,2.5492,2.5486,2.5341,2.5103,2.4804,2.4804,2.4561,2.419,2.419,2.419,2.4133,2.3816,2.3459,2.3141,2.2797,2.25,2.231,2.231,2.231,2.231,2.231,2.231,2.2365,2.2642,2.2118,2.1494,2.1255,2.0403,1.969,1.969,1.969,1.9603,1.9281,1.9043,1.8727,1.8185,1.7626,1.7188,1.6993,1.668,1.6522,1.6522,1.6522,1.6522,1.6522,1.5644,1.4971,1.4709,1.3836,1.3262,1.3223,1.3408,1.3574,1.3768,1.2709,1.1849,1.1271,1.1109,1.0912,1.0624,1.0624,1.0624,2.3755,2.4961,2.5866,2.6615,2.707,2.7306,2.7306,2.7473,2.7625,2.7625,2.7625,2.7625,2.7625,2.7625,2.746,2.6916,2.6281,2.5773,2.5654,2.552,2.554,2.5961,2.6401,2.6691,2.6691,2.6691,2.6691,2.6691,2.6691,2.6691,2.6691,2.6691,2.6841,2.7147,2.7365,2.7736,2.8264,2.7651,2.7204,2.6879,2.6287,2.5958,2.5888,2.5606,2.5499,2.558,2.5663,2.5703,2.5683,2.5579,2.5511,2.5486,2.537,2.5122,2.4804,2.4804,2.4561,2.419,2.419,2.419,2.4133,2.3816,2.3459,2.3141,2.2797,2.25,2.231,2.231,2.231,2.2344,2.2547,2.2581,2.2664,2.3065,2.2704,2.229,2.2229,2.1038,1.9989,2.0168,2.0064,1.9879,1.9637,1.9459,1.919,1.8618,1.8083,1.7626,1.7353,1.6951,1.6637,1.6522,1.6522,1.6522,1.6522,1.5832,1.5211,1.4888,1.4169,1.3731,1.3652,1.3769,1.4131,1.4775,1.4308,1.3415,1.2047,1.2073,1.1717,1.0926,1.0926,1.0807,2.3259,2.3581,2.3754,2.45,2.5601,2.6563,2.6563,2.71,2.7625,2.7625,2.7625,2.7625,2.7625,2.7625,2.761,2.7565,2.69,2.6377,2.6331,2.6142,2.5961,2.6013,2.6401,2.6691,2.6691,2.6691,2.6691,2.6691,2.6691,2.6691,2.6691,2.6691,2.6725,2.6725,2.747,2.7897,2.7926,2.781,2.7472,2.6879,2.6287,2.5669,2.5068,2.531,2.5445,2.5507,2.5637,2.5703,2.5684,2.5625,2.5559,2.5486,2.5428,2.516,2.4804,2.4804,2.4561,2.419,2.419,2.419,2.4133,2.3816,2.3459,2.3141,2.2797,2.25,2.231,2.231,2.231,2.2462,2.3156,2.3342,2.3528,2.4239,2.3704,2.2785,2.194,2.1141,2.0842,2.147,2.1081,2.0857,2.1446,2.1028,2.0419,1.9868,1.9257,1.8458,1.7422,1.7271,1.7076,1.6552,1.6522,1.6522,1.6522,1.6967,1.6696,1.5333,1.5742,1.545,1.4092,1.4502,1.4736,1.4785,1.5118,1.4895,1.4058,1.3295,1.2512,1.1772,1.1772,1.1351,2.2876,2.3576,2.4189,2.4546,2.5604,2.6583,2.6583,2.711,2.7625,2.7625,2.7625,2.7625,2.7625,2.7625,2.771,2.8091,2.7581,2.7355,2.8094,2.7758,2.733,2.7171,2.7752,2.7774,2.6793,2.7131,2.7215,2.6725,2.6691,2.6691,2.6691,2.6691,2.6691,2.6691,2.7241,2.7718,2.821,2.8433,2.8198,2.7477,2.7005,2.6374,2.5646,2.5524,2.5475,2.5519,2.5642,2.5703,2.5684,2.5625,2.5559,2.5492,2.5436,2.5217,2.493,2.4828,2.4623,2.4375,2.4247,2.419,2.417,2.4074,2.3649,2.3165,2.3069,2.2669,2.231,2.231,2.2649,2.3071,2.3325,2.3748,2.4149,2.4211,2.4366,2.4182,2.3141,2.2099,2.141,2.165,2.15,2.1425,2.1665,2.15,2.1257,2.1085,2.0196,1.9276,1.8563,1.7785,1.7076,1.6552,1.6861,1.7074,1.7074,1.6798,1.6411,1.5908,1.5213,1.4773,1.4541,1.4697,1.4912,1.5186,1.5342,1.4991,1.4213,1.3906,1.3364,1.2573,1.2573,1.2143,2.2698,2.3293,2.3957,2.4264,2.516,2.5997,2.6494,2.6931,2.7355,2.7565,2.7625,2.766,2.786,2.791,2.8042,2.8415,2.8108,2.8116,2.9067,2.8793,2.8406,2.8228,2.867,2.8621,2.7554,2.7689,2.7621,2.7114,2.6843,0.0,2.6691,2.6691,2.6808,2.7083,2.7348,2.788,2.859,2.8607,2.8191,2.7383,2.6989,2.6381,2.5601,2.5501,2.563,2.5936,2.6043,2.5959,2.5703,2.5644,2.557,2.5517,2.5762,2.568,2.5444,2.5561,2.5477,2.5278,2.5077,2.5016,2.4961,2.4685,2.4151,2.3567,2.3277,2.2773,2.231,2.231,2.2835,2.346,2.3697,2.4306,2.4793,2.4555,2.467,2.4586,2.3791,2.2772,2.2084,2.2293,2.2158,2.2099,2.2293,2.2158,2.2024,2.2024,2.1163,2.0142,1.9238,1.8412,1.7523,1.662,1.7036,1.7388,1.7388,1.7255,1.7043,1.6779,1.5838,1.5273,1.5375,1.5103,1.5127,1.54,1.541,1.5108,1.4628,1.4628,1.4213,1.3425,1.3425,1.2818,0.0,0.0,0.0,2.3507,2.4077,2.4872,2.6247,2.6572,2.6782,2.749,2.7625,2.776,2.8367,2.8511,2.8511,2.8559,2.8428,2.8581,2.9181,2.9147,2.9079,2.9062,2.9025,2.9025,2.9011,2.8315,2.784,2.7789,2.7148,2.6708,2.6691,2.6725,2.7083,2.7869,2.7897,2.8255,2.8994,2.8209,2.7402,2.6615,2.6185,2.5586,2.4856,2.5264,2.5956,2.6836,2.6915,2.6495,2.5781,2.5781,2.5707,2.5648,2.6505,2.6638,2.6416,2.6998,2.7073,2.6879,2.668,2.6612,2.6465,2.5676,2.4986,2.4293,2.349,2.2842,2.2378,2.2378,2.2902,2.363,2.4388,2.5084,2.5531,2.5287,2.4633,2.4027,2.3658,2.3131,2.2877,2.349,2.3101,2.2877,2.349,2.3086,2.2724,2.2739,2.2143,2.1083,1.939,1.9128,1.8437,1.6739,1.7087,1.7438,1.7438,1.8382,1.8672,1.7966,1.7687,1.7257,1.6549,1.5806,1.541,1.541,1.541,1.541,1.541,1.541,1.4991,1.4204,1.4204,1.3356,2.296,0.0,0.0,0.0,0.0,0.0,2.5687,2.6243,2.6782,2.749,2.7625,2.776,2.8367,2.8511,2.8779,2.9673,2.9772,2.9955,3.056,3.0605,3.0378,2.9854,3.026,3.0159,2.9076,2.9279,2.9008,0.0,2.7621,2.7266,2.6725,2.6971,2.7348,2.7897,2.8129,2.8489,2.8994,2.8209,2.7469,2.6802,2.627,2.5962,2.5901,2.625,2.69,2.7756,2.786,2.7789,2.7578,2.7578,2.7501,2.7406,2.7653,2.7618,2.7436,2.7252,2.7172,2.7056,2.6722,2.6612,2.6557,2.6337,2.5778,2.5154,2.4923,2.4403,2.3883,2.3883,2.4408,2.5169,2.5896,2.5983,2.5749,2.5325,2.4752,2.4172,2.3721,2.346,2.3385,2.3565,2.3101,2.2877,2.349,2.3086,2.2873,2.3281,2.2392,2.1399,2.049,1.9605,1.8674,1.7844,1.8242,1.8581,1.8581,1.8718,1.867,1.8501,1.7445,1.6708,1.6482,1.5806,1.541,1.541,1.541,1.541,1.541,1.541,1.5294,1.505,1.4451,1.3666,2.3304,2.3493,2.3794,2.3231,0.0,0.0,2.5379,2.5834,2.6427,2.7641,2.7873,2.8155,2.9071,2.9225,2.9585,3.0518,3.0658,3.0797,3.1151,3.119,3.1038,3.0615,3.0937,3.0852,2.9989,3.0023,2.9793,2.9057,2.8408,2.7742,2.7006,2.7178,2.747,2.7897,2.8237,2.859,2.8994,2.8209,2.7635,2.7281,2.674,2.6552,2.6683,2.714,2.781,2.8647,2.8777,2.9055,2.9375,2.9331,2.8821,2.8139,2.8435,2.8441,2.8262,2.8241,2.8194,2.8072,2.7717,2.7581,2.7548,2.7218,2.6721,2.6165,2.5648,2.5167,2.4701,2.4537,2.5033,2.5778,2.6505,2.6367,2.5852,2.5335,2.4776,2.4266,2.3724,2.3595,2.3595,2.3595,2.331,2.3176,2.3535,2.3295,2.3176,2.355,2.2732,2.1825,2.1018,2.0051,1.9126,1.8276,1.8694,1.8983,1.8983,1.9076,1.915,1.915,1.8058,1.7413,1.7413,1.6415,1.5864,1.5864,1.5584,1.541,1.541,1.541,1.541,1.541,1.4932,1.4094,2.3711,2.4074,2.4389,2.3921,2.4158,0.0,2.533,2.5501,2.5987,2.7822,2.8179,2.8544,2.9805,3.0062,3.0228,3.0858,3.1043,3.1167,3.1173,3.119,3.119,3.119,3.123,3.1252,3.1252,3.0696,3.0497,3.0751,2.9344,2.8132,2.7338,2.7378,2.7589,2.7936,2.829,2.8633,2.8994,2.8209,2.7809,2.7834,2.7398,2.7258,2.7403,2.7975,2.872,2.9547,2.968,3.0175,3.0868,3.0737,2.9776,2.8436,2.9079,2.9174,2.8994,2.9498,2.957,2.9372,2.9089,2.8994,2.8865,2.8172,2.7674,2.718,2.609,2.555,2.5207,2.4836,2.5203,2.5879,2.6522,2.6367,2.5852,2.5335,2.4776,2.4266,2.3724,2.3595,2.3595,2.3595,2.355,2.352,2.3595,2.3535,2.352,2.3595,2.3009,2.2207,2.1157,2.0395,1.956,1.8478,1.8819,1.912,1.912,1.9535,1.9798,1.9798,1.9097,1.8715,1.8715,1.7302,1.6492,1.6492,1.5748,1.541,1.541,1.541,1.541,1.541,1.541,1.4597,2.4533,2.4632,2.5028,2.4894,2.4989,0.0,2.5909,2.6027,2.6306,2.7216,2.7392,2.765,2.8371,2.8523,2.8738,2.9323,3.0206,3.0898,3.1167,3.119,3.119,3.119,3.147,3.1696,3.1696,3.1882,3.1841,3.1288,2.9836,2.8486,2.7369,2.7844,2.8219,2.8316,2.8682,2.8929,2.8994,2.8209,2.7877,2.8029,2.7469,2.7657,2.8503,2.8948,2.9582,3.0383,3.0558,3.0677,3.0733,3.0653,3.0419,3.0111,3.021,3.0049,2.9755,2.9706,2.957,2.9372,2.9089,2.8994,2.8957,2.8833,2.8323,2.7743,2.75,2.6926,2.6383,2.6284,2.637,2.6522,2.6657,2.6367,2.5852,2.5335,2.4776,2.4266,2.3724,2.3595,2.3595,2.3595,2.3191,2.3011,2.352,2.3191,2.3026,2.3535,2.2651,2.181,2.1592,2.0548,1.975,1.9497,1.9585,1.9648,1.9648,1.9748,1.9798,1.9798,1.9097,1.8715,1.8715,1.7302,1.6492,1.6492,1.5748,1.541,1.541,1.541,1.541,1.541,1.541,1.5112,2.5075,2.5182,2.5524,2.5259,2.5411,0.0,0.0,2.6091,2.6379,2.7328,2.7498,2.7767,2.8642,2.882,2.8965,2.9455,3.0366,3.0922,3.0681,3.1339,3.1721,3.1304,3.1429,3.1409,3.0991,3.1155,3.108,3.054,3.0188,2.9351,2.7915,2.8192,2.8394,2.8394,2.8773,2.8994,2.8994,2.8613,2.846,2.8553,2.8464,2.8726,2.9273,2.9775,3.023,3.0611,3.081,3.0808,3.0691,3.0637,3.0578,3.0544,3.0487,3.0188,2.9845,2.9748,2.9494,2.9181,2.9062,2.8994,2.897,2.8773,2.8464,2.8075,2.7707,2.7178,2.6691,2.6691,2.6691,2.6691,2.6691,2.6175,2.5524,2.5259,2.4592,2.3921,2.3681,2.3595,2.3595,2.3595,2.3355,2.3236,2.355,2.334,2.3236,2.355,2.25,2.1697,2.1697,2.0607,1.9798,1.9798,1.9798,1.9798,1.9798,1.9798,1.9798,1.9798,1.9475,1.9097,1.8715,1.7633,1.6698,1.5979,1.5584,1.5518,1.5732,1.5732,1.5732,1.5732,1.5732,1.5533,2.5599,2.5726,2.6033,2.5598,2.5799,2.612,0.0,0.0,0.0,2.7487,2.776,2.81,2.9001,2.9188,2.9286,2.9634,3.0424,3.0738,3.0087,3.139,3.2032,3.1158,3.115,3.0951,3.03,3.029,3.0148,2.9647,3.0315,3.0071,2.8492,2.8616,2.8685,2.8515,2.8985,2.914,2.8994,2.8994,2.904,2.9089,2.9495,2.9731,2.9782,3.0349,3.0588,3.0594,3.0781,3.0781,3.066,3.0602,3.0544,3.0475,3.0374,3.0066,2.9696,2.9661,2.9375,2.8994,2.8994,2.8994,2.8929,2.854,2.8298,2.8039,2.7409,2.6971,2.6691,2.6691,2.6691,2.6691,2.6691,2.6016,2.5335,2.5221,2.4471,2.3724,2.3638,2.3595,2.3595,2.3595,2.3595,2.3595,2.3595,2.3595,2.3595,2.3595,2.25,2.1697,2.1697,2.0607,1.9798,1.9798,1.9798,1.9798,1.9798,1.9798,1.9798,1.9798,1.9798,1.9475,1.8715,1.7841,1.6743,1.541,1.5498,1.5703,1.6125,1.6152,1.6191,1.6191,1.6191,1.6095,2.6266,2.6262,2.6624,2.6539,2.659,2.6624,2.6624,0.0,2.7195,2.7313,0.0,2.7941,2.8059,0.0,0.0,2.8134,2.9068,2.9755,2.9665,3.0949,3.1462,3.0353,3.06,3.0815,3.0743,3.1056,3.0789,2.9674,3.0006,2.9746,2.8474,2.9405,2.9685,2.8947,2.9672,2.9732,2.8994,2.8994,2.9112,2.9351,2.9589,2.9796,2.9984,3.0401,3.0576,3.0527,3.0664,3.0651,3.0525,3.0506,3.0467,3.0386,3.0136,2.9893,2.9678,2.9494,2.9246,2.8994,2.8994,2.8994,2.8929,2.854,2.7974,2.7348,2.6906,2.6725,2.6691,2.6691,2.6691,2.6691,2.6691,2.6297,2.5779,2.5297,2.4736,2.4184,2.3724,2.3595,2.3595,2.3595,2.3595,2.3595,2.3595,2.3595,2.3595,2.3595,2.25,2.1697,2.1697,2.0607,1.9798,1.9798,1.9798,1.9798,1.9798,1.9798,1.9798,1.9798,1.9798,1.9475,1.8715,1.7357,1.6255,1.541,1.5791,1.6076,1.6125,1.6465,1.665,1.665,1.665,1.6821,2.7339,2.7195,2.7351,2.7351,2.7197,2.7051,2.7051,2.7348,2.7648,2.7648,0.0,0.0,0.0,0.0,0.0,0.0,3.0265,3.0591,2.9768,3.0594,3.1073,3.0453,3.0654,0.0,3.0213,3.0635,3.058,2.9715,2.9978,2.9899,2.9196,2.9812,3.0115,2.9928,3.0562,3.0503,2.9714,2.9839,2.9752,2.9412,2.9731,2.9965,3.0136,3.0405,3.0555,3.0566,3.0621,3.0583,3.0506,3.0506,3.0369,3.0136,2.9927,2.9763,2.9678,2.9455,2.9225,2.8994,2.8994,2.8839,2.854,2.7946,2.7391,2.6939,2.6758,2.6691,2.6691,2.6691,2.6691,2.6624,2.6367,2.5924,2.5411,2.4855,2.4307,2.3879,2.3638,2.3595,2.3595,2.3595,2.3595,2.3595,2.3595,2.3595,2.3465,2.3143,2.2285,2.1568,2.1197,2.0383,1.9798,1.9798,1.9798,1.9798,1.9798,1.9798,1.9798,1.9798,1.898,1.8382,1.8058,1.6641,1.57,1.541,1.584,1.6191,1.6455,1.6894,1.7236,1.7471,1.7227,1.7334,2.8356,2.815,2.8202,2.8441,2.795,2.7522,2.7731,2.7906,2.8128,2.8434,2.8577,0.0,0.0,0.0,3.0396,3.0665,0.0,3.1143,2.9886,3.0258,3.0582,3.0373,3.049,3.0337,0.0,3.0321,3.0432,2.9753,3.0161,3.0211,2.9716,3.0365,3.0698,3.0602,3.1481,3.1422,3.0309,3.0583,3.0318,2.957,2.9861,3.0109,3.0285,3.0426,3.052,3.0579,3.0565,3.0501,3.0356,3.0356,3.0194,2.9908,2.9696,2.9626,2.9589,2.9373,2.9178,2.8975,2.8863,2.8515,2.8029,2.7452,2.7019,2.6691,2.6691,2.6691,2.6691,2.6691,2.6691,2.659,2.612,2.5615,2.5067,2.4552,2.3991,2.3595,2.3595,2.3595,2.3595,2.3595,2.3595,2.3595,2.3595,2.3595,2.3377,2.2785,2.2146,2.1472,2.0894,2.0194,1.9798,1.9798,1.9798,1.9798,1.9798,1.9798,1.9695,1.9527,1.8286,1.7523,1.7302,1.6083,1.5469,1.5586,1.6016,1.6465,1.6914,1.7344,1.7715,1.8008,1.7695,1.7715,0.0,0.0,2.9254,3.0016,2.906,2.8092,2.8847,2.8693,2.8696,2.98,3.0302,3.0858,3.1921,3.2109,3.1864,3.1109,3.1014,0.0,0.0,2.988,2.9962,2.9751,2.9734,2.9715,2.9696,3.0468,3.0619,0.0,3.0487,3.06,2.9734,3.1242,3.1655,3.0642,3.2389,3.2445,3.0621,3.0847,3.0648,2.9984,2.9999,3.0174,3.0498,3.0498,3.0502,3.0509,3.0492,3.0312,3.0013,3.0013,2.9893,2.9696,2.9474,2.9412,2.9392,2.9112,2.9017,2.8952,2.8565,2.7946,2.7317,2.7303,2.7019,2.6691,2.6691,2.6691,2.6691,2.6691,2.6691,2.659,2.612,2.5615,2.5067,2.4552,2.3991,2.3595,2.3595,2.3595,2.3595,2.3595,2.3595,2.3595,2.3595,2.3595,2.3377,2.2785,2.2146,2.1472,2.0894,2.0194,1.9798,1.9798,1.9798,1.9798,1.9798,1.9798,1.9475,1.8768,1.8004,1.7302,1.6539,1.5806,1.5615,1.6096,1.6484,1.6924,1.7363,1.7783,1.7998,1.8008,1.7998,1.7998,0.0,0.0,2.9789,3.0988,0.0,0.0,3.0363,3.0589,3.0802,3.1366,3.158,3.177,3.2128,3.2204,3.1977,3.1367,3.1252,3.1035,0.0,3.0343,3.0367,3.0298,3.0297,3.0499,3.1035,3.0748,0.0,0.0,3.0582,0.0,3.0218,3.1515,3.2157,3.1879,3.3412,3.3693,3.2465,3.2161,3.1635,3.0925,3.0513,3.0405,3.0552,3.0523,3.0508,3.0482,3.0273,3.0109,2.9999,2.9861,2.9678,2.9494,2.9414,2.9289,2.9134,2.9021,2.8994,2.8905,2.8281,2.7736,2.7272,2.7004,2.6808,2.6691,2.6691,2.6691,2.6691,2.6691,2.647,2.6104,2.5615,2.5067,2.4552,2.3991,2.3709,2.3595,2.3595,2.3595,2.3595,2.3595,2.3595,2.3595,2.3595,2.3595,2.3377,2.2785,2.2146,2.1472,2.0894,2.0194,1.9798,1.9798,1.9798,1.9798,1.9798,1.9798,1.9475,1.8768,1.8004,1.7246,1.6549,1.5806,1.5615,1.6115,1.6211,1.6504,1.6953,1.709,1.7158,1.7178,1.7461,1.7744,3.0769,3.0528,0.0,3.1605,3.1117,0.0,3.1433,0.0,3.2106,3.273,3.2803,3.2914,3.3363,3.3156,3.2754,3.213,3.179,3.1347,0.0,3.0893,3.097,3.0668,3.0606,3.0811,3.1322,3.1303,3.1291,3.137,0.0,3.0882,0.0,0.0,3.2531,3.2531,3.4137,3.4546,3.3582,3.2991,3.2301,3.1575,3.0839,3.0541,3.0605,3.05,3.0438,3.0381,3.0114,2.9924,2.9763,2.9643,2.9455,2.9246,2.9101,2.8943,2.8797,2.8952,2.8815,2.8507,2.7908,2.7409,2.7051,2.6774,2.6691,2.6691,2.6691,2.6691,2.6657,2.6521,2.6227,2.5852,2.5089,2.4657,2.4266,2.3709,2.3595,2.3595,2.3595,2.3595,2.3595,2.3595,2.3595,2.3595,2.3595,2.3595,2.3319,2.2483,2.1993,2.1376,2.0547,2.0055,1.9798,1.9798,1.9798,1.9798,1.9798,1.9798,1.9371,1.8394,1.7841,1.7135,1.6151,1.5642,1.5762,1.6576,1.6377,1.667,1.7412,1.7256,1.7187,1.7187,1.7471,1.7754]},{"header":{"parameterUnit":"m.s-1","parameterCategory":1,"la1":30.6,"la2":29.2853,"lo1":-89.7004,"lo2":-87.6739,"dy":0.0162,"dx":0.0183,"nx":112,"ny":82,"refTime":"2023-05-18T12:00:00:Z","depth":0,"parameterNumber":3,"parameterNumberName":"V-component_of_WINDS"},"data":[0.0,0.0,0.0,0.0,0.0,0.0,0.0,0.0,0.0,0.0,0.0,0.0,0.0,0.0,0.0,0.0,0.0,0.0,0.0,0.0,0.0,0.0,0.0,0.0,0.0,0.0,0.0,0.0,0.0,0.0,0.0,0.0,0.0,0.0,0.0,0.0,0.0,0.0,0.0,0.0,0.0,0.0,0.0,0.0,0.0,0.0,0.0,0.0,0.0,0.0,0.0,0.0,0.0,0.0,0.0,0.0,0.0,0.0,0.0,0.0,0.0,0.0,0.0,0.0,0.0,0.0,0.0,0.0,0.0,0.0,0.0,0.0,0.0,0.0,0.0,0.0,0.0,0.0,0.0,0.0,0.0,0.0,0.0,0.0,0.0,0.0,0.0,0.0,0.0,0.0,-1.2749,-1.4336,-1.7666,-1.9697,-1.9616,-2.0476,-1.9851,-1.7149,0.0,0.0,0.0,0.0,0.0,0.0,0.0,0.0,0.0,0.0,0.0,0.0,0.0,0.0,0.0,0.0,0.0,0.0,0.0,0.0,0.0,0.0,0.0,0.0,0.0,0.0,0.0,0.0,0.0,0.0,0.0,0.0,0.0,0.0,0.0,0.0,0.0,0.0,0.0,0.0,0.0,0.0,0.0,0.0,0.0,0.0,0.0,0.0,0.0,0.0,0.0,0.0,0.0,0.0,0.0,0.0,0.0,0.0,0.0,0.0,0.0,0.0,0.0,0.0,0.0,0.0,0.0,0.0,0.0,0.0,0.0,0.0,0.0,0.0,0.0,0.0,0.0,0.0,0.0,0.0,0.0,0.0,0.0,0.0,0.0,0.0,0.0,0.0,0.0,0.0,0.0,0.0,0.0,0.0,0.0,0.0,0.0,0.0,0.0,0.0,0.0,0.0,0.0,0.0,-1.3909,-1.7002,-1.9172,-2.042,-2.042,-2.0245,-1.9438,-1.789,0.0,0.0,0.0,0.0,0.0,0.0,0.0,0.0,0.0,0.0,0.0,0.0,0.0,0.0,0.0,0.0,0.0,0.0,0.0,0.0,0.0,0.0,0.0,0.0,0.0,0.0,0.0,0.0,0.0,0.0,0.0,0.0,0.0,0.0,0.0,0.0,0.0,0.0,0.0,0.0,0.0,0.0,0.0,0.0,0.0,0.0,0.0,0.0,0.0,0.0,0.0,0.0,0.0,0.0,0.0,0.0,0.0,0.0,0.0,0.0,0.0,0.0,0.0,0.0,0.0,0.0,0.0,0.0,0.0,0.0,0.0,0.0,0.0,0.0,0.0,0.0,0.0,0.0,0.0,0.0,0.0,0.0,0.0,0.0,0.0,0.0,0.0,0.0,0.0,0.0,0.0,0.0,0.0,0.0,0.0,0.0,0.0,0.0,0.0,0.0,0.0,0.0,0.0,-1.3189,-1.5059,-1.7993,-1.9464,-2.0215,-2.0215,-2.0252,-1.9605,-1.8076,-1.7671,0.0,0.0,0.0,0.0,0.0,0.0,0.0,0.0,0.0,0.0,0.0,0.0,0.0,0.0,0.0,0.0,0.0,0.0,0.0,0.0,0.0,0.0,0.0,0.0,0.0,0.0,0.0,0.0,0.0,0.0,0.0,0.0,0.0,0.0,0.0,0.0,0.0,0.0,0.0,0.0,0.0,0.0,0.0,0.0,0.0,0.0,0.0,0.0,0.0,0.0,0.0,0.0,0.0,0.0,0.0,0.0,0.0,0.0,0.0,0.0,0.0,0.0,0.0,0.0,0.0,0.0,0.0,0.0,0.0,0.0,0.0,0.0,0.0,0.0,0.0,0.0,0.0,0.0,0.0,0.0,0.0,0.0,0.0,0.0,0.0,0.0,0.0,0.0,0.0,0.0,0.0,0.0,0.0,0.0,0.0,0.0,0.0,0.0,0.0,0.0,0.0,0.0,-1.4892,-1.5967,-1.8315,-1.9354,-1.9935,-2.0044,-2.0389,-1.9865,-1.8218,-1.7914,0.0,0.0,0.0,0.0,0.0,0.0,0.0,0.0,0.0,0.0,0.0,0.0,0.0,0.0,0.0,0.0,0.0,0.0,0.0,0.0,0.0,0.0,0.0,0.0,0.0,0.0,0.0,0.0,0.0,0.0,0.0,0.0,0.0,0.0,0.0,0.0,0.0,0.0,0.0,0.0,0.0,0.0,0.0,0.0,0.0,0.0,0.0,0.0,0.0,0.0,0.0,0.0,0.0,0.0,0.0,0.0,0.0,0.0,0.0,0.0,0.0,0.0,0.0,0.0,0.0,0.0,0.0,0.0,0.0,0.0,0.0,0.0,0.0,0.0,0.0,0.0,0.0,0.0,0.0,0.0,0.0,0.0,0.0,0.0,0.0,0.0,0.0,0.0,0.0,0.0,0.0,0.0,0.0,0.0,0.0,0.0,0.0,0.0,0.0,0.0,0.0,0.0,-1.4967,-1.628,-1.8356,-1.9363,-2.0115,-2.0542,-2.0495,-1.9878,-1.8626,-1.7737,0.0,0.0,0.0,0.0,0.0,0.0,0.0,0.0,0.0,0.0,0.0,0.0,0.0,0.0,0.0,0.0,0.0,0.0,0.0,0.0,0.0,0.0,0.0,0.0,0.0,0.0,0.0,0.0,0.0,0.0,0.0,0.0,0.0,0.0,0.0,0.0,0.0,0.0,0.0,0.0,0.0,0.0,0.0,0.0,0.0,0.0,0.0,0.0,0.0,0.0,0.0,0.0,0.0,0.0,0.0,0.0,0.0,0.0,0.0,0.0,0.0,0.0,0.0,0.0,0.0,0.0,0.0,0.0,0.0,0.0,0.0,0.0,0.0,0.0,0.0,0.0,0.0,0.0,0.0,0.0,0.0,0.0,0.0,0.0,0.0,0.0,0.0,0.0,0.0,0.0,0.0,0.0,0.0,0.0,0.0,0.0,0.0,0.0,0.0,0.0,0.0,0.0,-1.4496,-1.586,-1.791,-1.8951,-1.9748,-2.0454,-2.0921,-2.0682,-1.9364,0.0,0.0,0.0,0.0,0.0,0.0,0.0,0.0,0.0,0.0,0.0,0.0,0.0,0.0,0.0,0.0,0.0,0.0,0.0,0.0,0.0,0.0,0.0,0.0,0.0,0.0,0.0,0.0,0.0,0.0,0.0,0.0,0.0,0.0,0.0,0.0,0.0,0.0,0.0,0.0,0.0,0.0,0.0,0.0,0.0,0.0,0.0,0.0,0.0,0.0,0.0,0.0,0.0,0.0,0.0,0.0,0.0,0.0,0.0,0.0,0.0,0.0,0.0,0.0,0.0,0.0,0.0,0.0,0.0,0.0,0.0,0.0,0.0,0.0,0.0,0.0,0.0,0.0,0.0,0.0,0.0,0.0,0.0,0.0,0.0,0.0,0.0,0.0,0.0,0.0,0.0,0.0,0.0,0.0,0.0,0.0,0.0,0.0,0.0,0.0,0.0,0.0,-1.3331,-1.4556,-1.5956,-1.7626,-1.867,-1.9552,-2.0285,-2.0958,-2.089,-1.9753,0.0,0.0,0.0,0.0,0.0,0.0,0.0,0.0,0.0,0.0,0.0,0.0,0.0,0.0,0.0,0.0,0.0,0.0,0.0,0.0,0.0,0.0,0.0,0.0,0.0,0.0,0.0,0.0,0.0,0.0,0.0,0.0,0.0,0.0,0.0,0.0,0.0,0.0,0.0,0.0,0.0,0.0,0.0,0.0,0.0,0.0,0.0,0.0,0.0,0.0,0.0,0.0,0.0,0.0,0.0,0.0,0.0,0.0,0.0,0.0,0.0,0.0,0.0,0.0,0.0,0.0,0.0,0.0,0.0,0.0,0.0,0.0,0.0,0.0,0.0,0.0,0.0,0.0,0.0,0.0,0.0,0.0,0.0,0.0,0.0,0.0,0.0,0.0,0.0,0.0,0.0,0.0,0.0,0.0,0.0,0.0,0.0,0.0,0.0,0.0,0.0,0.0,-1.4037,-1.5292,-1.6516,-1.7667,-1.8561,-1.9397,-2.0157,-2.0502,-2.0382,0.0,0.0,0.0,0.0,0.0,0.0,0.0,0.0,0.0,0.0,0.0,0.0,0.0,0.0,0.0,0.0,0.0,0.0,0.0,0.0,0.0,0.0,0.0,0.0,0.0,0.0,0.0,0.0,0.0,0.0,0.0,0.0,0.0,0.0,0.0,0.0,0.0,0.0,0.0,0.0,0.0,0.0,0.0,0.0,0.0,0.0,0.0,0.0,0.0,0.0,0.0,0.0,0.0,0.0,0.0,0.0,0.0,0.0,0.0,0.0,0.0,0.0,0.0,0.0,0.0,0.0,0.0,0.0,0.0,0.0,0.0,0.0,0.0,0.0,0.0,0.0,0.0,0.0,0.0,0.0,0.0,0.0,0.0,0.0,0.0,0.0,0.0,0.0,0.0,0.0,0.0,0.0,0.0,0.0,0.0,0.0,0.0,0.0,0.0,0.0,0.0,0.0,0.0,-1.4067,-1.5505,-1.6905,-1.826,-1.9064,-1.9749,-2.0496,-2.0644,-2.0611,-2.0382,0.0,0.0,0.0,0.0,0.0,0.0,0.0,0.0,0.0,0.0,0.0,0.0,0.0,0.0,0.0,0.0,0.0,0.0,0.0,0.0,0.0,0.0,0.0,0.0,0.0,0.0,0.0,0.0,0.0,0.0,0.0,0.0,0.0,0.0,0.0,0.0,0.0,0.0,0.0,0.0,0.0,0.0,0.0,0.0,0.0,0.0,0.0,0.0,0.0,0.0,0.0,0.0,0.0,0.0,0.0,0.0,0.0,0.0,0.0,0.0,0.0,0.0,0.0,0.0,0.0,0.0,0.0,0.0,0.0,0.0,0.0,0.0,0.0,0.0,0.0,0.0,0.0,0.0,0.0,0.0,0.0,0.0,0.0,0.0,0.0,0.0,0.0,0.0,0.0,0.0,0.0,0.0,0.0,0.0,0.0,0.0,0.0,0.0,0.0,0.0,0.0,0.0,-1.4528,-1.5985,-1.7413,-1.8555,-1.9012,-1.954,-2.0273,-2.0326,-2.0484,-2.0732,0.0,0.0,0.0,0.0,0.0,0.0,0.0,0.0,0.0,0.0,0.0,0.0,0.0,0.0,0.0,0.0,0.0,0.0,0.0,0.0,0.0,0.0,0.0,0.0,0.0,0.0,0.0,0.0,0.0,0.0,0.0,0.0,0.0,0.0,0.0,0.0,0.0,0.0,0.0,0.0,0.0,0.0,0.0,0.0,0.0,0.0,0.0,0.0,0.0,0.0,0.0,0.0,0.0,0.0,0.0,0.0,0.0,0.0,0.0,0.0,0.0,0.0,0.0,0.0,0.0,0.0,0.0,0.0,0.0,0.0,0.0,0.0,0.0,0.0,0.0,0.0,0.0,0.0,0.0,0.0,0.0,0.0,0.0,0.0,0.0,0.0,0.0,0.0,0.0,0.0,0.0,0.0,0.0,0.0,0.0,0.0,0.0,0.0,0.0,0.0,0.0,0.0,-1.5289,-1.6719,-1.795,-1.8715,-1.8821,-1.9097,-1.985,-1.9901,-2.0207,-2.0845,0.0,0.0,0.0,0.0,0.0,0.0,0.0,0.0,0.0,0.0,0.0,0.0,0.0,0.0,0.0,0.0,0.0,0.0,0.0,0.0,0.0,0.0,0.0,0.0,0.0,0.0,0.0,0.0,0.0,0.0,0.0,0.0,0.0,0.0,0.0,0.0,0.0,0.0,0.0,0.0,0.0,0.0,0.0,0.0,0.0,0.0,0.0,0.0,0.0,0.0,0.0,0.0,0.0,0.0,0.0,0.0,0.0,0.0,0.0,0.0,-1.5723,-1.5486,0.0,0.0,0.0,0.0,0.0,0.0,0.0,0.0,0.0,0.0,0.0,0.0,0.0,0.0,0.0,0.0,0.0,0.0,0.0,0.0,0.0,0.0,0.0,0.0,0.0,0.0,0.0,0.0,0.0,0.0,0.0,0.0,0.0,0.0,0.0,0.0,0.0,0.0,0.0,0.0,-1.6539,-1.7691,-1.8768,-1.9475,-1.9579,-1.9837,-2.0547,-2.0597,-2.0832,-2.1472,-2.1363,0.0,0.0,0.0,0.0,0.0,0.0,0.0,0.0,0.0,0.0,0.0,0.0,0.0,0.0,0.0,0.0,0.0,0.0,0.0,0.0,0.0,0.0,0.0,0.0,0.0,0.0,0.0,0.0,0.0,0.0,0.0,0.0,0.0,0.0,0.0,0.0,0.0,0.0,0.0,0.0,0.0,0.0,0.0,0.0,0.0,0.0,0.0,0.0,0.0,0.0,0.0,0.0,0.0,0.0,0.0,0.0,0.0,0.0,0.0,-1.849,-1.7926,0.0,0.0,0.0,0.0,0.0,0.0,0.0,0.0,0.0,0.0,0.0,0.0,0.0,0.0,0.0,0.0,0.0,0.0,0.0,0.0,0.0,0.0,0.0,0.0,0.0,0.0,0.0,0.0,0.0,0.0,0.0,0.0,0.0,0.0,0.0,0.0,0.0,0.0,0.0,0.0,-1.7439,-1.851,-1.9515,-2.0194,-2.0308,-2.0534,-2.121,-2.1245,-2.1486,-2.2146,-2.1899,0.0,0.0,0.0,0.0,0.0,0.0,0.0,0.0,0.0,0.0,0.0,0.0,0.0,0.0,0.0,0.0,0.0,0.0,0.0,0.0,0.0,0.0,0.0,0.0,0.0,0.0,0.0,0.0,0.0,0.0,0.0,0.0,0.0,0.0,0.0,0.0,0.0,0.0,0.0,0.0,0.0,0.0,0.0,0.0,0.0,0.0,0.0,0.0,0.0,0.0,0.0,0.0,0.0,-1.8591,-1.9544,-2.0085,-2.0986,-2.1792,-2.253,-2.1687,-2.0815,-2.0006,-1.9913,0.0,0.0,0.0,0.0,0.0,0.0,0.0,0.0,0.0,0.0,0.0,0.0,0.0,0.0,0.0,0.0,0.0,0.0,0.0,0.0,0.0,0.0,0.0,0.0,-1.8293,-1.7863,-1.6321,0.0,0.0,0.0,0.0,0.0,0.0,0.0,0.0,0.0,0.0,0.0,-1.8017,-1.9055,-2.0041,-2.0733,-2.0801,-2.1102,-2.1791,-2.1852,-2.2146,-2.283,-2.2331,-2.2517,0.0,0.0,0.0,0.0,0.0,0.0,0.0,0.0,0.0,0.0,0.0,0.0,0.0,0.0,0.0,0.0,0.0,0.0,0.0,0.0,0.0,0.0,0.0,0.0,0.0,0.0,0.0,0.0,0.0,0.0,0.0,0.0,-0.5401,-0.5398,0.0,0.0,0.0,0.0,0.0,0.0,0.0,0.0,0.0,0.0,0.0,0.0,0.0,-1.8899,-1.9998,-1.9643,-1.992,-2.0886,-2.1095,-2.1609,-2.2309,-2.2888,-2.3722,-2.4792,-2.567,0.0,-2.2821,-2.2218,0.0,0.0,0.0,0.0,0.0,0.0,0.0,0.0,0.0,0.0,0.0,0.0,0.0,0.0,0.0,0.0,0.0,0.0,0.0,0.0,0.0,0.0,-2.1648,-2.1247,-2.1143,-2.1102,0.0,-1.8594,-1.6624,-1.653,-1.5846,0.0,0.0,0.0,0.0,0.0,0.0,0.0,-1.7989,-1.9007,-2.0061,-2.0743,-2.0813,-2.1278,-2.2455,-2.2558,-2.283,-2.3465,-2.3406,-2.3636,-2.4266,-2.4215,0.0,0.0,0.0,0.0,0.0,0.0,0.0,0.0,0.0,0.0,0.0,0.0,0.0,0.0,0.0,0.0,0.0,0.0,0.0,0.0,0.0,0.0,0.0,0.0,0.0,0.0,0.0,0.0,0.0,-0.8891,-0.9524,-1.0188,-1.1027,-1.1089,0.0,0.0,0.0,0.0,0.0,0.0,0.0,0.0,0.0,-1.5728,-2.0088,-2.2603,-2.3077,-2.1684,-2.164,-2.2975,-2.3168,-2.383,-2.4835,-2.5242,-2.5722,-2.6261,-2.6729,-2.662,-2.6026,-2.542,-2.4787,-2.4198,0.0,0.0,0.0,0.0,-2.4926,-2.5392,-2.663,-2.7051,-2.7061,-2.7147,0.0,0.0,0.0,0.0,0.0,0.0,0.0,0.0,0.0,0.0,-2.2878,-2.2657,-2.2613,-2.2613,-2.2613,-2.1001,-1.9439,0.0,-1.8385,-1.7888,-1.7915,0.0,0.0,0.0,0.0,-1.7953,-1.847,-1.9029,-1.9588,-2.0232,-2.0556,-2.1283,-2.2585,-2.2687,-2.3078,-2.4017,-2.4032,-2.443,-2.5259,-2.548,-2.5829,0.0,0.0,0.0,0.0,0.0,0.0,0.0,0.0,0.0,0.0,0.0,0.0,0.0,0.0,0.0,0.0,0.0,0.0,0.0,0.0,0.0,0.0,0.0,0.0,0.0,0.0,0.0,0.0,-1.1355,-1.2501,-1.4343,-1.3705,-1.2452,0.0,0.0,0.0,0.0,0.0,0.0,-1.7347,-1.7937,-1.8843,-2.0128,-2.3542,-2.5299,-2.5269,-2.3712,-2.3664,-2.505,-2.5071,-2.5652,-2.6707,-2.6897,-2.7114,-2.7355,-2.7523,-2.7989,-2.8662,-2.7674,-2.6858,-2.6132,-2.6047,-2.5995,-2.6068,-2.6588,-2.6933,-2.729,-2.861,-2.9063,-2.907,-2.8935,-2.8767,-2.8271,-2.6386,0.0,0.0,0.0,0.0,-2.412,-2.412,-2.407,-2.3907,-2.3575,-2.3503,-2.3457,-2.3249,-2.2529,-2.167,0.0,-2.0105,-1.9355,-1.8995,0.0,0.0,-1.8621,-1.8194,-1.81,-1.8856,-1.9097,-1.9415,-2.006,-2.0455,-2.1225,-2.2607,-2.2724,-2.3171,-2.4343,-2.4389,-2.4855,-2.5977,-2.6319,-2.6737,-2.7286,0.0,0.0,0.0,0.0,0.0,0.0,0.0,0.0,0.0,0.0,0.0,0.0,0.0,0.0,0.0,0.0,0.0,0.0,0.0,0.0,0.0,0.0,0.0,0.0,0.0,0.0,0.0,0.0,0.0,-1.5314,-1.5422,0.0,0.0,0.0,0.0,-2.2322,-2.2701,-2.2718,-2.273,-2.4743,-2.5961,-2.6063,-2.6577,-2.6725,-2.6394,-2.6544,-2.6947,-2.7538,-2.6869,-2.6823,-2.7175,-2.7061,-2.7485,-2.8368,-2.8872,-2.9556,-3.0148,-2.8065,-2.7622,-2.8179,-2.756,-2.7288,-2.7315,-2.7474,-2.8039,-2.8723,-2.8931,-2.9017,-2.9122,-2.9796,-2.9563,-2.874,-2.74,-2.6968,0.0,0.0,-2.6633,-2.6337,-2.6337,-2.611,-2.5546,-2.4351,-2.4042,-2.3867,-2.3195,-2.2984,-2.2652,0.0,-2.0104,-1.9109,-1.9653,0.0,-1.8835,-1.8877,-1.9312,-1.9462,-1.896,-1.9348,-1.9941,-2.0582,-2.069,-2.1237,-2.2604,-2.2724,-2.3171,-2.4343,-2.4389,-2.4855,-2.5977,-2.6319,-2.6737,-2.7286,-2.786,0.0,0.0,0.0,0.0,0.0,0.0,0.0,0.0,0.0,0.0,0.0,0.0,0.0,0.0,0.0,0.0,0.0,0.0,0.0,0.0,0.0,0.0,0.0,0.0,0.0,0.0,0.0,0.0,-1.8252,-1.7806,0.0,-1.7033,-1.9023,-2.175,-2.5025,-2.5306,-2.6254,-2.8381,-2.9293,-2.8834,-2.6871,-2.8126,-2.8202,-2.6969,-2.7412,-2.7776,-2.8084,-2.7443,-2.7442,-2.8108,-2.8001,-2.8126,-2.8495,-2.9086,-2.972,-3.0293,-2.9512,-2.9359,-2.9639,-3.0057,-3.0209,-3.02,-3.0041,-3.014,-3.0379,-3.0208,-3.0181,-3.0155,-3.0143,-2.9626,-2.892,-2.8474,-2.8139,-2.7834,-2.7308,-2.6908,-2.6504,-2.5988,-2.5779,-2.5549,-2.509,-2.4992,-2.4923,-2.4667,-2.3846,-2.3013,-2.2665,-2.1462,-2.0677,-2.1148,-1.9931,-1.9114,-1.9771,-1.9204,-1.8753,-1.8888,-1.9069,-1.9272,-1.9541,-2.0072,-2.1008,-2.2409,-2.2785,-2.3443,-2.4595,-2.468,-2.5097,-2.6092,-2.6493,-2.7194,-2.8242,-2.8722,-2.8507,0.0,0.0,0.0,0.0,0.0,0.0,0.0,0.0,0.0,0.0,0.0,0.0,0.0,0.0,0.0,0.0,0.0,0.0,0.0,0.0,0.0,0.0,0.0,0.0,0.0,-1.2002,-1.4985,-2.0007,-2.1418,-2.2136,-2.2523,-2.3591,-2.4876,-2.6412,-2.7039,-2.8556,-3.1366,-3.113,-2.9889,-2.7566,-2.8866,-2.8887,-2.7474,-2.8074,-2.8584,-2.8895,-2.8218,-2.8375,-2.9184,-2.8917,-2.8778,-2.8785,-2.9187,-2.9662,-3.0251,-3.0403,-3.056,-3.0874,-3.1397,-3.1696,-3.1722,-3.1105,-3.0991,-3.1034,-3.0405,-3.0196,-3.0158,-2.9875,-2.9439,-2.8938,-2.8686,-2.8396,-2.8027,-2.7211,-2.6752,-2.6339,-2.5806,-2.5561,-2.5429,-2.5164,-2.5094,-2.5023,-2.4784,-2.392,-2.3172,-2.3033,-2.2085,-2.1345,-2.1605,-2.0527,-1.9809,-2.0506,-1.9715,-1.9192,-1.9549,-1.9456,-1.9346,-1.9346,-1.9919,-2.0763,-2.191,-2.2675,-2.3471,-2.4377,-2.4674,-2.5096,-2.5784,-2.644,-2.7312,-2.8374,-2.8947,-2.8874,-2.8176,0.0,0.0,0.0,0.0,0.0,0.0,0.0,0.0,0.0,0.0,0.0,0.0,0.0,0.0,0.0,0.0,0.0,0.0,0.0,0.0,0.0,0.0,0.0,-1.0625,-1.4923,-1.8735,-2.039,-2.6,-2.8825,-2.6735,-2.6488,-2.6539,-2.6596,-2.8052,-2.9734,-3.1382,-3.0417,-2.9407,-2.8558,-2.9007,-2.8857,-2.7954,-2.8792,-2.9493,-3.0079,-2.9416,-2.9545,-3.032,-2.9678,-2.9324,-2.9197,-2.9237,-2.9565,-3.0133,-3.0524,-3.1115,-3.1719,-3.1411,-3.1507,-3.1671,-3.0557,-3.041,-3.0595,-2.9406,-2.8994,-2.8994,-2.8994,-2.8975,-2.8833,-2.8044,-2.7769,-2.7585,-2.6796,-2.6285,-2.5979,-2.5961,-2.5693,-2.5261,-2.4491,-2.4314,-2.4102,-2.3389,-2.3212,-2.3117,-2.2797,-2.1811,-2.1055,-2.1023,-2.1039,-2.0991,-2.1023,-2.1007,0.0,-2.0991,-2.0583,-2.0314,-2.0345,-2.0345,-2.0659,-2.1306,-2.2441,-2.3296,-2.3654,-2.4345,-2.4828,-2.4977,-2.6141,-2.7043,-2.7644,-2.8493,-2.9044,-2.9349,0.0,0.0,0.0,0.0,0.0,0.0,0.0,0.0,0.0,0.0,0.0,0.0,0.0,0.0,0.0,0.0,0.0,0.0,0.0,0.0,0.0,-1.2381,-1.1827,-1.183,-1.6448,-2.0048,-2.0561,-2.4641,-2.7197,-2.6541,-2.6481,-2.6971,-2.8211,-2.8744,-2.9444,-3.0485,-3.0265,-2.9635,-2.8594,-2.9212,-2.9128,-2.8349,-2.9037,-2.9487,-2.9595,-2.9405,-2.9281,-2.9241,-2.9518,-2.9453,-2.9225,-2.9661,-2.9951,-3.0119,-3.0232,-3.0387,-3.0718,-3.2107,-3.2375,-3.1875,-3.1265,-3.0381,-2.946,-2.9117,-2.8994,-2.8994,-2.8994,-2.8613,-2.8081,-2.786,-2.7383,-2.6759,-2.5952,-2.5633,-2.5424,-2.4858,-2.4632,-2.4514,-2.4278,-2.4224,-2.4169,-2.3971,-2.3735,-2.3544,-2.3437,-2.2986,-2.2468,-2.2015,-2.1432,-2.1086,-2.1399,-2.1181,0.0,-2.0991,-2.0894,-2.0872,-2.0996,-2.1644,-2.2198,-2.2575,-2.3538,-2.3942,-2.3516,-2.3667,-2.4028,-2.454,-2.5437,-2.6952,-2.9083,-2.9174,-2.9543,0.0,0.0,0.0,0.0,0.0,0.0,0.0,0.0,0.0,0.0,0.0,0.0,0.0,0.0,0.0,0.0,0.0,0.0,0.0,0.0,0.0,0.0,-1.3357,-1.3051,-1.3056,-1.7427,-2.0582,-2.0625,-2.4506,-2.7172,-2.7176,-2.6784,-2.6972,-2.8027,-2.839,-2.883,-2.9363,-2.9743,-2.9672,-2.9006,-2.934,-2.9462,-2.9241,-2.9337,-2.9508,-2.9681,-2.937,-2.9123,-2.8921,-2.9397,-2.935,-2.8884,-2.939,-2.966,-2.9642,-2.9822,-3.0077,0.0,0.0,0.0,0.0,0.0,-3.0099,-2.8994,-2.8994,-2.8994,-2.8938,-2.8613,-2.8172,-2.7658,-2.6998,-2.6465,-2.5933,-2.5107,-2.4907,-2.4777,-2.4318,-2.419,-2.419,-2.419,-2.419,-2.419,-2.419,-2.4054,-2.3876,-2.3714,-2.3414,0.0,-2.2738,-2.213,-2.1799,-2.2017,-2.1761,-2.1554,-2.1554,-2.1385,-2.1311,-2.1402,-2.1891,-2.2309,-2.2458,-2.3431,0.0,0.0,0.0,-2.4552,-2.5582,-2.6386,0.0,0.0,0.0,-3.0085,-3.0606,0.0,0.0,0.0,-3.0328,-3.0402,0.0,0.0,0.0,0.0,0.0,0.0,0.0,0.0,0.0,0.0,0.0,0.0,0.0,0.0,0.0,0.0,-1.3369,-1.4095,-1.4125,-1.746,-2.002,-2.0537,-2.4534,-2.7357,-2.7679,-2.6818,-2.6445,-2.6775,-2.7457,-2.7982,-2.8296,-2.898,0.0,0.0,0.0,-2.947,-2.9978,-2.9362,-2.9387,-2.9973,-2.9296,-2.8977,-2.8948,-2.9231,-2.9018,-2.8436,-2.8787,-2.8965,-2.9023,-2.9395,-2.9953,-3.0558,-3.022,-3.0362,-3.0677,-3.0234,-2.9622,-2.8994,-2.8994,0.0,0.0,-2.8026,-2.7677,-2.7255,-2.5844,-2.5348,-2.5127,-2.4392,-2.419,-2.419,-2.419,-2.419,-2.419,-2.419,-2.419,-2.419,-2.419,-2.419,-2.4113,-2.3816,-2.35,-2.3259,-2.3323,-2.2947,-2.266,-2.2695,-2.2463,-2.231,-2.231,-2.1928,-2.1691,-2.1697,0.0,0.0,-2.1713,-2.2735,-2.3088,-2.2361,-2.4022,-2.5676,-2.7145,-2.8035,-2.8923,-2.9814,-3.0327,-3.0591,-3.0605,-3.0598,-3.0563,-3.0494,-3.0257,-2.9981,0.0,0.0,0.0,0.0,0.0,0.0,0.0,0.0,0.0,0.0,0.0,0.0,0.0,0.0,0.0,-0.7516,-1.1232,-1.4076,-1.4095,-1.4789,-1.6653,-2.0201,-2.1467,-2.2885,-2.4993,-2.5034,-2.5429,-2.6765,-2.7033,-2.7459,-2.8335,-2.8081,-2.7884,-2.7891,-2.7814,-2.7854,-2.7879,-2.8159,-2.8616,-2.9194,0.0,0.0,-2.8525,-2.8574,-2.8518,-2.838,-2.8479,-2.868,-2.9028,-2.9082,-2.9192,-2.9412,-2.9958,-3.0239,-3.0241,-2.9483,-2.9122,-2.8994,-2.8994,-2.8594,-2.8007,-2.7842,-2.6906,-2.5825,-2.5495,-2.4962,0.0,-2.4245,-2.419,-2.419,-2.419,-2.419,-2.419,-2.419,-2.419,-2.419,-2.419,-2.419,-2.417,-2.4132,-2.3837,-2.3692,-2.3976,-2.3098,-2.2436,-2.2686,-2.2463,-2.231,-2.231,-2.2209,-2.2237,-2.2404,-2.2795,-2.2872,-2.2454,-2.3036,-2.3088,-2.2361,-2.372,-2.5177,-2.6588,-2.7829,-2.9007,-3.0092,-3.0442,-3.0609,-3.0605,-3.0605,-3.0563,-3.0494,-3.0019,-2.975,0.0,0.0,0.0,0.0,0.0,0.0,0.0,0.0,0.0,0.0,0.0,-0.6036,-0.5875,0.0,-0.6745,-0.8015,-1.0408,-1.2889,-1.488,-1.4895,-1.5934,-1.9137,-2.0148,-2.1388,-2.3435,-2.4022,-2.4844,-2.59,-2.6008,-2.6113,-2.6453,-2.6739,-2.6792,-2.6581,-2.7331,-2.7747,-2.7745,-2.7888,-2.8112,-2.8383,-2.7655,-2.7182,-2.7004,-2.683,-2.6743,-2.6765,-2.7104,-2.7345,-2.7583,-2.816,-2.865,-2.903,-2.9457,-2.9604,-2.9512,-2.8705,-2.8411,-2.8338,-2.7952,-2.7548,-2.7126,-2.6722,-2.6064,-2.5329,-2.4905,-2.452,-2.419,-2.419,-2.419,-2.419,-2.419,-2.419,-2.419,-2.419,-2.419,-2.419,-2.419,-2.419,-2.419,-2.419,-2.3795,-2.361,-2.4113,-2.3248,-2.2616,-2.2898,-2.2581,-2.231,-2.231,-2.231,-2.2343,-2.2445,-2.2689,-2.2748,-2.2478,-2.2824,-2.3131,-2.3336,-2.418,-2.5258,-2.6651,-2.7863,-2.8839,-2.959,-3.025,-3.0596,-3.0596,-3.0606,-3.0477,-3.0234,-2.9864,-2.9696,0.0,0.0,0.0,0.0,0.0,0.0,0.0,-0.6299,-0.6282,-0.6287,-0.6318,-0.6391,-0.6308,-0.6364,-0.7337,-1.0171,-1.0674,-1.191,-1.5122,-1.5895,-1.6575,-1.7792,-1.9343,-2.0946,-2.244,-2.3294,-2.4014,-2.465,-2.4693,-2.4611,-2.4307,-2.5128,-2.5423,-2.5076,-2.6325,-2.7041,-2.7054,-2.6942,-2.6958,-2.7148,-2.5964,-2.5389,-2.5372,-2.5094,-2.5034,-2.5147,-2.5747,-2.5991,-2.6069,-2.7059,-2.7844,-2.8429,-2.8517,-2.8517,-2.8462,-2.797,-2.7695,-2.7475,-2.6833,-2.6502,-2.6264,-2.5623,-2.5293,-2.5054,-2.4392,-2.419,-2.419,-2.419,-2.419,-2.419,-2.419,-2.419,-2.419,-2.419,-2.419,-2.419,-2.419,-2.419,-2.419,-2.419,-2.3714,-2.35,-2.4094,-2.3414,-2.2898,-2.3165,-2.2721,-2.2377,-2.231,-2.231,-2.231,-2.231,-2.231,-2.231,-2.231,-2.2554,-2.3127,-2.4109,-2.4615,-2.5439,-2.6655,-2.7706,-2.8426,-2.882,-2.9844,-3.0357,-3.0347,-3.053,-3.0318,-2.9827,-2.9737,-2.9678,-0.5396,-0.5412,-0.5558,-0.6065,-0.5815,-0.5607,0.0,-0.6304,-0.6275,-0.626,-0.6456,-0.6552,-0.6328,-0.6485,-0.7871,-1.1514,-1.2499,-1.3035,-1.3507,-1.6599,-1.8261,-1.657,-1.8147,-2.0144,-2.1918,-2.2194,-2.2527,-2.3301,-2.3346,-2.3404,-2.3598,-2.3212,-2.305,-2.3127,-2.3231,-2.3197,-2.2942,-2.3394,-2.4033,-2.4879,-2.4709,-2.4611,-2.4625,-2.4571,-2.4761,-2.5118,-2.5499,-2.5679,-2.5679,-2.6123,-2.6349,-2.6462,-2.6765,-2.6869,-2.6943,-2.7567,-2.7346,-2.6722,-2.6631,-2.6135,-2.5531,-2.5439,-2.4925,-2.4318,-2.4226,-2.419,-2.419,-2.419,-2.419,-2.419,-2.419,-2.419,-2.419,-2.419,-2.419,-2.419,-2.419,-2.419,-2.419,-2.419,-2.3896,-2.3774,-2.4151,-2.361,-2.3165,-2.3189,-2.2898,-2.2563,-2.2321,-2.231,-2.231,-2.231,-2.231,-2.231,-2.231,-2.2598,-2.296,-2.333,-2.4311,-2.5269,-2.6064,-2.6887,-2.7608,-2.8192,-2.9082,-2.9498,-2.9446,-3.0211,-3.011,-2.9202,-2.9535,-2.9607,-0.2898,-0.2286,-0.289,-0.5591,-0.6125,-0.6061,-0.667,-0.6746,-0.6671,-0.6395,-0.6678,-0.6871,-0.6784,-0.682,-0.7426,-0.8994,-1.151,-1.3226,-1.3286,-1.4995,-1.6353,-1.6366,-1.6793,-1.82,-2.093,-2.1316,-2.1678,-2.2568,-2.2359,-2.2076,-2.1891,-2.1958,-2.1738,-2.1172,-2.1772,-2.1883,-2.1509,-2.1987,-2.2575,-2.3252,-2.2831,-2.2802,-2.3095,-2.2652,-2.267,-2.3009,-2.3405,-2.3946,-2.4585,-2.496,-2.5386,-2.5828,-2.6191,-2.6027,-2.5685,-2.6222,-2.619,-2.5823,-2.5364,-2.4979,-2.4685,-2.4685,-2.4465,-2.419,-2.419,-2.419,-2.419,-2.419,-2.419,-2.419,-2.419,-2.419,-2.419,-2.419,-2.419,-2.419,-2.419,-2.419,-2.4151,-2.3955,-2.3649,-2.3522,-2.3837,-2.3346,-2.2972,-2.3165,-2.2923,-2.2599,-2.2321,-2.231,-2.231,-2.231,-2.231,-2.231,-2.231,-2.2764,-2.3087,-2.3189,-2.4112,-2.4873,-2.528,-2.619,-2.6886,-2.7341,-2.8206,-2.8635,-2.8607,-2.8974,-2.8806,-2.8173,-2.8356,-2.8508,-0.0837,-0.0859,-0.2507,-0.552,-0.6266,-0.6461,-0.6939,-0.605,-0.5058,-0.4628,-0.4894,-0.5523,-0.686,-0.7082,-0.7068,-0.7059,-0.9561,-1.1685,-1.2146,-1.3027,-1.3983,-1.4969,-1.5217,-1.6364,-1.9113,-1.9823,-2.0498,-2.1502,-2.12,-2.0777,-2.025,-2.0631,-2.0388,-1.9303,-2.002,-2.0327,-2.0105,-2.0431,-2.0941,-2.1579,-2.1171,-2.1192,-2.1579,-2.1182,-2.1118,-2.1379,-2.1648,-2.231,-2.3206,-2.3606,-2.4163,-2.4827,-2.5159,-2.4954,-2.4451,-2.469,-2.4894,-2.4999,-2.4392,-2.419,-2.419,-2.419,-2.419,-2.419,-2.419,-2.419,-2.419,-2.419,-2.419,-2.419,-2.419,-2.4113,-2.4094,-2.417,-2.4132,-2.4094,-2.417,-2.4132,-2.3996,-2.3753,-2.3414,-2.3277,-2.3522,-2.3165,-2.2898,-2.3045,-2.2873,-2.2599,-2.2321,-2.231,-2.231,-2.231,-2.231,-2.231,-2.231,-2.2857,-2.3189,-2.3189,-2.4023,-2.4591,-2.479,-2.5557,-2.6121,-2.6429,-2.7315,-2.7758,-2.7746,-2.7987,-2.7808,-2.7262,-2.742,-2.7392,-0.0,-0.2962,-0.6119,-0.6284,-0.6308,-0.6438,-0.7016,-0.3542,-0.0251,-0.0167,-0.0167,-0.159,-0.6248,-0.7066,-0.7093,-0.7123,-0.7217,-0.7796,-0.937,-1.0994,-1.1867,-1.1312,-1.3292,-1.5148,-1.6167,-1.7348,-1.8528,-1.9618,-1.9682,-1.9497,-1.9083,-1.9058,-1.8591,-1.7509,-1.7491,-1.7718,-1.8104,-1.809,-1.8589,-1.9516,-2.0001,-2.0237,-2.027,-2.0765,-2.1007,-2.1023,-2.1023,-2.1275,-2.1705,-2.2017,-2.2422,-2.2816,-2.3164,-2.3265,-2.3248,-2.3248,-2.3685,-2.4226,-2.4208,-2.419,-2.419,-2.419,-2.419,-2.419,-2.419,-2.419,-2.419,-2.419,-2.419,-2.419,-2.419,-2.3976,-2.3795,-2.4113,-2.3937,-2.3795,-2.4132,-2.3937,-2.3714,-2.3692,-2.3414,-2.3189,-2.3212,-2.3189,-2.3069,-2.2772,-2.2721,-2.2599,-2.2321,-2.231,-2.231,-2.231,-2.231,-2.231,-2.231,-2.2857,-2.3189,-2.3189,-2.4023,-2.4591,-2.479,-2.5023,-2.5251,-2.5524,-2.6458,-2.6899,-2.6841,-2.7694,-2.7585,-2.6649,-2.7236,-2.6569,0.0,-0.105,-0.2145,-0.2158,-0.2133,-0.1454,0.1211,0.3047,0.3771,0.2343,0.1587,0.0667,-0.0918,-0.2856,-0.4147,-0.4164,-0.5811,-0.7224,-0.7667,-0.9218,-1.0301,-1.0251,-1.132,-1.234,-1.3091,-1.5428,-1.7474,-1.8771,-1.823,-1.7809,-1.7669,-1.7398,-1.7084,-1.6733,-1.6764,-1.6858,-1.6995,-1.6995,-1.7341,-1.8009,-1.8565,-1.8993,-1.9353,-1.9513,-1.9793,-2.0139,-2.0431,-2.0616,-2.0765,-2.1212,-2.1458,-2.1622,-2.2218,-2.246,-2.2513,-2.3028,-2.3346,-2.3566,-2.3795,-2.4016,-2.417,-2.3937,-2.3876,-2.3816,-2.3588,-2.3544,-2.3544,-2.3544,-2.3544,-2.3544,-2.3544,-2.3437,-2.3437,-2.3795,-2.361,-2.3459,-2.3795,-2.3588,-2.33,-2.3069,-2.2947,-2.2873,-2.2873,-2.2704,-2.2571,-2.2453,-2.2409,-2.2398,-2.231,-2.231,-2.231,-2.231,-2.231,-2.236,-2.2563,-2.2965,-2.3282,-2.3522,-2.4282,-2.4731,-2.4804,-2.5075,-2.5313,-2.5506,-2.5803,-2.5966,-2.5941,-2.6238,-2.616,-2.5745,-2.5943,-2.5956,0.0,0.0,0.0,0.0,0.0,0.112,0.5308,0.6286,0.5837,0.4382,0.3555,0.3149,0.3388,0.1863,0.0164,-0.0921,-0.2699,-0.4202,-0.5107,-0.6537,-0.771,-0.8343,-0.9052,-0.9768,-1.0705,-1.2912,-1.5002,-1.6817,-1.6446,-1.6212,-1.6249,-1.6147,-1.5998,-1.5823,-1.5823,-1.5964,-1.6194,-1.6194,-1.657,-1.7312,-1.7666,-1.8106,-1.8612,-1.8612,-1.8817,-1.9118,-1.9405,-1.9728,-2.0058,-2.0366,-2.0715,-2.1055,-2.1532,-2.1694,-2.1753,-2.2228,-2.2591,-2.2863,-2.3369,-2.3671,-2.3816,-2.3588,-2.3522,-2.3477,-2.3277,-2.3189,-2.3189,-2.3189,-2.3189,-2.3189,-2.3189,-2.3117,-2.3117,-2.3437,-2.3277,-2.3117,-2.3437,-2.3259,-2.2972,-2.2746,-2.2608,-2.2563,-2.2563,-2.2398,-2.231,-2.231,-2.231,-2.231,-2.231,-2.231,-2.231,-2.231,-2.231,-2.2398,-2.2669,-2.3021,-2.3346,-2.3671,-2.4386,-2.4804,-2.4804,-2.5145,-2.5387,-2.5506,-2.5511,-2.5542,-2.5548,-2.5507,-2.5447,-2.5341,-2.5303,-2.5499,0.0301,0.0309,0.0314,0.0157,0.0157,0.1256,0.5355,0.6325,0.6203,0.5872,0.5613,0.562,0.6235,0.6357,0.5378,0.2489,0.1888,0.0826,-0.1859,-0.309,-0.4225,-0.5714,-0.6535,-0.7553,-0.8862,-0.9832,-1.1265,-1.3612,-1.4251,-1.4607,-1.4759,-1.5088,-1.5085,-1.4617,-1.4652,-1.496,-1.5543,-1.5543,-1.6102,-1.7188,-1.7188,-1.7463,-1.8013,-1.8013,-1.8052,-1.8106,-1.8106,-1.866,-1.9498,-1.9498,-2.0043,-2.0862,-2.0926,-2.0926,-2.0926,-2.0991,-2.1442,-2.2135,-2.2838,-2.3141,-2.3189,-2.3165,-2.3141,-2.3141,-2.3117,-2.3117,-2.3117,-2.3159,-2.3141,-2.3141,-2.3141,-2.2923,-2.2772,-2.3093,-2.2923,-2.2772,-2.3093,-2.2923,-2.2669,-2.2669,-2.249,-2.231,-2.231,-2.231,-2.231,-2.231,-2.231,-2.231,-2.231,-2.231,-2.231,-2.231,-2.231,-2.2415,-2.2695,-2.3021,-2.3346,-2.3692,-2.4403,-2.4804,-2.4804,-2.5184,-2.5428,-2.5505,-2.5554,-2.5605,-2.5605,-2.5531,-2.5476,-2.5409,-2.5322,-2.5203,0.3874,0.4709,0.4328,0.2738,0.2345,0.2958,0.5521,0.6046,0.5999,0.5832,0.5725,0.5978,0.6974,0.6678,0.6033,0.5277,0.3234,0.1217,-0.0404,-0.1833,-0.3019,-0.3724,-0.5213,-0.6192,-0.6322,-0.7335,-0.8431,-0.9446,-1.1452,-1.2636,-1.2641,-1.2693,-1.2852,-1.3253,-1.3716,-1.4286,-1.4926,-1.4926,-1.5096,-1.5353,-1.5353,-1.5872,-1.6844,-1.6844,-1.73,-1.8106,-1.8106,-1.8249,-1.8468,-1.8468,-1.8608,-1.8896,-1.9677,-1.9974,-2.0028,-2.0748,-2.1102,-2.1305,-2.1502,-2.2283,-2.3117,-2.2556,-2.238,-2.2327,-2.2085,-2.2017,-2.2074,-2.2419,-2.2535,-2.2535,-2.2535,-2.2453,-2.2463,-2.2764,-2.2616,-2.249,-2.2764,-2.2616,-2.2398,-2.2398,-2.2349,-2.231,-2.231,-2.231,-2.231,-2.231,-2.231,-2.231,-2.231,-2.231,-2.231,-2.231,-2.231,-2.2508,-2.3021,-2.3141,-2.3437,-2.4054,-2.4524,-2.4804,-2.4804,-2.5145,-2.539,-2.5505,-2.551,-2.5542,-2.5605,-2.5535,-2.5464,-2.5409,-2.5322,-2.5274,0.4528,0.5593,0.5989,0.4781,0.454,0.4745,0.5773,0.5826,0.5764,0.5684,0.5641,0.5827,0.6619,0.6372,0.6108,0.6312,0.4846,0.3576,0.2863,0.1494,0.0153,-0.0728,-0.1713,-0.2715,-0.3739,-0.4838,-0.5864,-0.6792,-0.901,-1.045,-1.0805,-1.0837,-1.1156,-1.1886,-1.226,-1.2898,-1.3878,-1.4411,-1.4698,-1.4698,-1.4698,-1.505,-1.5652,-1.5915,-1.6378,-1.7011,0.0,-1.7544,-1.7747,-1.7747,-1.7907,-1.8185,-1.8736,-1.9111,-1.9346,-1.9869,-2.0215,-2.04,-2.04,-2.1036,-2.1849,-2.1678,-2.1622,-2.1592,-2.1383,-2.146,-2.1658,-2.1928,-2.2003,-2.2003,-2.2003,-2.2003,-2.2044,-2.2175,-2.2254,-2.2349,-2.25,-2.2415,-2.231,-2.231,-2.231,-2.231,-2.231,-2.231,-2.231,-2.231,-2.231,-2.231,-2.231,-2.231,-2.231,-2.231,-2.231,-2.248,-2.2947,-2.3117,-2.3414,-2.3955,-2.4491,-2.4804,-2.4804,-2.5126,-2.537,-2.5505,-2.5512,-2.5545,-2.5644,-2.5542,-2.5486,-2.5447,-2.5341,-2.5303,0.4046,0.4857,0.6291,0.6291,0.6352,0.6367,0.62,0.5929,0.5765,0.5891,0.5834,0.5883,0.6235,0.6193,0.6302,0.6783,0.6608,0.6391,0.6342,0.522,0.4045,0.2774,0.2559,0.152,-0.1007,-0.2193,-0.3412,-0.483,-0.6484,-0.788,-0.8984,-0.9166,-0.9644,-1.0501,-1.0602,-1.124,-1.2522,-1.3632,-1.4168,-1.4168,-1.4168,-1.4261,-1.4457,-1.4982,-1.5342,-1.5632,-1.6139,-1.671,-1.7188,-1.7188,-1.7463,-1.7907,-1.7987,-1.8302,-1.8688,-1.8765,-1.9051,-1.939,-1.939,-1.9647,-2.0035,-2.0618,-2.0862,-2.0894,-2.0894,-2.1134,-2.146,-2.1491,-2.1521,-2.1521,-2.1521,-2.1552,-2.1582,-2.1582,-2.1974,-2.2282,-2.2209,-2.218,-2.2152,-2.2209,-2.2209,-2.2237,-2.2282,-2.231,-2.231,-2.231,-2.231,-2.231,-2.231,-2.231,-2.231,-2.231,-2.231,-2.2398,-2.2669,-2.3021,-2.3346,-2.3671,-2.4386,-2.4804,-2.4804,-2.5126,-2.537,-2.5505,-2.5512,-2.5564,-2.5703,-2.5573,-2.5511,-2.5505,-2.537,-2.5303,0.5876,0.6041,0.6278,0.6271,0.6692,0.7056,0.6957,0.7293,0.7664,0.7612,0.7564,0.7829,0.8856,0.8356,0.822,0.9518,0.8273,0.6915,0.636,0.6073,0.5873,0.5595,0.5155,0.393,0.1659,0.1079,-0.0066,-0.2248,-0.2575,-0.396,-0.6845,-0.7093,-0.7741,-0.9044,-0.9592,-1.0316,-1.1157,-1.1349,-1.1499,-1.1499,-1.1499,-1.2083,-1.311,-1.3243,-1.4125,-1.5588,-1.572,0.0,-1.6637,-1.6637,-1.668,-1.6837,-1.7271,-1.7504,-1.7626,-1.8066,-1.8288,-1.8366,-1.8366,-1.8391,-1.8608,-1.9519,-2.0128,-2.0416,-2.0416,-2.0483,-2.0616,-2.0975,-2.1086,-2.1086,-2.1086,-2.1337,-2.1582,-2.1582,-2.1974,-2.218,-2.1794,-2.1446,-2.1323,-2.1658,-2.1718,-2.1823,-2.2237,-2.231,-2.231,-2.231,-2.231,-2.231,-2.231,-2.231,-2.231,-2.231,-2.231,-2.2398,-2.2669,-2.3021,-2.3346,-2.3671,-2.4386,-2.4804,-2.4804,-2.5126,-2.537,-2.5505,-2.5512,-2.5564,-2.5703,-2.5623,-2.5543,-2.5505,-2.5428,-2.5341,0.6274,0.6271,0.6423,0.6949,0.7183,0.7436,0.7829,0.8043,0.8168,0.8007,0.8027,0.8163,0.8797,0.8503,0.847,0.9216,0.865,0.795,0.7658,0.7782,0.7651,0.6962,0.6638,0.5742,0.3983,0.3738,0.3187,0.2026,0.0877,-0.1512,-0.5435,-0.603,-0.6832,-0.8125,-0.8829,-0.9341,-0.9717,-1.045,-1.0594,-1.0214,-1.0602,-1.1157,-1.1796,-1.2483,-1.328,-1.4182,-1.4846,-1.5466,-1.6051,-1.6051,-1.6238,-1.6522,-1.6795,-1.7034,-1.7353,-1.7585,-1.7666,-1.7666,-1.7666,-1.7666,-1.7773,-1.826,-1.8948,-1.9564,-1.9564,-1.9919,-2.0348,-2.0583,-2.0616,-2.0616,-2.0616,-2.0781,-2.0927,-2.0927,-2.1275,-2.1554,-2.1354,-2.1134,-2.1118,-2.1521,-2.1582,-2.1658,-2.1899,-2.2135,-2.2209,-2.1957,-2.2135,-2.231,-2.231,-2.231,-2.231,-2.231,-2.231,-2.2349,-2.2473,-2.2915,-2.3259,-2.3414,-2.4316,-2.4804,-2.4804,-2.5126,-2.5341,-2.5447,-2.5493,-2.5545,-2.5644,-2.5625,-2.5562,-2.551,-2.5427,-2.537,0.6213,0.6388,0.6795,0.7629,0.7825,0.8033,0.873,0.8759,0.8711,0.8582,0.8544,0.8603,0.866,0.8698,0.8767,0.8923,0.9009,0.9031,0.915,0.9219,0.893,0.8018,0.7713,0.7091,0.5926,0.5748,0.5592,0.542,0.3511,0.0485,-0.396,-0.5072,-0.6023,-0.7004,-0.7741,-0.8159,-0.8265,-0.9356,-0.9607,-0.9068,-0.9769,-1.0195,-1.0399,-1.1589,-1.2376,-1.287,-1.3878,-1.4732,-1.541,-1.541,-1.5688,-1.6107,-1.6107,-1.6429,-1.6925,-1.6925,-1.7021,-1.7105,-1.7105,-1.7105,-1.7105,-1.7105,-1.7867,-1.8727,-1.8727,-1.9222,-1.9869,-1.9954,-1.9989,-2.0039,-2.0143,-2.0261,-2.0314,-2.0416,-2.0649,-2.0862,-2.0862,-2.0797,-2.0829,-2.1228,-2.1321,-2.1352,-2.146,-2.184,-2.2032,-2.1658,-2.2003,-2.231,-2.231,-2.231,-2.231,-2.231,-2.231,-2.231,-2.231,-2.2857,-2.3189,-2.3189,-2.4209,-2.4804,-2.4804,-2.5126,-2.5322,-2.5409,-2.5471,-2.5524,-2.5605,-2.5605,-2.5598,-2.5524,-2.5445,-2.539,0.6051,0.6829,0.7706,0.7783,0.8748,0.9695,0.9742,1.0116,1.0397,1.0371,1.0364,1.0371,1.0397,1.0404,1.0431,1.0712,1.0232,0.9921,1.0223,0.967,0.9291,0.9115,0.8742,0.8122,0.7191,0.6798,0.6268,0.5491,0.4716,0.2455,-0.1573,-0.3585,-0.4691,-0.4812,-0.566,-0.6381,-0.6799,-0.6902,-0.6956,-0.6902,-0.7658,-0.8283,-0.894,-0.974,-1.1048,-1.2822,-1.2918,-1.3679,0.0,-1.4789,-1.4835,-1.488,-1.488,-1.5231,-1.5764,-1.5764,-1.6083,-1.6552,-1.6552,-1.6552,-1.6552,-1.6552,-1.7312,-1.8185,-1.8185,-1.8249,-1.8405,-1.8878,-1.9029,-1.9155,-1.9624,-2.0035,-2.0416,-2.0829,-2.0649,-2.0348,-2.0348,-2.007,-1.9945,-2.0348,-2.04,-2.055,-2.0991,-2.1399,-2.1658,-2.1628,-2.2003,-2.231,-2.231,-2.231,-2.231,-2.231,-2.231,-2.231,-2.231,-2.2857,-2.3189,-2.3189,-2.4209,-2.4804,-2.4804,-2.5126,-2.5322,-2.5409,-2.5467,-2.5525,-2.5605,-2.5664,-2.5664,-2.5584,-2.5531,-2.5447,0.7707,0.8151,0.8841,0.9437,0.9746,1.0089,1.0648,1.0705,1.0624,1.0624,1.0624,1.0624,1.0624,1.0982,1.1387,1.1446,1.1393,1.1424,1.1744,1.1268,1.0698,1.0248,0.9763,0.9114,0.8202,0.775,0.7066,0.6069,0.5168,0.3925,0.2182,-0.0393,-0.2221,-0.309,-0.4381,-0.5395,-0.6168,-0.6199,-0.6081,-0.5928,-0.6691,-0.7176,-0.7481,-0.8639,-0.9555,-1.0402,-1.1232,-1.2073,0.0,-1.3385,-1.3773,-1.4147,-1.4549,-1.4835,-1.505,-1.505,-1.5197,-1.5433,-1.5433,-1.5644,-1.5952,-1.5952,-1.6471,-1.7188,-1.7504,-1.7827,-1.8224,-1.8727,-1.865,-1.8535,-1.908,-1.9339,-1.9492,-1.9692,-1.9829,-1.9929,-1.9929,-1.9803,-1.9818,-2.0212,-2.0314,-2.0348,-2.055,-2.1134,-2.1521,-2.1275,-2.184,-2.231,-2.231,-2.231,-2.231,-2.231,-2.231,-2.231,-2.231,-2.2857,-2.3189,-2.3189,-2.4081,-2.467,-2.479,-2.5012,-2.5192,-2.5341,-2.5447,-2.5507,-2.5531,-2.5641,-2.568,-2.5609,-2.5535,-2.5464,0.8687,0.9165,0.9787,1.0524,1.07,1.0829,1.1174,1.13,1.1233,1.0982,1.1108,1.1296,1.1296,1.1779,1.2143,1.2143,1.2357,1.2664,1.2859,1.2517,1.2074,1.1535,1.121,1.0526,0.9195,0.8425,0.755,0.6463,0.5674,0.4977,0.4536,0.2495,0.0443,-0.1491,-0.2603,-0.3721,-0.4787,-0.5269,-0.5374,-0.5226,-0.5932,-0.6258,-0.6308,-0.7528,-0.8317,-0.8731,-0.9769,-1.0637,0.0,-1.1975,-1.2464,-1.2936,-1.3585,-1.3971,-1.4168,-1.4365,-1.456,-1.4698,-1.4698,-1.5096,-1.5588,-1.5588,-1.6008,-1.6552,-1.6951,-1.7353,-1.7747,-1.8302,-1.8263,-1.8185,-1.8574,-1.8779,-1.8893,-1.8893,-1.9332,-1.969,-1.969,-1.969,-1.9782,-2.007,-2.0124,-2.0124,-2.0124,-2.0846,-2.1337,-2.1023,-2.1615,-2.2135,-2.2282,-2.218,-2.2152,-2.2282,-2.231,-2.231,-2.231,-2.2857,-2.3189,-2.3189,-2.4023,-2.4591,-2.479,-2.4943,-2.5099,-2.5303,-2.5409,-2.5487,-2.5493,-2.5615,-2.5658,-2.5636,-2.5565,-2.5488,0.8504,0.9504,1.0407,1.0407,1.1547,1.2364,1.1261,1.2019,1.2765,1.1958,1.2451,1.3009,1.3009,1.3009,1.3009,1.3009,1.3181,1.3418,1.3418,1.3245,1.3057,1.3064,1.3189,1.2423,1.0263,0.8826,0.755,0.6463,0.6271,0.5672,0.4533,0.4445,0.3067,0.0056,-0.0056,-0.0779,-0.2232,-0.3744,-0.4532,-0.4532,-0.5171,-0.5487,-0.5542,-0.6253,-0.7374,-0.8678,-0.8731,-0.9511,0.0,-1.0813,-1.0813,-1.0914,-1.1566,-1.2248,-1.2918,-1.3569,-1.419,-1.4698,-1.4698,-1.5096,-1.5588,-1.5588,-1.6008,-1.6522,-1.6522,-1.6522,-1.6637,-1.7146,-1.7706,-1.8106,-1.8106,-1.8496,-1.8893,-1.8893,-1.9332,-1.969,-1.969,-1.969,-1.969,-1.9726,-1.9726,-1.9726,-1.9726,-2.0447,-2.0991,-2.0991,-2.1337,-2.1794,-2.2237,-2.1899,-2.1794,-2.2237,-2.231,-2.231,-2.231,-2.2857,-2.3189,-2.3189,-2.4023,-2.4591,-2.479,-2.4943,-2.5099,-2.5303,-2.537,-2.5429,-2.5493,-2.5576,-2.5625,-2.5703,-2.5635,-2.5524,1.022,1.0648,1.1203,1.1819,1.22,1.2392,1.2611,1.2829,1.2948,1.2696,1.3013,1.336,1.305,1.3699,1.4162,1.389,1.3891,1.4057,1.4266,1.3441,1.2883,1.3097,1.2443,1.1567,1.0549,0.9491,0.8715,0.8382,0.7091,0.6153,0.5676,0.4988,0.4175,0.3132,0.2063,0.0779,-0.0668,-0.1168,-0.245,-0.448,-0.4691,-0.4794,-0.4842,-0.5546,-0.6077,-0.6553,-0.7587,-0.829,-0.8758,-0.9695,-1.0115,-1.0218,-1.1366,-1.1904,-1.2209,-1.2939,-1.3296,-1.3478,-1.3478,-1.3873,-1.4365,-1.4365,-1.4778,-1.5332,-1.5776,-1.6194,-1.6552,-1.671,-1.7146,-1.7463,-1.7118,-1.7666,-1.8263,-1.7907,-1.8779,-1.9603,-1.9244,-1.9442,-1.969,-1.969,-1.969,-1.969,-1.969,-2.0174,-2.0516,-2.0516,-2.091,-2.1244,-2.1385,-2.1538,-2.1658,-2.1794,-2.2106,-2.231,-2.231,-2.2857,-2.3189,-2.3189,-2.3881,-2.4444,-2.479,-2.4842,-2.5,-2.5284,-2.537,-2.5428,-2.5506,-2.5576,-2.5605,-2.5625,-2.5565,-2.5488,1.1855,1.2029,1.2306,1.2844,1.3066,1.3179,1.3238,1.3587,1.3846,1.3545,1.3918,1.4188,1.395,1.4532,1.4995,1.4675,1.4628,1.4721,1.4911,1.4217,1.3822,1.4098,1.2824,1.19,1.1772,1.0538,0.9658,0.9338,0.8138,0.7163,0.6648,0.5693,0.5076,0.4868,0.3685,0.2621,0.1728,0.0556,-0.0945,-0.2841,-0.3968,-0.4477,-0.4522,-0.4952,-0.5273,-0.5542,-0.6745,-0.745,0.0,-0.8935,-0.9413,-0.951,-1.0618,-1.1216,-1.1516,-1.2246,-1.2666,-1.2881,-1.2881,-1.3286,-1.3815,-1.3815,-1.4365,-1.5096,-1.5499,-1.6008,-1.6522,-1.6522,-1.6752,-1.6909,-1.6595,-1.7146,-1.7706,-1.7394,-1.8224,-1.9043,-1.893,-1.9169,-1.9442,-1.9639,-1.969,-1.969,-1.969,-2.0035,-2.0314,-2.0314,-2.055,-2.0797,-2.0959,-2.1213,-2.143,-2.1582,-2.2032,-2.231,-2.231,-2.2747,-2.3069,-2.3189,-2.3714,-2.4211,-2.467,-2.476,-2.4923,-2.5173,-2.5302,-2.5409,-2.5466,-2.5545,-2.5605,-2.5644,-2.5568,-2.5521,0.0,1.3441,1.3377,1.3441,1.407,1.4418,1.3388,1.4332,0.0,1.4451,1.4893,1.5449,1.542,1.5439,1.5449,1.542,1.541,1.541,1.541,1.5325,1.5382,1.5713,1.4071,1.3088,1.3474,1.1777,1.0364,0.9466,0.917,0.8537,0.7504,0.6576,0.5923,0.5567,0.4912,0.4539,0.4494,0.1726,0.0223,-0.0056,-0.2843,-0.4307,-0.448,-0.4525,-0.4842,0.0,-0.6199,-0.6966,0.0,-0.8427,-0.8752,-0.8857,-0.9562,-1.0218,-1.0864,-1.1566,-1.2236,-1.2832,-1.2881,-1.3238,-1.3674,-1.3732,-1.4549,-1.5543,-1.5543,-1.6008,-1.6522,-1.6522,-1.6522,-1.6522,-1.6522,-1.6909,-1.7312,-1.7229,-1.7706,-1.8302,-1.8727,-1.8893,-1.9095,-1.9603,-1.969,-1.969,-1.969,-2.0,-2.0246,-2.0246,-2.0246,-2.0416,-2.0862,-2.0959,-2.115,-2.1521,-2.2003,-2.231,-2.231,-2.2537,-2.2848,-2.3165,-2.3522,-2.3941,-2.4478,-2.47,-2.485,-2.4998,-2.5203,-2.5341,-2.5409,-2.5545,-2.5625,-2.5703,-2.5625,-2.56,1.4928,0.0,1.3255,1.3857,1.4168,1.439,0.0,1.5118,1.5352,1.5167,1.5555,1.5811,1.5469,1.5684,1.5801,1.5469,1.541,1.541,1.541,1.5325,1.4983,1.4067,1.3901,1.3379,1.2313,1.1817,1.1163,1.0364,0.966,0.9062,0.8609,0.7573,0.6648,0.5888,0.546,0.5014,0.4484,0.3799,0.2282,-0.0,-0.0723,-0.2282,-0.448,-0.4477,-0.4577,-0.4787,-0.5437,0.0,-0.6912,-0.767,-0.8268,-0.8857,-0.9562,-1.0218,-1.0864,-1.1566,-1.1922,-1.2138,-1.2715,-1.2647,-1.2355,-1.2939,-1.3931,-1.4926,-1.4926,-1.5656,-1.6522,-1.6522,-1.6522,-1.6522,-1.6522,-1.6909,-1.7188,-1.6795,-1.7706,-1.8612,-1.8341,-1.893,-1.9566,-1.969,-1.969,-1.969,-1.969,-1.9782,-1.9839,-1.9839,-1.9839,-1.9874,-1.998,-2.0599,-2.1039,-2.1118,-2.1857,-2.231,-2.231,-2.2537,-2.2848,-2.3165,-2.3522,-2.3941,-2.4478,-2.47,-2.485,-2.4998,-2.5241,-2.5409,-2.5486,-2.5564,-2.5625,-2.5703,-2.5625,-2.5602,1.541,1.4746,1.4213,1.4628,1.4746,1.4874,1.5294,1.5633,1.5921,1.5921,1.6123,1.6321,1.64,1.6055,1.591,1.6343,1.5853,1.5488,1.5684,1.5972,1.5785,1.4755,1.4547,1.4055,1.2981,1.2258,1.1648,1.1163,1.0351,0.9737,0.9329,0.8082,0.7031,0.6276,0.5491,0.4846,0.4525,0.4477,0.3685,0.2058,0.0668,-0.0834,-0.2506,-0.3855,-0.4477,-0.4525,-0.5222,0.0,-0.6199,-0.7235,-0.7943,-0.8368,-0.9047,-0.9762,-1.0364,-1.0771,-1.1065,-1.1416,-1.2138,-1.2344,-1.2344,-1.2774,-1.3705,-1.4698,-1.4698,-1.5522,-1.6522,-1.6522,-1.6522,-1.6522,-1.6522,-1.671,-1.6879,-1.6552,-1.7146,-1.7867,-1.8066,-1.838,-1.8817,-1.9566,-1.9479,-1.9406,-1.9639,-1.969,-1.969,-1.969,-1.969,-1.969,-1.969,-2.0481,-2.0991,-2.0991,-2.1781,-2.231,-2.231,-2.2409,-2.2704,-2.3165,-2.3369,-2.3738,-2.4339,-2.4639,-2.491,-2.5122,-2.5273,-2.539,-2.5447,-2.5513,-2.5597,-2.5644,-2.5644,-2.5644,1.541,1.5459,1.5498,1.543,1.5468,1.5584,1.5584,1.614,1.6652,1.6652,1.6652,1.6866,1.7468,1.6585,1.613,1.7413,1.6472,1.5684,1.6066,1.6657,1.6746,1.6087,1.5458,1.4839,1.4249,1.2992,1.2074,1.1834,1.1121,1.0458,0.9773,0.8475,0.7427,0.6703,0.5487,0.4757,0.4519,0.4473,0.448,0.448,0.1893,0.0445,-0.0111,-0.2899,-0.4252,-0.4536,0.0,0.0,-0.5597,-0.6961,-0.7616,-0.7777,-0.8533,-0.9211,-0.9814,-0.9814,-1.0167,-1.0762,-1.1408,-1.2197,-1.2881,-1.2881,-1.3705,-1.4698,-1.4698,-1.5522,-1.6522,-1.6522,-1.6522,-1.6522,-1.6522,-1.6522,-1.6522,-1.6522,-1.6552,-1.6879,-1.7787,-1.7706,-1.7827,-1.9207,-1.9169,-1.9043,-1.9479,-1.9639,-1.969,-1.969,-1.969,-1.969,-1.969,-2.0481,-2.0991,-2.0991,-2.1781,-2.231,-2.231,-2.231,-2.2535,-2.3093,-2.3165,-2.3504,-2.4228,-2.4591,-2.4936,-2.5253,-2.5274,-2.5322,-2.5409,-2.5466,-2.5512,-2.5605,-2.5664,-2.5684,1.541,1.5684,1.5879,1.5508,1.5864,1.6322,1.6322,1.6922,1.7413,1.7413,1.7413,1.7468,1.7578,1.7413,1.7357,1.7578,1.6866,1.6304,1.6117,1.6186,1.6108,1.5557,1.577,1.5457,1.4309,1.3965,1.3295,1.1888,1.1389,1.0845,1.0053,0.9343,0.8359,0.7038,0.669,0.5875,0.4519,0.4519,0.4473,0.4494,0.4039,0.2458,-0.0056,-0.1785,-0.3239,-0.4532,0.0,-0.4948,-0.5542,-0.6421,-0.7128,-0.7777,-0.8533,-0.9211,-0.9814,-0.9814,-0.9865,-1.0064,-1.0712,-1.1792,-1.2881,-1.2881,-1.3705,-1.4698,-1.4698,-1.5522,-1.6522,-1.6522,-1.6522,-1.6522,-1.6522,-1.6522,-1.6522,-1.6522,-1.6837,-1.7229,-1.7394,-1.7706,-1.8066,-1.8302,-1.865,-1.893,-1.9006,-1.9406,-1.969,-1.969,-1.969,-1.969,-1.969,-2.0481,-2.0991,-2.0991,-2.1781,-2.231,-2.231,-2.231,-2.2426,-2.2746,-2.3045,-2.3574,-2.4426,-2.467,-2.4883,-2.5034,-2.5214,-2.5322,-2.5409,-2.5408,-2.5479,-2.5605,-2.5605,-2.5644,1.6574,1.6743,1.6848,1.6627,1.6717,1.6911,1.7032,1.7677,1.8167,1.8167,1.8167,1.834,1.8715,1.8409,1.8182,1.8452,1.8329,1.7831,1.6904,1.6494,1.6095,1.5488,1.5586,1.5507,1.4893,1.4085,1.3243,1.2512,1.1352,1.0453,0.9886,0.9124,0.8335,0.7711,0.7254,0.6464,0.5305,0.5305,0.5042,0.4477,0.3635,0.2514,0.1115,-0.0334,-0.2291,-0.4497,0.0,-0.4695,-0.5011,-0.532,-0.586,-0.6627,-0.7771,-0.8415,-0.8718,-0.9099,-0.971,-1.0364,-1.0712,-1.1742,-1.2881,-1.2881,-1.3515,-1.419,-1.419,-1.505,-1.5996,-1.5996,-1.6238,-1.6522,-1.6522,-1.6522,-1.6522,-1.6522,-1.668,-1.6951,-1.7229,-1.7271,-1.7504,-1.838,-1.8496,-1.865,-1.9244,-1.953,-1.969,-1.969,-1.969,-1.969,-1.969,-2.0481,-2.0991,-2.0991,-2.1781,-2.231,-2.231,-2.231,-2.2508,-2.2947,-2.3282,-2.3783,-2.4478,-2.4575,-2.4752,-2.4998,-2.5088,-2.5222,-2.5341,-2.539,-2.5421,-2.5493,-2.5574,-2.5625,1.7578,1.7667,1.7779,1.782,1.7789,1.7835,1.8002,1.8729,1.9365,1.9365,1.9365,1.9539,2.0082,1.9552,1.9125,1.9458,1.9584,1.9111,1.7712,1.7048,1.6378,1.5478,1.541,1.541,1.541,1.4273,1.3433,1.3009,1.1541,1.0398,0.9758,0.8884,0.8305,0.8078,0.7566,0.6827,0.5867,0.591,0.545,0.4467,0.3292,0.2345,0.1673,0.0502,-0.1285,-0.3485,-0.3816,-0.4033,-0.419,-0.4385,-0.4871,-0.5651,-0.6961,-0.7563,-0.7777,-0.8533,-0.9562,-1.0568,-1.0771,-1.1584,-1.2666,-1.2822,-1.3334,-1.3815,-1.3815,-1.4549,-1.541,-1.5543,-1.5908,-1.6337,-1.6466,-1.6522,-1.6522,-1.6522,-1.6522,-1.6595,-1.7034,-1.6795,-1.6909,-1.8263,-1.8302,-1.8419,-1.9369,-1.9603,-1.969,-1.969,-1.969,-1.969,-1.969,-2.0364,-2.0862,-2.1007,-2.1675,-2.218,-2.2282,-2.231,-2.2535,-2.3045,-2.3392,-2.3801,-2.4284,-2.4425,-2.4651,-2.4949,-2.4986,-2.5099,-2.5303,-2.5341,-2.539,-2.5399,-2.5517,-2.5668,1.7578,1.7913,1.8329,1.8565,1.901,1.94,1.942,2.0416,2.1312,2.1312,2.1312,2.1299,2.1368,2.0924,2.0434,2.0201,1.9856,1.9239,1.8112,1.7582,1.6836,1.5566,1.541,1.541,1.541,1.5294,1.4628,1.313,1.2619,1.162,0.9816,0.9342,0.8722,0.7758,0.7804,0.7078,0.5563,0.5741,0.5349,0.4477,0.4376,0.2852,0.0167,0.0056,-0.0112,-0.0391,-0.1785,-0.2676,-0.3174,-0.41,-0.4871,-0.5597,-0.6367,-0.7074,-0.7777,-0.8533,-0.9263,-0.9961,-1.0568,-1.1266,-1.1972,-1.2666,-1.3334,-1.3815,-1.3815,-1.4236,-1.488,-1.5454,-1.5632,-1.5776,-1.6337,-1.6522,-1.6522,-1.6522,-1.6522,-1.6522,-1.6552,-1.6522,-1.668,-1.7312,-1.7787,-1.8302,-1.8855,-1.9369,-1.969,-1.969,-1.969,-1.969,-1.969,-2.007,-2.0516,-2.0959,-2.1399,-2.1823,-2.2254,-2.231,-2.2426,-2.2721,-2.3045,-2.3392,-2.3756,-2.4229,-2.4591,-2.4818,-2.4943,-2.5099,-2.5303,-2.5303,-2.5341,-2.5409,-2.5408,-2.5886,1.8992,1.9083,1.9245,1.9368,2.0101,2.068,2.0348,2.0914,2.1648,2.2105,2.1801,2.1493,2.1493,2.1317,2.1187,2.1038,2.0217,1.9483,1.9046,1.7781,1.6681,1.6171,1.569,1.541,1.541,1.4932,1.4204,1.307,1.2246,1.1234,1.0013,0.9673,0.9345,0.8952,0.8985,0.8444,0.7178,0.6818,0.6131,0.5117,0.4698,0.3411,0.1338,0.0391,0.0,-0.0056,-0.0615,-0.2014,-0.3984,-0.4363,-0.4636,-0.5014,-0.6154,-0.7074,-0.7777,-0.8533,-0.9465,-1.0466,-1.0712,-1.1534,-1.255,-1.2822,-1.3065,-1.3238,-1.3238,-1.3647,-1.4283,-1.488,-1.532,-1.5732,-1.6324,-1.6522,-1.6522,-1.6522,-1.6522,-1.6522,-1.6522,-1.6522,-1.668,-1.7188,-1.7747,-1.8263,-1.8817,-1.9332,-1.969,-1.969,-1.969,-1.969,-1.969,-2.0054,-2.0382,-2.055,-2.1197,-2.1794,-2.2254,-2.231,-2.2349,-2.2436,-2.2915,-2.3346,-2.3692,-2.4096,-2.441,-2.4607,-2.4785,-2.4956,-2.5111,-2.5253,-2.5303,-2.5341,-2.5937,-2.641,1.9798,1.9798,1.9849,2.0024,2.079,2.1443,2.123,2.1606,2.2166,2.2635,2.2549,2.2229,2.1838,2.1957,2.1949,2.1574,2.0767,2.006,1.967,1.8373,1.7264,1.656,1.6036,1.5642,1.541,1.4874,1.4273,1.3425,1.2402,1.1451,1.0523,1.0039,0.978,0.9686,0.9686,0.9189,0.8229,0.7486,0.6575,0.5487,0.4794,0.3968,0.285,0.0893,0.0,0.0,0.0,-0.1457,-0.3766,-0.3758,-0.4089,-0.4636,-0.6046,-0.6912,-0.745,-0.8427,-0.9361,-1.0218,-1.0415,-1.1133,-1.2008,-1.2412,-1.2559,-1.2608,-1.2832,-1.32,-1.3647,-1.4247,-1.4687,-1.5219,-1.6008,-1.638,-1.6522,-1.6522,-1.6522,-1.6522,-1.6522,-1.6522,-1.668,-1.7188,-1.7747,-1.8263,-1.8817,-1.9332,-1.969,-1.969,-1.969,-1.969,-1.969,-1.9929,-2.0227,-2.0483,-2.1165,-2.1794,-2.2254,-2.231,-2.231,-2.231,-2.2773,-2.3189,-2.3522,-2.3858,-2.4191,-2.4495,-2.4639,-2.4795,-2.501,-2.5141,-2.5388,-2.5726,-2.636,-2.6956,1.9798,1.9798,1.9949,2.0567,2.1091,2.1644,2.2184,2.2736,2.3138,2.3138,2.3767,2.389,2.2526,2.2902,2.2975,2.1668,2.1481,2.1058,1.9761,1.9579,1.8811,1.6761,1.6492,1.6208,1.5468,1.541,1.505,1.4273,1.3485,1.2542,1.1353,1.0523,0.9987,0.9699,0.9686,0.9195,0.8223,0.7486,0.6575,0.5487,0.4842,0.4529,0.4383,0.1396,0.0,0.0,0.0,-0.084,-0.2184,-0.2233,-0.3121,-0.4625,-0.6041,-0.6588,-0.6804,-0.8262,-0.8804,-0.891,-0.9562,-0.9814,-1.0012,-1.1366,-1.1814,-1.1922,-1.2666,-1.2881,-1.3017,-1.3637,-1.3815,-1.4097,-1.5264,-1.6051,-1.6466,-1.6522,-1.6522,-1.6522,-1.6522,-1.6522,-1.668,-1.7188,-1.7747,-1.8263,-1.8817,-1.9332,-1.969,-1.969,-1.969,-1.969,-1.969,-1.969,-2.0015,-2.0894,-2.1337,-2.1794,-2.2237,-2.231,-2.231,-2.231,-2.2563,-2.2848,-2.3165,-2.3522,-2.3961,-2.4495,-2.4495,-2.4663,-2.4998,-2.501,-2.5558,-2.6601,-2.6621,-2.7505,1.9798,2.01,2.0504,2.068,2.138,2.2108,2.2272,2.3134,2.3943,2.3943,2.4118,2.389,2.2526,2.247,2.2267,2.1121,2.097,2.0648,1.9862,1.9286,1.8569,1.7435,1.6821,1.6208,1.5468,1.541,1.505,1.4273,1.3965,1.3184,1.1745,1.1446,1.088,0.9993,0.9987,0.9629,0.8905,0.8223,0.7311,0.6258,0.5546,0.4956,0.4428,0.2456,0.1004,0.0,0.0,-0.0841,-0.2301,-0.3363,-0.4082,-0.4625,-0.6041,-0.6588,-0.6804,-0.8262,-0.9113,-0.951,-0.971,-1.0115,-1.0669,-1.1516,-1.1814,-1.1922,-1.2666,-1.2881,-1.3017,-1.3637,-1.3815,-1.3956,-1.4778,-1.541,-1.5952,-1.638,-1.6522,-1.6522,-1.6522,-1.6522,-1.6552,-1.671,-1.7463,-1.8145,-1.8302,-1.9095,-1.969,-1.969,-1.969,-1.969,-1.969,-1.969,-1.9909,-2.0449,-2.091,-2.1354,-2.1764,-2.2106,-2.231,-2.231,-2.236,-2.2554,-2.2848,-2.3392,-2.3777,-2.3923,-2.432,-2.4543,-2.4651,-2.5506,-2.6084,-2.6407,-2.7731,-2.8621,2.0413,2.0727,2.1041,2.1267,2.182,2.2417,2.2981,2.3463,2.3826,2.3826,2.406,2.3955,2.2816,2.287,2.2617,2.1222,2.0991,2.0715,1.9911,1.9423,1.8874,1.8112,1.7413,1.6652,1.5921,1.5584,1.5167,1.4688,1.4392,1.3657,1.2328,1.1958,1.1319,1.0362,1.0294,1.0007,0.9419,0.8726,0.774,0.6588,0.5873,0.5167,0.447,0.3522,0.1955,0.0,0.0,-0.084,-0.2298,-0.3872,-0.4484,-0.4625,-0.5714,-0.6367,-0.675,-0.7943,-0.8791,-0.9413,-0.9413,-0.9666,-1.0167,-1.1116,-1.1416,-1.1566,-1.2618,-1.2881,-1.2968,-1.3334,-1.342,-1.36,-1.4201,-1.4595,-1.5096,-1.5964,-1.6337,-1.6522,-1.6522,-1.6522,-1.6522,-1.6522,-1.7188,-1.7787,-1.7787,-1.865,-1.9369,-1.9369,-1.9566,-1.969,-1.969,-1.969,-1.9839,-2.0246,-2.055,-2.0943,-2.1552,-2.1869,-2.2106,-2.2282,-2.231,-2.236,-2.2537,-2.3159,-2.3628,-2.3896,-2.421,-2.4428,-2.4495,-2.5235,-2.5963,-2.6683,-2.7815,-2.8734,2.1453,2.1574,2.1681,2.2184,2.2347,2.2685,2.3942,2.359,2.3138,2.3185,2.3708,2.3943,2.3245,2.3708,2.3623,2.1781,2.1493,2.1091,1.9962,1.9798,1.9527,1.8768,1.8058,1.7302,1.6539,1.5806,1.541,1.541,1.4746,1.3965,1.3122,1.2328,1.1531,1.0744,1.0624,1.0342,0.9693,0.9026,0.8,0.6588,0.5923,0.5218,0.4519,0.4487,0.2854,0.0,0.0,-0.0783,-0.212,-0.3811,-0.4484,-0.4574,-0.5218,-0.5928,-0.6696,-0.745,-0.8156,-0.8804,-0.8804,-0.8804,-0.9008,-1.0312,-1.0762,-1.1074,-1.2412,-1.2832,-1.2881,-1.2881,-1.2881,-1.3017,-1.36,-1.3779,-1.4086,-1.5219,-1.5964,-1.6423,-1.6479,-1.6522,-1.6522,-1.6522,-1.6909,-1.7312,-1.7312,-1.8145,-1.8855,-1.8893,-1.9369,-1.969,-1.969,-1.969,-1.9839,-2.0227,-2.028,-2.0601,-2.1413,-2.1552,-2.1794,-2.2209,-2.2282,-2.231,-2.2349,-2.2883,-2.35,-2.4094,-2.417,-2.4321,-2.459,-2.4681,-2.5602,-2.7285,-2.7377,-2.8339,2.2174,2.2219,2.2171,2.2284,2.2636,2.2987,2.328,2.3185,2.3245,2.3884,2.3649,2.3305,2.3138,2.3245,2.2951,2.1725,2.1493,2.1091,1.9962,1.9798,1.9527,1.8768,1.8058,1.7302,1.6539,1.5806,1.541,1.541,1.5235,1.4805,1.3965,1.3183,1.2389,1.1593,1.0926,1.0342,0.9693,0.9563,0.8519,0.0,0.6421,0.5714,0.4519,0.4487,0.2856,0.0,0.0,-0.0168,-0.067,-0.336,-0.4487,-0.4584,-0.5222,-0.5928,-0.6696,-0.745,-0.8156,-0.8804,-0.8804,-0.8804,-0.8956,-0.9762,-1.0364,-1.0965,-1.1774,-1.2452,-1.2881,-1.2881,-1.2881,-1.2929,-1.3065,-1.3467,-1.4003,-1.4744,-1.5365,-1.5908,-1.638,-1.6522,-1.6522,-1.6522,-1.6909,-1.7312,-1.7312,-1.7827,-1.8419,-1.8855,-1.9369,-1.969,-1.969,-1.969,-1.9711,-1.9818,-2.0124,-2.0382,-2.0567,-2.1228,-2.1642,-2.1748,-2.2106,-2.2371,-2.2599,-2.2996,-2.3259,-2.3414,-2.3917,-2.454,-2.5206,-2.6005,-2.6897,-2.7923,-2.8778,-2.9372,2.3345,2.3324,2.3167,2.2757,2.2865,2.3078,2.3078,2.3078,2.3185,2.3662,2.3365,2.3078,2.3078,2.3078,2.2774,2.1669,2.1493,2.1091,1.9962,1.9475,1.915,1.8768,1.7743,1.6922,1.6539,1.5806,1.541,1.541,1.541,1.505,1.4273,1.3786,1.3053,1.1826,1.1406,1.0759,0.9893,0.9753,0.8934,0.7356,0.6856,0.5882,0.447,0.3747,0.2181,0.0,0.0,0.0,-0.0167,-0.2458,-0.386,-0.4532,-0.4901,-0.5655,-0.6642,-0.702,-0.7883,-0.8804,-0.8804,-0.8804,-0.8956,-0.9961,-1.0517,-1.0965,-1.2039,-1.2608,-1.2881,-1.2881,-1.2881,-1.2881,-1.2881,-1.3152,-1.36,-1.4479,-1.5141,-1.5776,-1.638,-1.6522,-1.6522,-1.6522,-1.671,-1.6909,-1.6909,-1.7585,-1.838,-1.9169,-1.953,-1.969,-1.969,-1.969,-1.969,-1.969,-1.9874,-2.0089,-2.028,-2.091,-2.1399,-2.1582,-2.2032,-2.236,-2.25,-2.2789,-2.3117,-2.3437,-2.4154,-2.4821,-2.5403,-2.6316,-2.717,-2.7966,-2.8535,-2.9063,2.4512,2.4443,2.4118,2.3484,2.3198,2.3138,2.3245,2.3198,2.3078,2.3078,2.3078,2.3078,2.3078,2.3078,2.2811,2.1794,2.1556,2.1129,2.0087,1.921,1.8715,1.8715,1.7413,1.6492,1.6492,1.5806,1.541,1.541,1.541,1.5108,1.4451,1.4273,1.3597,1.2258,1.195,1.1308,1.0288,0.9939,0.9234,0.8161,0.6963,0.5723,0.4477,0.3183,0.162,0.0,0.0,0.0,-0.0112,-0.1618,-0.3128,-0.448,-0.4522,-0.5336,-0.6588,-0.6588,-0.7509,-0.8804,-0.8804,-0.8804,-0.9008,-1.0218,-1.072,-1.1023,-1.2304,-1.2774,-1.2881,-1.2881,-1.2881,-1.2881,-1.2881,-1.2881,-1.322,-1.4392,-1.5074,-1.5644,-1.6337,-1.6522,-1.6522,-1.6522,-1.6522,-1.6522,-1.6522,-1.7312,-1.8302,-1.9281,-1.9479,-1.9603,-1.969,-1.969,-1.969,-1.969,-1.969,-1.9839,-2.0158,-2.0632,-2.1055,-2.146,-2.1945,-2.2209,-2.231,-2.2647,-2.3107,-2.3715,-2.4514,-2.5179,-2.5706,-2.6444,-2.7218,-2.8007,-2.8007,-2.8489,2.5346,2.4819,2.4292,2.4176,2.3603,2.3305,2.4002,2.359,2.3078,2.3078,2.3078,2.3078,2.3078,2.3078,2.2924,2.2297,2.1794,2.1267,2.0693,1.9507,1.8715,1.8715,1.7413,1.6492,1.6492,1.5806,1.541,1.541,1.541,1.5352,1.5235,1.4569,1.4085,1.3906,1.2504,1.1608,1.116,1.0421,0.9427,0.8161,0.6464,0.5226,0.448,0.4262,0.2685,0.0,0.0,0.0,-0.0112,-0.1619,-0.313,-0.449,-0.4525,-0.5336,-0.6588,-0.6588,-0.7509,-0.8804,-0.8804,-0.8804,-0.891,-0.9666,-1.032,-1.0965,-1.1724,-1.2393,-1.2881,-1.2881,-1.2881,-1.2881,-1.2881,-1.2881,-1.3154,-1.4174,-1.4624,-1.5152,-1.625,-1.6522,-1.6522,-1.6522,-1.6522,-1.6522,-1.6522,-1.6993,-1.7626,-1.8224,-1.8688,-1.9169,-1.9639,-1.969,-1.969,-1.969,-1.969,-1.9711,-1.9782,-2.0158,-2.0583,-2.1055,-2.1477,-2.1869,-2.2282,-2.296,-2.3511,-2.3859,-2.4551,-2.5592,-2.6953,-2.7415,-2.8044,-2.8851,-2.8851,-2.8929,2.5024,2.4586,2.4176,2.3767,2.3365,2.3198,2.3543,2.3365,2.3078,2.3078,2.3078,2.3078,2.3078,2.3078,2.289,2.2397,2.1845,2.1181,2.0226,1.8951,1.7961,1.7523,1.6528,1.5864,1.5864,1.5584,1.541,1.541,1.541,1.541,1.541,1.505,1.4688,1.4204,1.3537,1.2668,1.1609,1.1015,0.9998,0.838,0.7038,0.6043,0.5317,0.4748,0.2854,0.0,0.0,0.0,-0.0112,-0.1619,-0.313,-0.4494,-0.4525,-0.5336,-0.6588,-0.6588,-0.7509,-0.8804,-0.8804,-0.8804,-0.8903,-0.9562,-1.0261,-1.0914,-1.1616,-1.2344,-1.2881,-1.2881,-1.2881,-1.2881,-1.2881,-1.2881,-1.3174,-1.4148,-1.4779,-1.5473,-1.6606,-1.667,-1.6522,-1.6522,-1.6522,-1.6595,-1.6909,-1.7146,-1.7463,-1.8027,-1.8574,-1.9006,-1.9207,-1.953,-1.969,-1.969,-1.969,-1.969,-1.969,-2.0296,-2.0797,-2.1007,-2.1615,-2.2291,-2.2902,-2.3224,-2.3871,-2.4838,-2.5352,-2.6152,-2.7211,-2.7846,-2.8427,-2.8994,-2.8994,-2.8994,2.4385,2.4423,2.4439,2.3651,2.3428,2.3424,2.3424,2.3258,2.3078,2.3078,2.3078,2.3078,2.3078,2.3078,2.294,2.2585,2.1761,2.0871,1.9953,1.8372,1.7146,1.6539,1.5864,1.541,1.541,1.541,1.541,1.541,1.541,1.541,1.541,1.541,1.5108,1.451,1.4094,1.3304,1.2143,1.1383,1.0171,0.8604,0.76,0.6653,0.5858,0.4919,0.3074,0.0558,0.0168,0.0,-0.0112,-0.1173,-0.2794,-0.4494,-0.4473,-0.534,-0.6588,-0.6588,-0.7509,-0.8804,-0.8804,-0.8804,-0.8903,-0.9562,-1.0261,-1.0914,-1.1616,-1.2344,-1.2881,-1.2881,-1.2881,-1.29,-1.3018,-1.3037,-1.3283,-1.4134,-1.5027,-1.5973,-1.7134,-1.7036,-1.6773,-1.6923,-1.6835,-1.6903,-1.745,-1.7444,-1.7508,-1.8058,-1.8321,-1.8574,-1.8855,-1.9244,-1.9566,-1.969,-1.969,-1.969,-1.969,-2.0447,-2.1033,-2.1263,-2.2028,-2.2852,-2.3646,-2.3849,-2.4475,-2.5592,-2.6079,-2.6615,-2.7219,-2.7932,-2.8464,-2.8839,-2.8839,-2.8905,2.3668,2.4526,2.5251,2.45,2.4294,2.4234,2.4234,2.3662,2.3078,2.3078,2.3078,2.3078,2.3078,2.3078,2.3065,2.3027,2.1589,2.0423,2.0387,1.8135,1.6539,1.6492,1.5864,1.541,1.541,1.541,1.541,1.541,1.541,1.541,1.541,1.541,1.5352,1.5352,1.3846,1.3009,1.2948,1.1095,0.9661,0.8604,0.76,0.6519,0.55,0.4805,0.3633,0.2007,0.0615,0.0,-0.0,-0.0056,-0.1843,-0.4494,-0.4484,-0.5348,-0.6588,-0.6588,-0.7509,-0.8804,-0.8804,-0.8804,-0.8903,-0.9562,-1.0261,-1.0914,-1.1616,-1.2344,-1.2881,-1.2881,-1.2881,-1.2969,-1.3369,-1.3477,-1.3584,-1.3994,-1.5174,-1.6554,-1.7846,-1.7739,-1.7488,-1.8016,-1.7689,-1.7501,-1.8075,-1.7723,-1.7594,-1.8126,-1.7723,-1.7747,-1.8765,-1.893,-1.9132,-1.9639,-1.969,-1.969,-1.969,-2.031,-2.1084,-2.2,-2.2692,-2.3454,-2.4408,-2.5118,-2.5524,-2.5609,-2.6318,-2.6871,-2.7296,-2.7718,-2.8102,-2.842,-2.842,-2.8633,2.2976,2.3269,2.3564,2.3192,2.3054,2.3007,2.3007,2.3052,2.3078,2.3078,2.3078,2.3078,2.3078,2.3078,2.2944,2.2445,2.1452,2.0427,1.9399,1.8112,1.7077,1.6326,1.6266,1.6035,1.5469,1.5664,1.5713,1.543,1.541,1.541,1.541,1.541,1.541,1.541,1.4332,1.3295,1.2266,1.1057,1.0124,0.9528,0.8063,0.7067,0.6454,0.5135,0.4206,0.353,0.1064,0.0,0.0,0.0,-0.1172,-0.313,-0.4086,-0.5073,-0.5928,-0.6421,-0.7235,-0.8156,-0.8646,-0.8804,-0.8857,-0.9061,-0.9917,-1.0864,-1.1065,-1.199,-1.2881,-1.2881,-1.3076,-1.332,-1.3467,-1.3711,-1.4225,-1.5648,-1.6512,-1.7489,-1.8907,-1.8543,-1.7965,-1.8166,-1.8041,-1.7978,-1.8179,-1.8041,-1.7996,-1.8168,-1.8026,-1.8133,-1.8808,-1.8906,-1.9132,-1.9639,-2.0094,-2.0348,-2.0348,-2.1501,-2.2382,-2.2719,-2.3539,-2.4345,-2.5186,-2.5456,-2.5828,-2.6302,-2.6573,-2.6906,-2.7303,-2.7439,-2.7707,-2.8075,-2.8075,-2.8264,2.2015,2.2299,2.2536,2.2234,2.226,2.24,2.2329,2.2598,2.2852,2.3027,2.3078,2.3005,2.2763,2.2702,2.2506,2.2002,2.1181,2.0148,1.8786,1.7905,1.7153,1.638,1.6553,1.6441,1.5908,1.5986,1.5947,1.5654,1.5498,0.0,1.541,1.541,1.5167,1.4628,1.4085,1.3,1.1406,1.0767,1.0261,0.9967,0.8187,0.7192,0.686,0.5246,0.4231,0.3645,0.2164,0.0963,0.0,0.0,-0.0893,-0.2345,-0.4023,-0.505,-0.5699,-0.6551,-0.7305,-0.8031,-0.8819,-0.9105,-0.9085,-0.8985,-0.988,-1.0927,-1.0854,-1.1792,-1.2881,-1.2881,-1.3184,-1.3545,-1.3682,-1.4033,-1.4824,-1.6719,-1.7274,-1.7863,-1.9438,-1.9108,-1.853,-1.8706,-1.8593,-1.8543,-1.8706,-1.8593,-1.848,-1.848,-1.8316,-1.8376,-1.8822,-1.8901,-1.9123,-1.9632,-2.0303,-2.0722,-2.0722,-2.2086,-2.3032,-2.3201,-2.4158,-2.5046,-2.5715,-2.5898,-2.6201,-2.6674,-2.6691,-2.6841,-2.7083,-2.7083,-2.7303,-2.7678,-2.7678,-2.7964,0.0,0.0,0.0,2.173,2.2062,2.2494,2.2318,2.2297,2.2472,2.2965,2.3078,2.2884,2.2063,2.1877,2.1877,2.1815,2.0749,1.9552,1.868,1.7513,1.6704,1.6694,1.6758,1.6758,1.6665,1.6348,1.6154,1.6125,1.5674,1.542,1.541,1.5352,1.4628,1.307,1.3009,1.2212,1.0624,1.0267,0.9973,0.9621,0.7943,0.6916,0.6544,0.514,0.3648,0.2289,0.3842,0.2785,0.0,0.0,-0.0898,-0.2413,-0.4198,-0.5238,-0.5917,-0.6919,-0.7763,-0.8475,-0.9382,-0.9686,-0.9633,-0.9345,-1.0159,-1.1264,-1.0953,-1.1828,-1.292,-1.292,-1.3223,-1.3643,-1.4009,-1.4482,-1.534,-1.7137,-1.7328,-1.7537,-1.9416,-1.9409,-1.9196,-1.971,-1.9384,-1.9196,-1.971,-1.9371,-1.8983,-1.8995,-1.8581,-1.8408,-1.8889,-1.8962,-1.9176,-1.9685,-2.0363,-2.0782,-2.0782,-2.2004,-2.2955,-2.3413,-2.4569,-2.5465,-2.5977,-2.6436,-2.6691,-2.6691,-2.6691,-2.6691,-2.6691,-2.6691,-2.6906,-2.7286,-2.7286,-2.7689,2.0764,0.0,0.0,0.0,0.0,0.0,2.165,2.202,2.2472,2.2965,2.3078,2.2884,2.2063,2.1877,2.1491,2.0204,1.9706,1.9175,1.8272,1.7849,1.7539,1.7236,1.7471,1.7412,1.6787,1.6904,1.6748,0.0,1.5947,1.5742,1.543,1.4874,1.4085,1.3009,1.2451,1.1655,1.0624,1.0267,0.9727,0.8903,0.7657,0.6714,0.598,0.4984,0.3661,0.2306,0.3853,0.2798,0.0,0.0,-0.102,-0.2699,-0.4318,-0.4994,-0.5333,-0.6795,-0.7408,-0.7822,-0.9201,-0.9686,-0.9666,-0.9586,-1.0546,-1.1729,-1.1622,-1.2636,-1.3789,-1.3789,-1.4092,-1.4531,-1.4951,-1.5535,-1.6325,-1.7324,-1.7901,-1.8548,-1.9554,-1.9685,-1.9623,-1.9773,-1.9384,-1.9196,-1.971,-1.9371,-1.9108,-1.9535,-1.9551,-1.9694,-2.0223,-2.0302,-2.0558,-2.1078,-2.1739,-2.2143,-2.2143,-2.3219,-2.4004,-2.411,-2.5147,-2.5852,-2.5997,-2.6436,-2.6691,-2.6691,-2.6691,-2.6691,-2.6691,-2.6691,-2.6758,-2.6873,-2.7178,-2.756,2.0348,1.9888,1.9527,2.0194,0.0,0.0,2.0551,2.092,2.1305,2.1693,2.1777,2.1604,2.0928,2.0846,2.0333,1.8977,1.8787,1.8596,1.8076,1.8008,1.792,1.7676,1.7861,1.7812,1.7314,1.7334,1.7028,1.6107,1.5747,1.5378,1.4893,1.4451,1.3846,1.3009,1.2205,1.1406,1.0624,1.0267,0.9786,0.9194,0.7857,0.6929,0.6406,0.5214,0.3785,0.2192,0.2518,0.165,-0.0128,-0.1601,-0.2458,-0.2833,-0.4504,-0.5271,-0.5686,-0.7107,-0.7819,-0.8315,-0.9611,-1.0107,-1.0027,-0.9907,-1.0661,-1.1581,-1.1824,-1.2685,-1.3692,-1.4024,-1.4453,-1.4883,-1.5303,-1.5921,-1.6708,-1.7413,-1.8167,-1.8874,-1.9643,-1.9798,-1.9798,-1.9798,-1.956,-1.9447,-1.9748,-1.9547,-1.9447,-1.9761,-2.0112,-2.0441,-2.0745,-2.1037,-2.1335,-2.1685,-2.2278,-2.2724,-2.2724,-2.3557,-2.4074,-2.4074,-2.4855,-2.5335,-2.5335,-2.6016,-2.6401,-2.6401,-2.659,-2.6691,-2.6691,-2.6691,-2.6691,-2.6691,-2.6939,-2.7365,1.972,1.915,1.8715,1.9371,1.9044,0.0,1.9349,1.9479,1.9582,1.9754,1.9823,1.9709,1.9263,1.9152,1.8889,1.7996,1.7833,1.7813,1.7998,1.8008,1.8008,1.8008,1.794,1.7862,1.7862,1.7456,1.6731,1.5838,1.5113,1.4567,1.4231,1.4025,1.3606,1.2879,1.2081,1.1351,1.0624,1.0267,1.0053,0.9925,0.8181,0.724,0.7151,0.5628,0.3909,0.2196,0.0648,-0.0197,-0.0808,-0.3842,-0.4251,-0.3177,-0.4801,-0.5803,-0.6561,-0.7629,-0.8549,-0.9402,-1.0301,-1.0624,-1.0577,-1.0254,-1.0692,-1.1397,-1.189,-1.253,-1.3332,-1.4051,-1.4551,-1.4941,-1.5312,-1.5921,-1.6708,-1.7413,-1.8167,-1.8874,-1.9643,-1.9798,-1.9798,-1.9798,-1.9761,-1.9736,-1.9798,-1.9748,-1.9736,-1.9798,-2.0446,-2.089,-2.0882,-2.1492,-2.1915,-2.1924,-2.2428,-2.2787,-2.2787,-2.3281,-2.3595,-2.3595,-2.4116,-2.4389,-2.4389,-2.5411,-2.6013,-2.6013,-2.647,-2.6691,-2.6691,-2.6691,-2.6691,-2.6691,-2.6691,-2.7166,1.9167,1.8394,1.7852,1.8004,1.7907,0.0,1.8566,1.8737,1.8851,1.9324,1.9448,1.9182,1.8424,1.8259,1.7957,1.7101,1.6572,1.6689,1.7813,1.8008,1.8008,1.8008,1.7354,1.6853,1.6853,1.6157,1.5358,1.484,1.4072,1.3817,1.4172,1.2984,1.2197,1.202,1.1226,1.0744,1.0624,1.0267,0.9803,0.9175,0.7941,0.7024,0.6515,0.5431,0.4092,0.2525,0.0733,-0.1675,-0.4319,-0.356,-0.387,-0.4904,-0.5259,-0.5909,-0.6733,-0.7683,-0.8549,-0.9402,-1.0301,-1.0624,-1.0611,-1.0494,-1.1443,-1.2643,-1.2751,-1.3794,-1.4927,-1.5099,-1.5225,-1.5312,-1.5391,-1.5921,-1.6708,-1.7413,-1.8167,-1.8874,-1.9643,-1.9798,-1.9798,-1.9798,-1.9459,-1.9309,-1.9736,-1.9459,-1.9321,-1.9748,-2.0756,-2.1527,-2.1498,-2.2523,-2.3227,-2.3236,-2.334,-2.3415,-2.3415,-2.3535,-2.3595,-2.3595,-2.4116,-2.4389,-2.4389,-2.5411,-2.6013,-2.6013,-2.647,-2.6691,-2.6691,-2.6691,-2.6691,-2.6691,-2.6691,-2.7263,1.8386,1.7633,1.7135,1.7523,1.7302,0.0,0.0,1.7516,1.7543,1.7662,1.7687,1.752,1.6872,1.6723,1.6471,1.5661,1.5389,1.5501,1.6057,1.6401,1.6513,1.6383,1.5928,1.5575,1.5451,1.5027,1.441,1.3518,1.3204,1.3068,1.3017,1.2258,1.1834,1.1834,1.1045,1.0624,1.0624,1.0414,1.0148,0.9762,0.8364,0.7496,0.7163,0.5788,0.4249,0.2611,0.0807,-0.2087,-0.5343,-0.4442,-0.457,-0.5386,-0.5376,-0.621,-0.7372,-0.7832,-0.8807,-0.9977,-1.0434,-1.0624,-1.0688,-1.1045,-1.1717,-1.2573,-1.3364,-1.4451,-1.541,-1.541,-1.541,-1.541,-1.541,-1.6197,-1.7135,-1.7523,-1.8447,-1.9371,-1.9695,-1.9798,-1.9798,-1.9798,-1.9597,-1.9497,-1.9761,-1.9585,-1.9497,-1.9761,-2.089,-2.1697,-2.1697,-2.2786,-2.3595,-2.3595,-2.3595,-2.3595,-2.3595,-2.3595,-2.3595,-2.3595,-2.3837,-2.4116,-2.4389,-2.5182,-2.5835,-2.6332,-2.659,-2.6877,-2.7249,-2.7249,-2.7249,-2.7249,-2.7249,-2.7879,1.7512,1.6866,1.6425,1.7024,1.6754,1.6322,0.0,0.0,0.0,1.579,1.5626,1.5416,1.5097,1.5033,1.4842,1.4135,1.4106,1.4171,1.395,1.4058,1.4345,1.4612,1.4443,1.4269,1.4049,1.3884,1.3344,1.2432,1.2402,1.2226,1.1802,1.1707,1.1589,1.1593,1.0982,1.0678,1.0624,1.0624,1.0498,1.0301,0.8737,0.7897,0.7702,0.6106,0.4231,0.2072,-0.0134,-0.2693,-0.5406,-0.5396,-0.5386,-0.5442,-0.5561,-0.6597,-0.8027,-0.8156,-0.9262,-1.0624,-1.0624,-1.0624,-1.0744,-1.1531,-1.2012,-1.2557,-1.3965,-1.4874,-1.541,-1.541,-1.541,-1.541,-1.541,-1.6415,-1.7413,-1.7578,-1.8608,-1.9643,-1.9747,-1.9798,-1.9798,-1.9798,-1.9798,-1.9798,-1.9798,-1.9798,-1.9798,-1.9798,-2.089,-2.1697,-2.1697,-2.2786,-2.3595,-2.3595,-2.3595,-2.3595,-2.3595,-2.3595,-2.3595,-2.3595,-2.3595,-2.3837,-2.4389,-2.5012,-2.5783,-2.6691,-2.6843,-2.7199,-2.7789,-2.7977,-2.8044,-2.8044,-2.8044,-2.8594,1.6895,1.6093,1.5526,1.5633,1.5584,1.5526,1.5526,0.0,1.446,1.4446,0.0,1.3327,1.3308,0.0,0.0,1.3194,1.279,1.2477,1.244,1.1418,1.1607,1.4073,1.3624,1.308,1.305,1.2233,1.1896,1.2216,1.1593,1.1344,1.1794,1.1361,1.0951,1.0751,1.0873,1.0822,1.0624,1.0624,1.0238,0.9466,0.8484,0.7567,0.6785,0.5841,0.3551,0.0133,-0.3291,-0.4992,-0.5382,-0.5379,-0.5372,-0.5495,-0.6268,-0.7177,-0.8091,-0.8877,-0.9786,-1.0624,-1.0624,-1.0624,-1.0744,-1.1531,-1.2749,-1.4085,-1.4991,-1.5352,-1.541,-1.541,-1.541,-1.541,-1.541,-1.6036,-1.6821,-1.7468,-1.8221,-1.898,-1.9643,-1.9798,-1.9798,-1.9798,-1.9798,-1.9798,-1.9798,-1.9798,-1.9798,-1.9798,-2.089,-2.1697,-2.1697,-2.2786,-2.3595,-2.3595,-2.3595,-2.3595,-2.3595,-2.3595,-2.3595,-2.3595,-2.3595,-2.3837,-2.4389,-2.5373,-2.6139,-2.6691,-2.7351,-2.7705,-2.7789,-2.8518,-2.8839,-2.8839,-2.8839,-2.9282,1.6427,1.6019,1.5791,1.5791,1.5231,1.4688,1.4688,1.4085,1.3485,1.3485,0.0,0.0,0.0,0.0,0.0,0.0,1.1015,1.0683,0.9888,0.9354,0.9723,1.1462,1.0855,0.0,1.0036,1.025,1.0232,0.9799,1.0542,1.0588,0.9627,1.0484,1.0738,1.0086,1.0823,1.1102,1.0815,1.0347,0.9811,0.9274,0.7897,0.7125,0.6819,0.4408,0.207,-0.02,-0.3828,-0.5393,-0.5379,-0.5379,-0.5697,-0.6268,-0.7116,-0.7697,-0.8091,-0.9005,-0.9849,-1.0624,-1.0624,-1.0926,-1.1531,-1.281,-1.3957,-1.4932,-1.5294,-1.541,-1.541,-1.541,-1.541,-1.5526,-1.5921,-1.6595,-1.7302,-1.8058,-1.8821,-1.9423,-1.9747,-1.9798,-1.9798,-1.9798,-1.9798,-1.9798,-1.9798,-1.9798,-1.9952,-2.0295,-2.1148,-2.1852,-2.2239,-2.3039,-2.3595,-2.3595,-2.3595,-2.3595,-2.3595,-2.3595,-2.3595,-2.3595,-2.4184,-2.4617,-2.4855,-2.5872,-2.6521,-2.6691,-2.7435,-2.8044,-2.8501,-2.9262,-2.9854,-3.026,-2.9837,-3.0023,1.5476,1.5364,1.5392,1.5442,1.4705,1.3872,1.3978,1.331,1.2597,1.2437,1.2204,0.0,0.0,0.0,1.0764,0.9522,0.0,0.9225,0.8148,0.7966,0.8266,0.9141,0.8671,0.82,0.0,0.8766,0.8942,0.8042,0.9365,0.9598,0.8102,0.9501,1.0123,0.9722,1.0305,1.0666,1.0659,0.9716,0.9053,0.8549,0.7307,0.6675,0.6506,0.293,0.0666,-0.0667,-0.3956,-0.5516,-0.5763,-0.5763,-0.628,-0.7111,-0.8027,-0.8355,-0.8484,-0.9332,-1.0047,-1.0618,-1.0863,-1.1593,-1.2626,-1.3837,-1.4746,-1.541,-1.541,-1.541,-1.541,-1.541,-1.541,-1.5584,-1.6322,-1.7034,-1.7797,-1.8501,-1.9254,-1.9798,-1.9798,-1.9798,-1.9798,-1.9798,-1.9798,-1.9798,-1.9798,-1.9798,-2.0055,-2.0696,-2.1293,-2.1946,-2.2603,-2.3231,-2.3595,-2.3595,-2.3595,-2.3595,-2.3595,-2.3595,-2.3681,-2.3794,-2.4712,-2.5259,-2.5411,-2.6245,-2.6793,-2.6996,-2.774,-2.8518,-2.9296,-3.004,-3.0683,-3.119,-3.0649,-3.0683,0.0,0.0,1.3564,1.3917,1.3474,1.3099,1.3375,1.2625,1.1667,1.092,1.0139,0.9361,0.8628,0.8529,0.8463,0.8263,0.8238,0.0,0.0,0.7312,0.7055,0.7972,0.8037,0.8032,0.8027,0.8164,0.8204,0.0,0.8169,0.8199,0.8037,0.8444,0.9002,0.9661,0.9135,0.915,0.9728,0.8772,0.7784,0.6785,0.6719,0.6276,0.5309,0.1732,-0.0599,-0.1866,-0.4353,-0.5892,-0.6654,-0.6654,-0.7177,-0.8027,-0.8941,-0.9274,-0.9338,-1.0238,-1.0561,-1.0681,-1.1469,-1.281,-1.4145,-1.4213,-1.4746,-1.541,-1.541,-1.541,-1.541,-1.541,-1.541,-1.5584,-1.6322,-1.7034,-1.7797,-1.8501,-1.9254,-1.9798,-1.9798,-1.9798,-1.9798,-1.9798,-1.9798,-1.9798,-1.9798,-1.9798,-2.0055,-2.0696,-2.1293,-2.1946,-2.2603,-2.3231,-2.3595,-2.3595,-2.3595,-2.3595,-2.3595,-2.3595,-2.3837,-2.4348,-2.4894,-2.5411,-2.5961,-2.6436,-2.7046,-2.7739,-2.8552,-2.9313,-3.0074,-3.0801,-3.1173,-3.119,-3.1173,-3.1173,0.0,0.0,1.2036,1.3074,0.0,0.0,1.1808,1.1209,1.0306,0.9365,0.8981,0.8736,0.8534,0.8554,0.8419,0.7966,0.7864,0.7522,0.0,0.6036,0.5491,0.4596,0.5547,0.6344,0.6455,0.6396,0.0,0.0,0.7483,0.0,0.6354,0.7276,0.7869,0.8096,0.8797,0.9107,0.908,0.8093,0.7449,0.714,0.6277,0.4408,0.1802,0.0533,-0.1532,-0.4284,-0.5679,-0.64,-0.6719,-0.7307,-0.8091,-0.8877,-0.9204,-0.9658,-1.0174,-1.0491,-1.0624,-1.0807,-1.2151,-1.3304,-1.4273,-1.4815,-1.5167,-1.541,-1.541,-1.541,-1.541,-1.541,-1.5748,-1.6312,-1.7034,-1.7797,-1.8501,-1.9254,-1.9631,-1.9798,-1.9798,-1.9798,-1.9798,-1.9798,-1.9798,-1.9798,-1.9798,-1.9798,-2.0055,-2.0696,-2.1293,-2.1946,-2.2603,-2.3231,-2.3595,-2.3595,-2.3595,-2.3595,-2.3595,-2.3595,-2.3837,-2.4348,-2.4894,-2.5449,-2.5977,-2.6436,-2.7046,-2.7772,-2.8078,-2.8586,-2.9364,-2.96,-2.9719,-2.9753,-3.0243,-3.0734,1.022,1.014,0.0,1.127,1.0714,0.0,1.0137,0.0,0.913,0.8312,0.8103,0.7978,0.7779,0.7807,0.7637,0.7123,0.6468,0.5668,0.0,0.4962,0.4974,0.3766,0.4097,0.4467,0.4611,0.5238,0.5307,0.4688,0.0,0.6423,0.0,0.0,0.684,0.684,0.7724,0.8294,0.8529,0.7389,0.6792,0.664,0.454,0.227,-0.0,-0.0666,-0.2797,-0.6043,-0.647,-0.7046,-0.7697,-0.8221,-0.9005,-0.9786,-1.0091,-1.0534,-1.0982,-1.0681,-1.0989,-1.1663,-1.294,-1.3965,-1.4688,-1.5225,-1.541,-1.541,-1.541,-1.541,-1.5468,-1.57,-1.6151,-1.6708,-1.7731,-1.8328,-1.8874,-1.9631,-1.9798,-1.9798,-1.9798,-1.9798,-1.9798,-1.9798,-1.9798,-1.9798,-1.9798,-1.9798,-2.0093,-2.0966,-2.1424,-2.2039,-2.292,-2.3377,-2.3595,-2.3595,-2.3595,-2.3595,-2.3595,-2.3595,-2.3921,-2.4632,-2.5012,-2.5524,-2.6227,-2.6556,-2.73,-2.8566,-2.8366,-2.8873,-3.0159,-2.9888,-2.977,-2.977,-3.026,-3.0751]}]]